[[{"header":{"parameterUnit":"m.s-1","parameterCategory":1,"la1":31.0,"la2":29.5877,"lo1":-88.7671,"lo2":-86.6584,"dy":0.0162,"dx":0.0185,"nx":115,"ny":88,"refTime":"2023-10-24T00:00:00:Z","depth":0,"parameterNumber":2,"parameterNumberName":"U-component_of_WINDS"},"data":[0.0,0.0,0.0,0.0,0.0,0.0,0.0,0.0,0.0,0.0,0.0,0.0,0.0,0.0,0.0,0.0,0.0,0.0,0.0,0.0,0.0,0.0,0.0,0.0,0.0,0.0,0.0,0.0,0.0,0.0,0.0,0.0,0.0,0.0,0.0,0.0,0.0,0.0,0.0,0.0,0.0,0.0,0.0,0.0,0.0,0.0,0.0,0.0,0.0,0.0,0.0,0.0,0.0,0.0,0.0,0.0,0.0,0.0,0.0,0.0,0.0,0.0,0.0,0.0,0.0,0.0,0.0,0.0,0.0,0.0,0.0,0.0,0.0,0.0,0.0,0.0,0.0,0.0,0.0,0.0,0.0,0.0,0.0,0.0,0.0,0.0,0.0,0.0,0.0,0.0,0.0,0.0,0.0,0.0,0.0,0.0,0.0,0.0,0.0,0.0,0.0,0.0,0.0,0.0,0.0,0.0,0.0,0.0,0.0,0.0,0.0,0.0,0.0,0.0,0.0,0.0,0.0,0.0,0.0,0.0,0.0,0.0,0.0,0.0,0.0,0.0,0.0,0.0,0.0,0.0,0.0,0.0,0.0,0.0,0.0,0.0,0.0,0.0,0.0,0.0,0.0,0.0,0.0,0.0,0.0,0.0,0.0,0.0,0.0,0.0,0.0,0.0,0.0,0.0,0.0,0.0,0.0,0.0,0.0,0.0,0.0,0.0,0.0,0.0,0.0,0.0,0.0,0.0,0.0,0.0,0.0,0.0,0.0,0.0,0.0,0.0,0.0,0.0,0.0,0.0,0.0,0.0,0.0,0.0,0.0,0.0,0.0,0.0,0.0,0.0,0.0,0.0,0.0,0.0,0.0,0.0,0.0,0.0,0.0,0.0,0.0,0.0,0.0,0.0,0.0,0.0,0.0,0.0,0.0,0.0,0.0,0.0,0.0,0.0,0.0,0.0,0.0,0.0,0.0,0.0,0.0,0.0,0.0,0.0,0.0,0.0,0.0,0.0,0.0,0.0,0.0,0.0,0.0,0.0,0.0,0.0,0.0,0.0,0.0,0.0,0.0,0.0,0.0,0.0,0.0,0.0,0.0,0.0,0.0,0.0,0.0,0.0,0.0,0.0,0.0,0.0,0.0,0.0,0.0,0.0,0.0,0.0,0.0,0.0,0.0,0.0,0.0,0.0,0.0,0.0,0.0,0.0,0.0,0.0,0.0,0.0,0.0,0.0,0.0,0.0,0.0,0.0,0.0,0.0,0.0,0.0,0.0,0.0,0.0,0.0,0.0,0.0,0.0,0.0,0.0,0.0,0.0,0.0,0.0,0.0,0.0,0.0,0.0,0.0,0.0,0.0,0.0,0.0,0.0,0.0,0.0,0.0,0.0,0.0,0.0,0.0,0.0,0.0,0.0,0.0,0.0,0.0,0.0,0.0,0.0,0.0,0.0,0.0,0.0,0.0,0.0,0.0,0.0,0.0,0.0,0.0,0.0,0.0,0.0,0.0,0.0,0.0,0.0,0.0,0.0,0.0,0.0,0.0,0.0,0.0,0.0,0.0,0.0,0.0,0.0,0.0,0.0,0.0,0.0,0.0,0.0,0.0,0.0,0.0,0.0,0.0,0.0,0.0,0.0,0.0,0.0,0.0,0.0,0.0,0.0,0.0,0.0,0.0,0.0,0.0,0.0,0.0,0.0,0.0,0.0,0.0,0.0,0.0,0.0,0.0,0.0,0.0,0.0,0.0,0.0,0.0,0.0,0.0,0.0,0.0,0.0,0.0,0.0,0.0,0.0,0.0,0.0,0.0,0.0,0.0,0.0,0.0,0.0,0.0,0.0,0.0,0.0,0.0,0.0,0.0,0.0,0.0,0.0,0.0,0.0,0.0,0.0,0.0,0.0,0.0,0.0,0.0,0.0,0.0,0.0,0.0,0.0,0.0,0.0,0.0,0.0,0.0,0.0,0.0,0.0,0.0,0.0,0.0,0.0,0.0,0.0,0.0,0.0,0.0,0.0,0.0,0.0,0.0,0.0,0.0,0.0,0.0,0.0,0.0,0.0,0.0,0.0,0.0,0.0,0.0,0.0,0.0,0.0,0.0,0.0,0.0,0.0,0.0,0.0,0.0,0.0,0.0,0.0,0.0,0.0,0.0,0.0,0.0,0.0,0.0,0.0,0.0,0.0,0.0,0.0,0.0,0.0,0.0,0.0,0.0,0.0,0.0,0.0,0.0,0.0,0.0,0.0,0.0,0.0,0.0,0.0,0.0,0.0,0.0,0.0,0.0,0.0,0.0,0.0,0.0,0.0,0.0,0.0,0.0,0.0,0.0,0.0,0.0,0.0,0.0,0.0,0.0,0.0,0.0,0.0,0.0,0.0,0.0,0.0,0.0,0.0,0.0,0.0,0.0,0.0,0.0,0.0,0.0,0.0,0.0,0.0,0.0,0.0,0.0,0.0,0.0,0.0,0.0,0.0,0.0,0.0,0.0,0.0,0.0,0.0,0.0,0.0,0.0,0.0,0.0,0.0,0.0,0.0,0.0,0.0,0.0,0.0,0.0,0.0,0.0,0.0,0.0,0.0,0.0,0.0,0.0,0.0,0.0,0.0,0.0,0.0,0.0,0.0,0.0,0.0,0.0,0.0,0.0,0.0,0.0,0.0,0.0,0.0,0.0,0.0,0.0,0.0,0.0,0.0,0.0,0.0,0.0,0.0,0.0,0.0,0.0,0.0,0.0,0.0,0.0,0.0,0.0,0.0,0.0,0.0,0.0,0.0,0.0,0.0,0.0,0.0,0.0,0.0,0.0,0.0,0.0,0.0,0.0,0.0,0.0,0.0,0.0,0.0,0.0,0.0,0.0,0.0,0.0,0.0,0.0,0.0,0.0,0.0,0.0,0.0,0.0,0.0,0.0,0.0,0.0,0.0,0.0,0.0,0.0,0.0,0.0,0.0,0.0,0.0,0.0,0.0,0.0,0.0,0.0,0.0,0.0,0.0,0.0,0.0,0.0,0.0,0.0,0.0,0.0,0.0,0.0,0.0,0.0,0.0,0.0,0.0,0.0,0.0,0.0,0.0,0.0,0.0,0.0,0.0,0.0,0.0,0.0,0.0,0.0,0.0,0.0,0.0,0.0,0.0,0.0,0.0,0.0,0.0,0.0,0.0,0.0,0.0,0.0,0.0,0.0,0.0,0.0,0.0,0.0,0.0,0.0,0.0,0.0,0.0,0.0,0.0,0.0,0.0,0.0,0.0,0.0,0.0,0.0,0.0,0.0,0.0,0.0,0.0,0.0,0.0,0.0,0.0,0.0,0.0,0.0,0.0,0.0,0.0,0.0,0.0,0.0,0.0,0.0,0.0,0.0,0.0,0.0,0.0,0.0,0.0,0.0,0.0,0.0,0.0,0.0,0.0,0.0,0.0,0.0,0.0,0.0,0.0,0.0,0.0,0.0,0.0,0.0,0.0,0.0,0.0,0.0,0.0,0.0,0.0,0.0,0.0,0.0,0.0,0.0,0.0,0.0,0.0,0.0,0.0,0.0,0.0,0.0,0.0,0.0,0.0,0.0,0.0,0.0,0.0,0.0,0.0,0.0,0.0,0.0,0.0,0.0,0.0,0.0,0.0,0.0,0.0,0.0,0.0,0.0,0.0,0.0,0.0,0.0,0.0,0.0,0.0,0.0,0.0,0.0,0.0,0.0,0.0,0.0,0.0,0.0,0.0,0.0,0.0,0.0,0.0,0.0,0.0,0.0,0.0,0.0,0.0,0.0,0.0,0.0,0.0,0.0,0.0,0.0,0.0,0.0,0.0,0.0,0.0,0.0,0.0,0.0,0.0,0.0,0.0,0.0,0.0,0.0,0.0,0.0,0.0,0.0,0.0,0.0,0.0,0.0,0.0,0.0,0.0,0.0,0.0,0.0,0.0,0.0,0.0,0.0,0.0,0.0,0.0,0.0,0.0,0.0,0.0,0.0,0.0,0.0,0.0,0.0,0.0,0.0,0.0,0.0,0.0,0.0,0.0,0.0,0.0,0.0,0.0,0.0,0.0,0.0,0.0,0.0,0.0,0.0,0.0,0.0,0.0,0.0,0.0,0.0,0.0,0.0,0.0,0.0,0.0,0.0,0.0,0.0,0.0,0.0,0.0,0.0,0.0,0.0,0.0,0.0,0.0,0.0,0.0,0.0,0.0,0.0,0.0,0.0,0.0,0.0,0.0,0.0,0.0,0.0,0.0,0.0,0.0,0.0,0.0,0.0,0.0,0.0,0.0,0.0,-1.3901,0.0,0.0,0.0,0.0,0.0,0.0,0.0,0.0,0.0,0.0,0.0,0.0,0.0,0.0,0.0,0.0,0.0,0.0,0.0,0.0,0.0,0.0,0.0,0.0,0.0,0.0,0.0,0.0,0.0,0.0,0.0,0.0,0.0,0.0,0.0,0.0,0.0,0.0,0.0,0.0,0.0,0.0,0.0,0.0,0.0,0.0,0.0,0.0,0.0,0.0,0.0,0.0,0.0,0.0,0.0,0.0,0.0,0.0,0.0,0.0,0.0,0.0,0.0,0.0,0.0,0.0,0.0,0.0,0.0,0.0,0.0,0.0,0.0,0.0,0.0,0.0,0.0,0.0,0.0,0.0,0.0,0.0,0.0,0.0,0.0,0.0,0.0,0.0,0.0,0.0,0.0,0.0,0.0,0.0,0.0,0.0,0.0,0.0,0.0,0.0,0.0,0.0,0.0,0.0,0.0,0.0,0.0,0.0,0.0,0.0,-1.4454,-1.4438,-1.3835,-1.3514,-1.3514,0.0,0.0,0.0,0.0,0.0,0.0,0.0,0.0,0.0,0.0,0.0,0.0,0.0,0.0,0.0,0.0,0.0,0.0,0.0,0.0,0.0,0.0,0.0,0.0,0.0,0.0,0.0,0.0,0.0,0.0,0.0,0.0,0.0,0.0,0.0,0.0,0.0,0.0,0.0,0.0,0.0,0.0,0.0,0.0,0.0,0.0,0.0,0.0,0.0,0.0,0.0,0.0,0.0,0.0,0.0,0.0,0.0,0.0,0.0,0.0,0.0,0.0,0.0,0.0,0.0,0.0,0.0,0.0,0.0,0.0,0.0,0.0,0.0,0.0,0.0,0.0,0.0,0.0,0.0,0.0,0.0,0.0,0.0,0.0,0.0,0.0,0.0,0.0,0.0,0.0,0.0,0.0,0.0,0.0,0.0,0.0,0.0,0.0,0.0,0.0,0.0,0.0,0.0,0.0,0.0,0.0,0.0,0.0,0.0,0.0,0.0,0.0,-1.3638,-1.3403,-1.3391,0.0,0.0,0.0,0.0,0.0,0.0,0.0,0.0,0.0,0.0,0.0,0.0,0.0,0.0,0.0,0.0,0.0,0.0,0.0,0.0,0.0,0.0,0.0,0.0,0.0,0.0,0.0,0.0,0.0,0.0,0.0,0.0,0.0,0.0,0.0,0.0,0.0,0.0,0.0,0.0,0.0,0.0,0.0,0.0,0.0,0.0,0.0,0.0,0.0,0.0,0.0,0.0,0.0,0.0,0.0,0.0,0.0,0.0,0.0,0.0,0.0,0.0,0.0,0.0,0.0,0.0,0.0,0.0,0.0,0.0,0.0,0.0,0.0,0.0,0.0,0.0,0.0,0.0,0.0,0.0,0.0,0.0,0.0,0.0,0.0,0.0,0.0,0.0,0.0,0.0,0.0,0.0,0.0,0.0,0.0,0.0,0.0,0.0,0.0,0.0,0.0,0.0,0.0,0.0,0.0,0.0,0.0,0.0,0.0,0.0,-1.4629,-1.4612,-1.4231,0.0,-1.3997,0.0,0.0,0.0,0.0,0.0,0.0,0.0,0.0,0.0,0.0,0.0,0.0,0.0,0.0,0.0,0.0,0.0,0.0,0.0,0.0,0.0,0.0,0.0,0.0,0.0,0.0,0.0,0.0,0.0,0.0,0.0,0.0,0.0,0.0,0.0,0.0,0.0,0.0,0.0,0.0,0.0,0.0,0.0,0.0,0.0,0.0,0.0,0.0,0.0,0.0,0.0,0.0,0.0,0.0,0.0,0.0,0.0,0.0,0.0,0.0,0.0,0.0,0.0,0.0,0.0,0.0,0.0,0.0,0.0,0.0,0.0,0.0,0.0,0.0,0.0,0.0,0.0,0.0,0.0,0.0,0.0,0.0,0.0,0.0,0.0,0.0,0.0,0.0,0.0,0.0,0.0,0.0,0.0,0.0,0.0,0.0,0.0,0.0,0.0,0.0,0.0,0.0,0.0,0.0,0.0,0.0,0.0,0.0,0.0,0.0,-1.4645,-1.4292,-1.3519,-1.3114,0.0,0.0,0.0,0.0,0.0,0.0,0.0,0.0,0.0,0.0,0.0,0.0,0.0,0.0,0.0,0.0,0.0,0.0,0.0,0.0,0.0,0.0,0.0,0.0,0.0,0.0,0.0,0.0,0.0,0.0,0.0,0.0,0.0,0.0,0.0,0.0,0.0,0.0,0.0,0.0,0.0,0.0,0.0,0.0,0.0,0.0,0.0,0.0,0.0,0.0,0.0,0.0,0.0,0.0,0.0,0.0,0.0,0.0,0.0,0.0,0.0,0.0,0.0,0.0,0.0,0.0,0.0,0.0,0.0,0.0,0.0,0.0,0.0,0.0,0.0,0.0,0.0,0.0,0.0,0.0,0.0,0.0,0.0,0.0,0.0,0.0,0.0,0.0,0.0,0.0,0.0,0.0,0.0,0.0,0.0,0.0,0.0,0.0,0.0,0.0,0.0,0.0,0.0,0.0,0.0,0.0,0.0,0.0,0.0,0.0,-1.5334,-1.4582,-1.3971,-1.3082,-1.2602,-1.2696,0.0,0.0,0.0,0.0,0.0,0.0,0.0,0.0,0.0,0.0,0.0,0.0,0.0,0.0,0.0,0.0,0.0,0.0,0.0,0.0,0.0,0.0,0.0,0.0,0.0,0.0,0.0,0.0,0.0,0.0,0.0,0.0,0.0,0.0,0.0,0.0,0.0,0.0,0.0,0.0,0.0,0.0,0.0,0.0,0.0,0.0,0.0,0.0,0.0,0.0,0.0,0.0,0.0,0.0,0.0,0.0,0.0,0.0,0.0,0.0,0.0,0.0,0.0,0.0,0.0,0.0,0.0,0.0,0.0,0.0,0.0,0.0,0.0,0.0,0.0,0.0,0.0,0.0,0.0,0.0,0.0,0.0,0.0,0.0,0.0,0.0,0.0,0.0,0.0,0.0,0.0,0.0,0.0,0.0,0.0,0.0,0.0,0.0,0.0,0.0,0.0,0.0,0.0,0.0,0.0,0.0,0.0,0.0,-1.5704,-1.5086,-1.4518,-1.3892,-1.3275,-1.304,0.0,0.0,0.0,0.0,0.0,0.0,0.0,0.0,0.0,0.0,0.0,0.0,0.0,0.0,0.0,0.0,0.0,0.0,0.0,0.0,0.0,0.0,0.0,0.0,0.0,0.0,0.0,0.0,0.0,0.0,0.0,0.0,0.0,0.0,0.0,0.0,0.0,0.0,0.0,0.0,0.0,0.0,0.0,0.0,0.0,0.0,0.0,0.0,0.0,0.0,0.0,0.0,0.0,0.0,0.0,0.0,0.0,0.0,0.0,0.0,0.0,0.0,0.0,0.0,0.0,0.0,0.0,0.0,0.0,0.0,0.0,0.0,0.0,0.0,0.0,0.0,0.0,0.0,0.0,0.0,0.0,0.0,0.0,0.0,0.0,0.0,0.0,0.0,0.0,0.0,0.0,0.0,0.0,0.0,0.0,0.0,0.0,0.0,0.0,0.0,0.0,0.0,0.0,0.0,0.0,0.0,0.0,0.0,0.0,-1.5642,-1.4654,-1.3914,-1.3398,-1.2796,-1.2534,0.0,0.0,0.0,0.0,0.0,0.0,0.0,0.0,0.0,0.0,0.0,0.0,0.0,0.0,0.0,0.0,0.0,0.0,0.0,0.0,0.0,0.0,0.0,0.0,0.0,0.0,0.0,0.0,0.0,0.0,0.0,0.0,0.0,0.0,0.0,0.0,0.0,0.0,0.0,0.0,0.0,0.0,0.0,0.0,0.0,0.0,0.0,0.0,0.0,0.0,0.0,0.0,0.0,0.0,0.0,0.0,0.0,0.0,0.0,0.0,0.0,0.0,0.0,0.0,0.0,0.0,0.0,0.0,0.0,0.0,0.0,0.0,0.0,0.0,0.0,0.0,0.0,0.0,0.0,0.0,0.0,0.0,0.0,0.0,0.0,0.0,0.0,0.0,0.0,0.0,0.0,0.0,0.0,0.0,0.0,0.0,0.0,0.0,0.0,0.0,0.0,0.0,0.0,0.0,0.0,0.0,0.0,0.0,0.0,-1.5039,0.0,-1.3327,-1.303,-1.2632,-1.2388,0.0,0.0,0.0,0.0,0.0,0.0,0.0,0.0,0.0,0.0,0.0,0.0,0.0,0.0,0.0,0.0,0.0,0.0,0.0,0.0,0.0,0.0,0.0,0.0,0.0,0.0,0.0,0.0,0.0,0.0,0.0,0.0,0.0,0.0,0.0,0.0,0.0,0.0,0.0,0.0,0.0,0.0,0.0,0.0,0.0,0.0,0.0,0.0,0.0,0.0,0.0,0.0,0.0,0.0,0.0,0.0,0.0,0.0,0.0,0.0,0.0,0.0,0.0,0.0,0.0,0.0,0.0,0.0,0.0,0.0,0.0,0.0,0.0,0.0,0.0,0.0,0.0,0.0,0.0,0.0,0.0,0.0,0.0,0.0,0.0,0.0,0.0,0.0,0.0,0.0,0.0,0.0,0.0,0.0,0.0,0.0,0.0,0.0,0.0,0.0,0.0,0.0,0.0,0.0,0.0,0.0,0.0,0.0,-1.5574,-1.3909,-1.3252,-1.2958,-1.2905,-1.2886,-1.2666,0.0,0.0,0.0,0.0,0.0,0.0,0.0,0.0,0.0,0.0,0.0,0.0,0.0,0.0,0.0,0.0,0.0,0.0,0.0,0.0,0.0,0.0,0.0,0.0,0.0,0.0,0.0,0.0,0.0,0.0,0.0,0.0,0.0,0.0,0.0,0.0,0.0,0.0,0.0,0.0,0.0,0.0,0.0,0.0,0.0,0.0,0.0,0.0,0.0,0.0,0.0,0.0,0.0,0.0,0.0,0.0,0.0,0.0,0.0,0.0,0.0,0.0,0.0,0.0,0.0,0.0,0.0,0.0,0.0,0.0,0.0,0.0,0.0,0.0,0.0,0.0,0.0,0.0,0.0,0.0,0.0,0.0,0.0,0.0,0.0,0.0,0.0,0.0,0.0,0.0,0.0,0.0,0.0,0.0,0.0,0.0,0.0,0.0,0.0,0.0,0.0,0.0,0.0,0.0,0.0,0.0,0.0,0.0,0.0,-1.4433,-1.3826,-1.3324,-1.2929,-1.2915,-1.2822,0.0,0.0,0.0,0.0,0.0,0.0,0.0,0.0,0.0,0.0,0.0,0.0,0.0,0.0,0.0,0.0,0.0,0.0,0.0,0.0,0.0,0.0,0.0,0.0,0.0,0.0,0.0,0.0,0.0,0.0,0.0,0.0,0.0,0.0,0.0,0.0,0.0,0.0,0.0,0.0,0.0,0.0,0.0,0.0,0.0,0.0,0.0,0.0,0.0,0.0,0.0,0.0,0.0,0.0,0.0,0.0,0.0,0.0,0.0,0.0,0.0,0.0,0.0,0.0,0.0,0.0,0.0,0.0,0.0,0.0,0.0,0.0,0.0,0.0,0.0,0.0,0.0,0.0,0.0,0.0,0.0,0.0,0.0,0.0,0.0,0.0,0.0,0.0,0.0,0.0,0.0,0.0,0.0,0.0,0.0,0.0,0.0,0.0,0.0,0.0,0.0,0.0,0.0,0.0,0.0,0.0,0.0,0.0,0.0,-1.4568,-1.3983,-1.3494,-1.314,-1.314,-1.3037,-1.2905,0.0,0.0,0.0,0.0,0.0,0.0,0.0,0.0,0.0,0.0,0.0,0.0,0.0,0.0,0.0,0.0,0.0,0.0,0.0,0.0,0.0,0.0,0.0,0.0,0.0,0.0,0.0,0.0,0.0,0.0,0.0,0.0,0.0,0.0,0.0,0.0,0.0,0.0,0.0,0.0,0.0,0.0,0.0,0.0,0.0,0.0,0.0,0.0,0.0,0.0,0.0,0.0,0.0,0.0,0.0,0.0,0.0,0.0,0.0,0.0,0.0,0.0,0.0,0.0,0.0,0.0,0.0,0.0,0.0,0.0,0.0,0.0,0.0,0.0,0.0,0.0,0.0,0.0,0.0,0.0,0.0,0.0,0.0,0.0,0.0,0.0,0.0,0.0,0.0,0.0,0.0,0.0,0.0,0.0,0.0,0.0,0.0,0.0,0.0,0.0,0.0,0.0,0.0,0.0,0.0,0.0,0.0,0.0,-1.4407,-1.3851,-1.3564,-1.3545,-1.3516,-1.332,0.0,0.0,0.0,0.0,0.0,0.0,0.0,0.0,0.0,0.0,0.0,0.0,0.0,0.0,0.0,0.0,0.0,0.0,0.0,0.0,0.0,0.0,0.0,0.0,0.0,0.0,0.0,0.0,0.0,0.0,0.0,0.0,0.0,0.0,0.0,0.0,0.0,0.0,0.0,0.0,0.0,0.0,0.0,0.0,0.0,0.0,0.0,0.0,0.0,0.0,0.0,0.0,0.0,0.0,0.0,0.0,0.0,0.0,0.0,0.0,0.0,0.0,0.0,0.0,0.0,0.0,0.0,0.0,0.0,0.0,0.0,0.0,0.0,0.0,0.0,0.0,0.0,0.0,0.0,0.0,0.0,0.0,0.0,0.0,0.0,0.0,0.0,0.0,0.0,0.0,0.0,0.0,0.0,0.0,0.0,0.0,0.0,0.0,0.0,0.0,0.0,0.0,0.0,0.0,0.0,0.0,0.0,0.0,0.0,-1.4208,-1.4358,-1.4297,-1.3958,-1.3662,-1.3457,0.0,0.0,0.0,0.0,0.0,0.0,0.0,0.0,0.0,0.0,0.0,0.0,0.0,0.0,0.0,0.0,0.0,0.0,0.0,0.0,0.0,0.0,0.0,0.0,0.0,0.0,0.0,0.0,0.0,0.0,0.0,0.0,0.0,0.0,0.0,0.0,0.0,0.0,0.0,0.0,0.0,0.0,0.0,0.0,0.0,0.0,0.0,0.0,0.0,0.0,0.0,0.0,0.0,0.0,0.0,0.0,0.0,0.0,0.0,0.0,0.0,0.0,0.0,0.0,0.0,0.0,0.0,0.0,0.0,0.0,0.0,0.0,0.0,0.0,0.0,0.0,0.0,0.0,0.0,0.0,0.0,0.0,0.0,0.0,0.0,0.0,0.0,0.0,0.0,0.0,0.0,0.0,0.0,0.0,0.0,0.0,0.0,0.0,0.0,0.0,0.0,0.0,0.0,0.0,0.0,0.0,0.0,0.0,-1.4196,-1.4104,-1.4708,-1.4932,-1.465,-1.4055,-1.3656,0.0,0.0,0.0,0.0,0.0,0.0,0.0,0.0,0.0,0.0,0.0,0.0,0.0,0.0,0.0,0.0,0.0,0.0,0.0,0.0,0.0,0.0,0.0,0.0,0.0,0.0,0.0,0.0,0.0,0.0,0.0,0.0,0.0,0.0,0.0,0.0,0.0,0.0,0.0,0.0,0.0,0.0,0.0,0.0,0.0,0.0,0.0,0.0,0.0,0.0,0.0,0.0,0.0,0.0,0.0,0.0,0.0,0.0,0.0,0.0,0.0,0.0,0.0,0.0,0.0,0.0,0.0,0.0,0.0,0.0,0.0,0.0,0.0,0.0,0.0,0.0,0.0,0.0,0.0,0.0,0.0,0.0,0.0,0.0,0.0,0.0,0.0,0.0,0.0,0.0,0.0,0.0,0.0,0.0,0.0,0.0,0.0,0.0,0.0,0.0,0.0,0.0,0.0,0.0,0.0,0.0,0.0,0.0,-1.4124,-1.4192,-1.4962,-1.541,-1.5391,-1.4562,-1.3929,0.0,0.0,0.0,0.0,0.0,0.0,0.0,0.0,0.0,0.0,0.0,0.0,0.0,0.0,0.0,0.0,0.0,0.0,0.0,0.0,0.0,0.0,0.0,0.0,0.0,0.0,0.0,0.0,0.0,0.0,0.0,0.0,0.0,0.0,0.0,0.0,0.0,0.0,0.0,0.0,0.0,0.0,0.0,0.0,0.0,0.0,0.0,0.0,0.0,0.0,0.0,0.0,0.0,0.0,0.0,0.0,0.0,0.0,0.0,0.0,0.0,0.0,0.0,0.0,0.0,0.0,0.0,0.0,0.0,0.0,0.0,0.0,0.0,0.0,0.0,0.0,0.0,0.0,0.0,0.0,0.0,0.0,0.0,0.0,0.0,0.0,0.0,0.0,0.0,0.0,0.0,0.0,0.0,0.0,0.0,0.0,0.0,0.0,0.0,0.0,0.0,0.0,0.0,0.0,0.0,0.0,0.0,0.0,-1.428,-1.4639,-1.5146,-1.542,-1.5381,-1.4552,-1.4075,0.0,0.0,0.0,0.0,0.0,0.0,0.0,0.0,0.0,0.0,0.0,0.0,0.0,0.0,0.0,0.0,0.0,0.0,0.0,0.0,0.0,0.0,0.0,0.0,0.0,0.0,0.0,0.0,0.0,0.0,0.0,0.0,0.0,0.0,0.0,0.0,0.0,0.0,0.0,0.0,0.0,0.0,0.0,0.0,0.0,0.0,0.0,0.0,0.3704,0.0,0.0,0.0,0.0,0.0,0.0,0.0,0.0,0.0,0.0,0.0,0.0,0.0,0.0,0.0,0.0,0.0,0.0,0.0,0.0,0.0,0.0,0.0,0.0,0.0,0.0,0.0,0.0,0.0,0.0,0.0,0.0,0.0,0.0,0.0,0.0,0.0,0.0,0.0,0.0,0.0,0.0,0.0,0.0,0.0,0.0,0.0,0.0,0.0,0.0,0.0,0.0,0.0,0.0,0.0,0.0,0.0,0.0,0.0,-1.4319,-1.4775,-1.5195,-1.542,-1.5391,-1.4785,-1.4319,0.0,0.0,0.0,0.0,0.0,0.0,0.0,0.0,0.0,0.0,0.0,0.0,0.0,0.0,0.0,0.0,0.0,0.0,0.0,0.0,0.0,0.0,0.0,0.0,0.0,0.0,0.0,0.0,0.0,0.0,0.0,0.0,0.0,0.0,0.0,0.0,0.0,0.0,0.0,0.0,0.0,0.0,0.0,0.0,0.0,0.0,0.0,0.0,0.0,0.0,0.0,0.0,0.0,0.0,0.0,0.0,0.0,0.0,0.0,0.0,0.0,0.0,0.0,0.0,0.0,0.0,0.0,0.0,0.0,0.0,0.0,0.0,0.0,0.0,0.0,0.0,0.0,0.0,0.0,0.0,0.0,0.0,0.0,0.0,0.0,0.0,0.0,0.0,0.0,0.0,0.0,0.0,0.0,0.0,0.0,0.0,0.0,0.0,0.0,0.0,0.0,0.0,0.0,0.0,0.0,0.0,0.0,-1.3929,-1.4348,-1.4873,-1.5234,-1.542,-1.5381,-1.5,-1.458,-1.4097,0.0,0.0,0.0,0.0,0.0,0.0,0.0,0.0,0.0,0.0,0.0,0.0,0.0,0.0,0.0,0.0,0.0,0.0,0.0,0.0,0.0,0.0,0.0,0.0,0.0,0.0,0.0,0.0,0.0,0.0,0.0,0.0,0.0,0.0,0.0,0.0,0.0,0.0,0.3278,0.2866,0.0,0.0,0.0,0.0,0.0,0.0,0.0,0.0,0.2742,0.0,0.0,0.0,0.0,0.0,0.0,0.0,0.0,0.0,0.0,0.0,0.0,0.0,0.0,0.0,0.0,0.0,0.0,0.0,0.0,0.0,0.0,0.0,0.0,0.0,0.0,0.0,0.0,0.0,0.0,0.0,0.0,0.0,0.0,0.0,0.0,0.0,0.0,0.0,0.0,0.0,0.0,0.0,0.0,0.0,0.0,0.0,0.0,0.0,0.0,0.0,0.0,0.0,0.0,0.0,0.0,-1.3987,-1.4075,-1.4494,-1.5283,-1.5371,-1.542,-1.54,-1.5,-1.458,-1.4114,0.0,0.0,0.0,0.0,0.0,0.0,0.0,0.0,0.0,0.0,0.0,0.0,0.0,0.0,0.0,0.0,0.0,0.0,0.0,0.0,0.0,0.0,0.0,0.0,0.0,0.0,0.0,0.0,0.0,0.0,0.0,0.0,0.0,0.0,0.0,0.0,0.0,0.0,0.0,0.1999,0.1975,0.0,0.0,0.0,0.0,0.0,0.0,0.0,0.0,0.2977,0.0,0.0,0.0,0.0,0.0,0.0,0.0,0.0,0.0,0.0,0.0,0.0,0.0,0.0,0.0,0.0,0.0,0.0,0.0,0.0,0.0,0.0,0.0,0.0,0.0,0.0,0.0,0.0,0.0,0.0,0.0,0.0,0.0,0.0,0.0,0.0,0.0,0.0,0.0,0.0,0.0,0.0,0.0,0.0,0.0,0.0,0.0,0.0,0.0,0.0,0.0,0.0,0.0,0.0,0.0,-1.4085,-1.4328,-1.4775,-1.5391,-1.542,-1.542,-1.541,-1.501,-1.458,0.0,0.0,0.0,0.0,0.0,0.0,0.0,0.0,0.0,0.0,0.0,0.0,0.0,0.0,0.0,0.0,0.0,0.0,0.0,0.0,0.0,0.0,0.0,0.0,0.0,0.0,0.0,0.0,0.0,0.0,0.0,0.0,0.0,0.0,0.0,0.0,0.0,0.0,0.0,0.0,0.1478,0.1122,0.0812,0.0,0.0,0.0,0.0,0.0,0.0,0.2624,0.2406,0.0,0.0,0.0,0.0,0.0,0.0,0.0,0.0,0.0,0.0,0.0,0.0,0.0,0.0,0.0,0.0,0.0,0.0,0.0,0.0,0.0,0.0,0.0,0.0,0.0,0.0,0.0,0.0,0.0,0.0,0.0,0.0,0.0,0.0,0.0,0.0,0.0,0.0,0.0,0.0,0.0,0.0,0.0,0.0,0.0,0.0,0.0,0.0,0.0,0.0,0.0,0.0,0.0,0.0,0.0,-1.4104,-1.4561,-1.499,-1.5391,-1.542,-1.542,-1.541,-1.4912,-1.4482,0.0,0.0,0.0,0.0,0.0,0.0,0.0,0.0,0.0,0.0,0.0,0.0,0.0,0.0,0.0,0.0,0.0,0.0,0.0,0.0,0.0,0.0,0.0,0.0,0.0,0.0,0.0,0.0,0.0,0.0,0.0,0.0,0.0,0.0,0.0,0.0,0.0,0.0,0.0,0.0,0.0,0.0354,-0.0085,-0.0358,0.0,0.0,0.0,0.0,0.206,0.1643,0.0,0.0,0.0,0.0,0.0,0.0,0.0,0.0,0.0,0.0,0.0,0.0,0.0,0.0,0.0,0.0,0.0,0.0,0.0,0.0,0.0,0.0,0.0,0.0,0.0,0.0,0.0,0.0,0.0,0.0,0.0,0.0,0.0,0.0,0.0,0.0,0.0,0.0,0.0,0.0,0.0,0.0,0.0,0.0,0.0,0.0,0.0,0.0,0.0,0.0,0.0,0.0,0.0,0.0,0.0,0.0,-1.4104,-1.457,-1.5019,-1.5391,-1.542,-1.542,-1.54,-1.4601,-1.4153,0.0,0.0,0.0,0.0,0.0,0.0,0.0,0.0,0.0,0.0,0.0,0.0,0.0,0.0,0.0,0.0,0.0,0.0,0.0,0.0,0.0,0.0,0.0,0.0,0.0,0.0,0.0,0.0,0.0,0.0,0.0,0.0,0.0,0.0,0.0,0.0,0.0,0.0,0.0,0.0,0.0,0.0117,0.0662,0.0177,-0.0202,0.0,0.0,-0.0241,-0.0695,-0.034,0.0,0.0,0.0,0.0,0.0,0.0,0.0,0.0,0.0,0.0,0.0,0.0,0.0,0.0,0.0,0.0,0.0,0.0,0.0,0.0,0.0,0.0,0.0,0.0,0.0,0.0,0.0,0.0,0.0,0.0,0.0,0.0,0.0,0.0,0.0,0.0,0.0,0.0,0.0,0.0,0.0,0.0,0.0,0.0,0.0,0.0,0.0,0.0,0.0,0.0,0.0,0.0,0.0,0.0,0.0,-1.5023,-1.5036,-1.5754,-1.6156,-1.6133,-1.5908,-1.5811,-1.5811,-1.4679,-1.4114,0.0,0.0,0.0,0.0,0.0,0.0,0.0,0.0,0.0,0.0,0.0,0.0,0.0,0.0,0.0,0.0,0.0,0.0,0.0,0.0,0.0,0.0,0.0,0.0,0.0,0.0,0.0,0.0,0.0,0.0,0.0,0.0,0.0,0.0,0.0,0.0,0.0,0.0,0.0,0.0,0.0,0.0,-0.1039,-0.2274,0.0,0.0,0.0,-0.0853,0.0478,0.0,0.0,0.0,0.0,0.0,0.0,0.0,0.0,0.0,0.0,0.0,0.0,0.0,0.0,0.0,0.0,0.0,0.0,0.0,0.0,0.0,0.0,0.0,0.0,0.0,0.0,0.0,0.0,0.0,0.0,0.0,0.0,0.0,0.0,0.0,0.0,0.0,0.0,0.0,0.0,0.0,0.0,0.0,0.0,0.0,0.0,0.0,0.0,0.0,0.0,0.0,0.0,0.0,0.0,0.0,0.0,0.0,-1.5925,-1.6686,-1.6961,-1.6709,-1.6406,-1.6271,-1.6242,-1.5176,0.0,0.0,0.0,0.0,0.0,0.0,0.0,0.0,0.0,0.0,0.0,0.0,0.0,0.0,0.0,0.0,0.0,0.0,0.0,0.0,0.0,0.0,0.0,0.0,0.0,0.0,0.0,-0.2464,0.0,0.0,0.0,0.0,0.0,0.0,0.0,0.0,0.0,0.0,0.0,0.0,0.0,0.0,-0.1403,-0.2545,-0.3969,-0.4351,0.0,0.0,-0.1098,0.042,0.0063,0.0,0.0,0.0,0.0,0.0,0.0,0.0,0.0,0.0,0.0,0.0,0.0,0.0,0.0,0.0,0.0,0.0,0.0,0.0,0.0,0.0,0.0,0.0,0.0,0.0,0.0,0.0,0.0,0.0,0.0,0.0,0.0,0.0,0.0,0.0,0.0,0.0,0.0,0.0,0.0,0.0,0.0,0.0,0.0,0.0,0.0,0.0,0.0,0.0,0.0,0.0,0.0,0.0,0.0,0.0,-1.6465,-1.6472,-1.6627,-1.6762,-1.6697,-1.6668,-1.6658,-1.6648,-1.6232,-1.5762,0.0,0.0,0.0,0.0,0.0,0.0,0.0,0.0,0.0,0.0,0.0,0.0,0.0,0.0,0.0,0.0,0.0,0.0,0.0,0.0,0.0,0.0,0.0,0.0,0.0,0.0,0.0,0.0,0.0,0.0,0.0,0.0,0.0,0.0,0.0,0.0,0.0,0.0,0.0,0.0,0.0,-0.2593,-0.2688,-0.3278,-0.4002,0.0,-0.218,-0.0896,-0.3071,-0.2124,-0.0949,-0.0154,0.0,0.0,0.0,0.0,0.0,0.0,0.0,0.0,0.0,0.0,0.0,0.0,0.0,0.0,0.0,0.0,0.0,0.0,0.0,0.0,0.0,0.0,0.0,0.0,0.0,0.0,0.0,0.0,0.0,0.0,0.0,0.0,0.0,0.0,0.0,0.0,0.0,0.0,0.0,0.0,0.0,0.0,0.0,0.0,0.0,0.0,0.0,0.0,0.0,0.0,0.0,0.0,0.0,-1.7779,-1.7621,-1.8769,-1.9273,-1.9062,-1.8311,-1.7849,-1.7891,-1.6735,-1.5889,0.0,0.0,0.0,0.0,0.0,0.0,0.0,0.0,0.0,0.0,0.0,0.0,0.0,0.0,0.0,0.0,0.0,0.0,0.0,0.0,0.0,0.0,0.0,0.0,0.0,0.0,0.0,0.0,-0.3929,-0.3771,-0.3223,0.0,0.0,0.0,0.0,0.0,0.0,0.0,0.0,0.0,0.0,-0.2891,-0.342,-0.4196,0.0,0.0,-0.3782,-0.3245,-0.3032,-0.205,-0.1186,-0.0814,-0.009,0.0,0.0,0.0,0.0,0.0,0.0,0.0,0.0,0.0,0.0,0.0,0.0,0.0,0.0,0.0,0.0,0.0,0.0,0.0,0.0,0.0,0.0,0.0,0.0,0.0,0.0,0.0,0.0,0.0,0.0,0.0,0.0,0.0,0.0,0.0,0.0,0.0,0.0,0.0,0.0,0.0,0.0,0.0,0.0,0.0,0.0,0.0,0.0,0.0,0.0,0.0,0.0,-1.879,-1.8856,-1.9712,-2.0126,-2.0193,-1.9038,-1.8438,-1.8375,-1.7304,-1.6445,0.0,0.0,0.0,0.0,0.0,0.0,0.0,0.0,0.0,0.0,0.0,0.0,0.0,0.0,0.0,0.0,0.0,0.0,0.0,0.0,0.0,0.0,0.0,0.0,0.0,0.0,0.0,0.0,-0.4823,-0.4598,-0.3995,0.0,0.0,0.0,0.0,0.0,0.0,0.0,0.0,0.0,0.0,-0.4369,-0.4905,-0.5213,-0.5192,-0.4678,-0.495,-0.4693,-0.3079,-0.2129,-0.1565,-0.1529,0.0,0.0,0.0,0.0,0.0,0.0,0.0,0.0,0.0,0.0,0.0,0.0,0.0,0.0,0.0,0.0,0.0,0.0,0.0,0.0,0.0,0.0,0.0,0.0,0.0,0.0,0.0,-1.4743,0.0,0.0,-1.4811,0.0,0.0,0.0,0.0,0.0,0.0,0.0,0.0,0.0,0.0,0.0,0.0,0.0,0.0,0.0,0.0,0.0,0.0,0.0,0.0,0.0,0.0,-1.9322,-2.0099,-1.8881,-1.8576,-1.9332,-1.8486,-1.808,-1.808,-1.7969,-1.7764,-1.7314,0.0,0.0,0.0,0.0,0.0,0.0,0.0,0.0,0.0,0.0,0.0,0.0,0.0,0.0,0.0,0.0,0.0,0.0,0.0,0.0,0.0,0.0,0.0,0.0,0.0,0.0,-0.464,-0.4634,-0.4697,0.0,0.0,0.0,0.0,0.0,0.0,0.0,0.0,0.0,-0.479,-0.6418,-0.7496,-0.721,-0.6177,-0.5593,-0.5914,-0.5373,-0.4621,-0.3762,-0.2826,-0.2245,0.0,0.0,0.0,0.0,0.0,0.0,0.0,0.0,0.0,0.0,0.0,0.0,0.0,0.0,0.0,0.0,0.0,0.0,0.0,0.0,0.0,0.0,0.0,0.0,0.0,0.0,0.0,-1.7569,-1.7533,0.0,0.0,0.0,0.0,0.0,0.0,0.0,0.0,0.0,0.0,0.0,-1.9132,-2.017,0.0,0.0,0.0,0.0,0.0,0.0,0.0,0.0,0.0,0.0,0.0,0.0,-1.9467,-2.0297,-2.0522,-2.1005,-2.176,-2.0451,-1.9726,-1.9716,-1.863,-1.7812,-1.7425,0.0,0.0,0.0,0.0,0.0,0.0,0.0,0.0,0.0,0.0,0.0,0.0,0.0,0.0,0.0,0.0,0.0,0.0,0.0,0.0,0.0,0.0,0.0,0.0,0.0,-0.6279,0.0,0.0,0.0,0.0,0.0,0.0,0.0,0.0,0.0,0.0,0.0,-0.6406,-0.6472,-0.7027,-0.7375,-0.7186,-0.6801,-0.6634,0.0,0.0,0.0,0.0,0.0,0.0,0.0,0.0,0.0,0.0,0.0,0.0,0.0,0.0,0.0443,0.2251,0.2778,0.3171,0.389,0.0,0.0,0.0,0.0,0.0,0.0,0.0,0.0,0.0,0.0,0.0,0.0,0.0,0.0,-1.9171,0.0,-1.8794,0.0,0.0,0.0,0.0,0.0,0.0,0.0,0.0,-2.021,-2.0446,-2.0576,-2.1396,-2.1542,0.0,-2.1558,-2.1129,0.0,0.0,0.0,0.0,0.0,0.0,0.0,0.0,-1.9907,-2.077,-2.0934,-2.1428,-2.2113,-2.0579,-1.9694,-1.9683,-1.8596,-1.7881,-1.7607,-1.6936,-1.6427,0.0,0.0,0.0,0.0,0.0,0.0,0.0,0.0,0.0,0.0,0.0,0.0,0.0,0.0,0.0,0.0,0.0,0.0,0.0,0.0,0.0,0.0,0.0,-0.6916,0.0,0.0,0.0,0.0,0.0,0.0,0.0,0.0,0.0,-0.643,-0.7094,-0.7665,-0.7747,-0.8077,-0.8224,-0.8027,0.0,0.0,0.0,0.0,0.0,0.0,0.0,-0.5539,-0.4641,-0.4171,-0.3731,-0.3162,-0.3131,-0.2921,-0.2118,0.0,0.0,0.0659,0.1424,0.1963,0.2446,0.2536,0.2747,0.3497,0.386,0.4167,0.0,0.0,0.0,0.0,0.0,0.0,0.0,0.0,-1.9899,-1.9622,0.0,-1.9685,0.0,0.0,0.0,0.0,-2.0729,-2.1219,0.0,0.0,-2.2556,-2.2832,-2.2393,-2.2393,-2.2397,-2.2368,-2.2422,-2.2146,-2.1591,-2.0888,0.0,0.0,0.0,0.0,0.0,0.0,-2.0672,-2.1547,-2.027,-1.99,-2.0754,-1.9106,-1.8159,-1.8071,-1.8018,-1.8008,-1.7988,-1.7607,-1.7425,-1.7353,-1.6091,0.0,0.0,0.0,0.0,0.0,0.0,0.0,0.0,0.0,0.0,0.0,0.0,0.0,0.0,0.0,0.0,0.0,0.0,0.0,0.0,-0.7167,0.0,0.0,0.0,0.0,0.0,0.0,0.0,0.0,0.0,0.0,-0.7372,-0.8068,-0.8651,-0.8628,0.0,0.0,0.0,0.0,-0.9699,-0.8806,-0.8593,-0.8343,-0.7679,-0.7848,-0.774,-0.6872,0.0,0.0,-0.4603,-0.4164,-0.3805,-0.2985,-0.2827,-0.2458,-0.1559,-0.0093,0.099,0.1082,0.1115,0.1328,0.1911,0.1767,0.1547,-2.1882,0.0,0.0,0.0,0.0,-2.0778,-2.1091,-2.1566,-2.1594,-2.1518,-2.138,-2.1531,0.0,0.0,0.0,0.0,0.0,0.0,-2.192,-2.2631,-2.2957,-2.3446,-2.4104,-2.4073,-2.4073,-2.4104,-2.4073,-2.4017,-2.3835,-2.3648,-2.2662,-2.0989,0.0,0.0,0.0,0.0,-2.2025,-2.3155,-2.2606,-2.2721,-2.3559,-2.18,-2.0072,-1.8467,-1.8164,-1.8008,-1.8008,-1.7891,-1.7686,-1.7393,-1.6434,0.0,0.0,0.0,0.0,0.0,0.0,0.0,0.0,0.0,0.0,0.0,0.0,0.0,0.0,0.0,0.0,0.0,0.0,0.0,-0.9212,-0.8777,-0.8485,0.0,0.0,0.0,0.0,0.0,0.0,0.0,0.0,0.0,-0.9568,-0.9631,-0.9657,0.0,0.0,-0.9983,-0.9755,-1.0329,-1.0611,-1.0104,-1.021,0.0,-0.9323,-0.9157,-0.8787,-0.8044,-0.745,-0.689,-0.6362,-0.5731,-0.5212,-0.4924,-0.4394,-0.3878,-0.3569,-0.198,-0.0492,0.0164,0.0329,0.0361,0.0558,0.0918,0.1309,-2.3728,-2.2774,-2.2334,-2.2272,-2.2472,-2.2472,-2.2799,-2.3271,-2.3283,-2.3188,-2.3,-2.3183,-2.2874,-2.2146,-2.2146,0.0,0.0,0.0,-2.2962,-2.3772,-2.3772,-2.4136,-2.4763,-2.48,-2.48,-2.48,-2.5021,-2.4988,-2.48,-2.5001,-2.4356,-2.2862,0.0,0.0,-2.2631,-2.269,-2.3132,-2.3942,-2.3644,-2.3746,-2.423,-2.2841,-2.1259,-1.9561,-1.9253,-1.8844,-1.8262,-1.8252,-1.8032,-1.7656,-1.6968,-1.6375,0.0,0.0,0.0,0.0,0.0,0.0,0.0,0.0,0.0,0.0,0.0,-0.9484,-0.9339,0.0,0.0,0.0,-0.9927,-1.0245,-1.0713,-1.0245,0.0,0.0,0.0,0.0,0.0,0.0,0.0,-0.997,-1.0705,-1.1231,-1.1291,-1.1583,-1.1426,-1.0568,-1.0468,-1.0394,-1.0227,0.0,-1.113,-1.0945,-1.107,-1.1042,-1.0568,-1.0478,-1.0193,-0.9468,-0.8594,-0.7983,-0.7878,-0.7115,-0.6476,-0.6312,-0.5646,-0.4892,-0.4563,-0.3422,-0.2136,-0.0924,-0.0576,-0.0404,-0.0101,0.0404,0.0772,-2.4946,-2.4858,-2.381,-2.3665,-2.4054,-2.4067,-2.4343,-2.4788,-2.4788,-2.4531,-2.4104,-2.4562,-2.4211,-2.3246,-2.3233,0.0,-2.4067,-2.4054,-2.4356,-2.4883,-2.4883,-2.4888,-2.4913,-2.4958,-2.4946,-2.4938,-2.5435,-2.5423,-2.5008,-2.5435,-2.5398,-2.4883,-2.4381,-2.3853,-2.3358,-2.3835,-2.4142,-2.4205,-2.3912,-2.3699,-2.3633,-2.2787,-2.1883,-2.0878,-2.0811,-2.0133,-1.8746,-1.8656,-1.8471,-1.8091,-1.7705,-1.7471,-1.7412,0.0,0.0,0.0,0.0,0.0,0.0,0.0,0.0,0.0,0.0,0.0,0.0,0.0,0.0,-1.0714,-1.0751,0.0,-1.1853,-1.1555,0.0,0.0,0.0,-1.2817,-1.3202,-1.3278,-1.2932,-1.2065,0.0,0.0,-1.2582,-1.3525,-1.3588,-1.1588,-1.1313,-1.1246,-1.1246,-1.1559,-1.1669,-1.1773,-1.1743,-1.1688,-1.1682,-1.1733,-1.1595,-1.0948,-1.0083,-0.9372,-0.9196,-0.835,-0.766,-0.7525,-0.6618,-0.5768,-0.4921,-0.4734,-0.4039,-0.2225,-0.1653,-0.1184,-0.0408,-0.017,-0.0102,-2.6097,-2.6084,-2.582,-2.5272,-2.46,-2.4632,-2.4707,-2.4788,-2.48,-2.4725,-2.4612,-2.4738,-2.4637,-2.4387,-2.4387,-2.4494,-2.4587,-2.4587,-2.4908,-2.5398,-2.541,-2.5649,-2.6097,-2.6109,-2.6109,-2.6109,-2.6235,-2.6223,-2.6109,-2.6235,-2.6009,-2.5423,-2.5272,-2.5146,-2.5021,-2.5146,-2.5468,-2.5908,-2.5818,-2.5424,-2.4659,-2.4104,-2.3016,-2.1307,-2.0969,-2.0287,-1.9167,-1.9131,-1.9082,-1.8975,-1.8574,-1.8159,-1.7871,-1.6847,0.0,0.0,0.0,0.0,0.0,0.0,0.0,0.0,0.0,-1.0283,-1.0704,0.0,-1.1316,0.0,-1.1948,-1.2127,-1.2848,-1.1976,0.0,0.0,-1.1774,-1.176,-1.1864,-1.2117,-1.2065,-1.1599,-1.2649,-1.3328,-1.3104,-1.397,-1.4492,-1.4215,-1.3801,-1.3532,-1.3507,-1.3719,-1.3926,-1.3902,-1.4055,-1.4013,-1.3245,-1.2597,-1.2138,-1.1983,-1.1093,-1.0467,-1.0404,-0.9547,-0.8863,-0.8777,-0.7981,-0.7308,-0.6991,-0.6309,-0.5294,-0.4178,-0.3264,-0.2389,-0.1429,-0.1214,-0.0964,-2.7216,-2.7168,-2.6964,-2.6465,-2.59,-2.5661,-2.5548,-2.5548,-2.5561,-2.5548,-2.5548,-2.5548,-2.5548,-2.5548,-2.5548,-2.5548,-2.5548,-2.5548,-2.5711,-2.6009,-2.6021,-2.6185,-2.6487,-2.6487,-2.6487,-2.6487,-2.6487,-2.6487,-2.6487,-2.6487,-2.6323,-2.6021,-2.6021,-2.6009,-2.5996,-2.5498,-2.541,-2.5757,-2.5996,-2.5937,-2.5674,-2.4987,-2.3781,-2.2118,-2.1403,-2.0406,-1.905,-1.8968,-1.8916,-1.873,-1.8486,-1.8252,-1.8008,-1.7383,-1.6904,0.0,0.0,0.0,0.0,0.0,0.0,0.0,0.0,0.0,0.0,0.0,-1.2772,-1.3322,-1.3332,-1.3576,-1.422,-1.3664,-1.3441,-1.4003,-1.4044,-1.4143,-1.4289,-1.45,-1.4359,-1.3788,-1.4699,-1.5256,-1.4866,-1.5584,-1.6221,-1.641,-1.6172,-1.5617,-1.4892,-1.4811,-1.4927,-1.4935,-1.5101,-1.5046,-1.4423,-1.3543,-1.2915,-1.2842,-1.2131,-1.1471,-1.1428,-1.0645,-0.997,-0.989,-0.914,-0.8313,-0.7855,-0.7289,-0.6504,-0.5619,-0.4965,-0.3989,-0.2555,-0.1925,-0.1382,-2.8109,-2.8072,-2.7595,-2.7429,-2.7344,-2.6901,-2.6625,-2.6487,-2.6487,-2.6487,-2.6487,-2.6487,-2.6487,-2.6487,-2.6487,-2.6487,-2.6487,-2.6487,-2.6487,-2.6487,-2.6487,-2.6487,-2.6487,-2.6487,-2.6487,-2.6487,-2.6487,-2.6487,-2.6487,-2.6487,-2.6449,-2.6386,-2.6386,-2.6348,-2.6248,-2.5285,-2.4863,-2.5001,-2.5398,-2.5883,-2.6361,-2.5458,-2.4261,-2.2848,-2.1912,-2.0617,-1.8795,-1.8685,-1.8555,-1.8193,-1.8115,-1.8115,-1.8154,-1.7725,-1.749,0.0,-1.6143,0.0,0.0,0.0,0.0,0.0,0.0,0.0,0.0,-1.4189,-1.437,-1.4675,-1.4807,-1.5077,-1.559,-1.5539,-1.5913,-1.6954,-1.712,-1.7255,-1.7599,-1.7705,-1.7405,-1.6604,-1.7373,-1.7662,-1.6878,-1.7593,-1.8174,-1.8119,-1.8075,-1.7499,-1.6148,-1.5796,-1.5788,-1.5621,-1.5432,-1.5366,-1.5206,-1.434,-1.355,-1.3498,-1.2936,-1.2398,-1.2341,-1.1652,-1.1061,-1.0907,-1.0153,-0.9258,-0.8351,-0.8122,-0.7663,-0.6703,-0.6426,-0.573,-0.3832,-0.2726,-0.1944,-2.8109,-2.8084,-2.7996,-2.7959,-2.7934,-2.7846,-2.7316,-2.6487,-2.6487,-2.6487,-2.6487,-2.6487,-2.6487,-2.6487,-2.6487,-2.6487,-2.6487,-2.6487,-2.6487,-2.6487,-2.6487,-2.6487,-2.6487,-2.6487,-2.6487,-2.6487,-2.6487,-2.6487,-2.6487,-2.6487,-2.626,-2.5774,-2.5762,-2.5548,-2.5146,0.0,0.0,0.0,-2.5787,-2.5649,-2.5737,-2.5182,-2.3965,-2.225,-2.2008,0.0,-1.9288,-1.916,-1.9121,-1.9043,-1.8676,0.0,0.0,0.0,0.0,0.0,0.0,0.0,0.0,0.0,0.0,0.0,-1.6057,-1.5401,-1.4239,-1.4705,-1.5562,-1.6675,-1.6112,-1.5869,-1.6323,-1.5687,-1.5374,-1.5582,-1.5625,-1.566,-1.5737,-1.6065,-1.6137,-1.5992,-1.7115,-1.7844,-1.7779,-1.8482,-1.9023,-1.8994,-1.9043,-1.8925,-1.8526,-1.8062,-1.791,-1.7883,-1.6874,-1.6067,-1.5992,-1.4546,-1.3509,-1.3267,-1.3189,-1.2926,-1.2719,-1.2583,-1.2295,-1.2037,-1.1205,-1.0501,-1.0201,-0.9593,-0.8703,-0.7706,-0.748,-0.6877,-0.4862,-0.4239,-0.3623,-2.9643,-2.9556,-2.8834,-2.8474,0.0,-2.8222,-2.7783,-2.7304,-2.7268,-2.7316,-2.7304,-2.7304,-2.7304,-2.7316,-2.7268,-2.7268,-2.7268,-2.7304,-2.7304,-2.7316,-2.7304,-2.7268,-2.7281,-2.7281,-2.7304,-2.7316,-2.7304,-2.7304,-2.7304,-2.7304,-2.713,-2.6841,-2.6829,-2.6703,-2.6452,-2.6452,-2.6314,-2.6072,-2.5737,-2.5737,-2.5988,-2.4798,-2.3618,-2.2463,-2.1489,0.0,0.0,0.0,0.0,0.0,0.0,0.0,0.0,-1.8877,0.0,-1.8936,-1.852,-1.8199,-1.8029,-1.74,-1.7292,-1.7967,-1.7584,-1.7069,-1.6349,-1.6905,-1.7577,-1.8256,-1.7875,-1.7661,-1.7903,-1.7494,-1.7243,-1.7243,-1.7243,-1.7234,-1.7225,-1.7415,-1.7533,-1.7551,-1.8137,-1.8618,-1.8609,-1.8985,-1.9277,-1.9277,-1.9277,-1.9297,-1.9268,-1.9102,-1.8958,-1.8937,-1.836,-1.752,-1.691,-1.5741,-1.4428,-1.4038,-1.3516,-1.3186,-1.2999,-1.2979,-1.2965,-1.2741,-1.2318,-1.1844,-1.1281,-1.066,-0.9804,-0.8405,-0.7885,-0.7326,-0.578,-0.5079,-0.4453,-3.097,-3.0818,-2.9593,-2.9051,-2.9038,-2.8599,-2.8411,-2.8386,0.0,0.0,0.0,-2.8109,-2.8109,-2.8109,-2.8109,-2.8109,-2.8109,-2.8109,-2.8109,-2.8109,-2.8109,-2.8109,-2.8109,-2.8109,-2.8109,-2.8109,-2.8109,-2.8109,-2.8109,-2.8109,-2.8109,-2.8109,-2.8109,-2.8109,-2.8109,-2.8109,-2.7431,-2.6101,-2.585,-2.6009,-2.6427,-2.4507,-2.321,-2.2756,-2.0985,-1.9777,-1.9307,-1.9277,-1.9277,-1.9277,-1.9277,-1.9316,-1.9394,-1.9404,-1.9434,-1.9492,-1.918,-1.9141,-1.9482,-1.8468,-1.8302,-1.9455,-1.8835,-1.8434,-1.8504,-1.8819,-1.9141,-1.9277,-1.9277,-1.9277,-1.9277,-1.9277,-1.9277,-1.9277,-1.9277,-1.9268,-1.9277,-1.9365,-1.9321,-1.9404,-1.9446,-1.9521,-1.9514,-1.9551,-1.9512,-1.9521,-1.958,-1.9549,-1.9539,-1.949,-1.9441,-1.9504,-1.9193,-1.8793,-1.804,-1.7013,-1.6079,-1.5271,-1.4324,-1.3659,-1.3572,-1.3406,-1.3267,-1.3173,-1.3206,-1.2817,-1.2163,-1.1754,-1.0913,-0.9172,-0.8456,-0.7876,-0.6876,-0.5794,-0.499,-3.0011,-2.9998,-2.9768,-2.9666,-2.9654,-2.9591,-2.9553,-2.9465,-2.8524,-2.8109,-2.8109,-2.8109,-2.8109,-2.8109,-2.8109,-2.8109,-2.8109,-2.8109,-2.8109,-2.8109,-2.8109,-2.8109,-2.8109,-2.8109,-2.8109,-2.8109,-2.8122,-2.8109,-2.8109,-2.8122,-2.8109,-2.8122,-2.8109,-2.8122,-2.8109,-2.8109,-2.7984,-2.7745,-2.6816,-2.6411,-2.644,-2.4432,-2.2947,-2.2124,-2.1108,-2.0124,-1.9323,-1.9297,-1.9277,-1.9277,-1.9277,-1.9453,-1.9805,-1.9824,-1.999,-2.039,-2.0361,-2.0361,-2.0419,-2.0245,-2.0207,-2.0371,-2.0304,-1.9612,-1.8156,-1.8045,-1.8424,-1.9178,-1.9326,-1.9277,-1.9277,-1.9316,-1.9336,-1.9316,-1.9297,-1.9287,-1.9336,-1.9629,-1.9824,-1.9824,-2.0166,-2.039,-2.0351,-2.0361,-2.0351,-2.04,-2.0282,-2.038,-2.0282,-2.0066,-2.0007,-2.0197,-1.9592,-1.9027,-1.8544,-1.7857,-1.6951,-1.6944,-1.5843,-1.4972,-1.4867,-1.4135,-1.3548,-1.3273,-1.3273,-1.3174,-1.2968,-1.2942,-1.2297,-1.1158,-1.0248,-0.9292,-0.8197,-0.6987,-0.5921,-3.1806,-3.0958,-3.0454,-3.0055,-2.9779,-2.9779,-2.9779,-2.9741,-2.9252,-2.9013,-2.9026,-2.9026,-2.9026,-2.9026,-2.9026,-2.9026,-2.9026,-2.9026,-2.9026,-2.9013,-2.9026,-2.9026,-2.9013,-2.9026,-2.9026,-2.9026,-2.9026,-2.9013,-2.9026,-2.9026,-2.9013,-2.9013,-2.9026,-2.9013,-2.9026,-2.9013,-2.9026,-2.9001,-2.7921,-2.7379,-2.7344,-2.5875,-2.4873,-2.4502,-2.2805,-2.1647,-2.1281,-2.0438,-2.0018,-2.0018,-2.0028,-2.0106,-2.0254,-2.0273,-2.0352,-2.0595,-2.0615,-2.0615,-2.0615,-2.0615,-2.0615,-2.0615,-2.0615,-2.0285,-1.943,-1.9354,-1.9554,-1.9943,-1.998,-2.0018,-2.0018,-2.0018,-2.0018,-2.0018,-2.0018,-2.0018,-2.0038,-2.0127,-2.0302,-2.0283,-2.0478,-2.0605,-2.0615,-2.0615,-2.0615,-2.0615,-2.0615,-2.0615,-2.0615,-2.04,-2.036,-2.0479,-1.9713,-1.8798,-1.8198,-1.7172,-1.6519,-1.6437,-1.5545,-1.5121,-1.5256,-1.4599,-1.3939,-1.3721,-1.3681,-1.3687,-1.3674,-1.3547,-1.3016,-1.2148,-1.1451,-1.0369,-0.8833,-0.7442,-0.6233,-3.3018,-3.1798,-3.1077,-3.0545,-3.0156,-3.0156,-3.0093,-2.9993,-2.998,-2.9905,-2.9792,-2.9779,-2.9779,-2.9779,-2.9779,-2.9779,-2.9779,-2.9779,-2.9779,-2.9779,-2.9779,-2.9779,-2.9779,-2.9779,-2.9779,-2.9779,-2.9779,-2.9779,-2.9779,-2.9779,-2.9779,-2.9779,-2.9779,-2.9779,-2.9779,-2.9779,-2.9779,-2.9729,-2.8938,-2.8423,-2.8248,-2.7173,-2.6627,-2.6441,-2.4255,-2.3055,-2.2945,-2.1547,-2.0752,-2.0752,-2.0664,-2.0615,-2.0615,-2.0615,-2.0615,-2.0615,-2.0615,-2.0615,-2.0615,-2.0615,-2.0615,-2.0615,-2.0615,-2.0605,-2.0615,-2.0615,-2.0615,-2.0615,-2.0576,-2.0586,-2.0566,-2.0586,-2.0605,-2.0605,-2.0615,-2.0566,-2.0595,-2.0615,-2.0615,-2.0615,-2.0615,-2.0615,-2.0615,-2.0615,-2.0615,-2.0615,-2.0615,-2.0615,-2.0615,-2.0615,-2.0615,-2.045,-1.9901,-1.9228,-1.8109,-1.7285,-1.6715,-1.6437,-1.5379,-1.5123,-1.5309,-1.481,-1.4159,-1.4041,-1.4055,-1.4035,-1.4048,-1.3908,-1.3424,-1.2758,-1.217,-1.1105,-0.8945,-0.7579,-0.6503,-3.1633,-3.1473,-3.1364,-3.1286,-3.1198,-3.121,-3.0947,-3.057,-3.0545,-3.0256,-2.9867,-2.9792,-2.9804,-2.9779,-2.9779,-2.9779,-2.9779,-2.9779,-2.9779,-2.9779,-2.9779,-2.9779,-2.9779,-2.9779,-2.9779,-2.9779,-2.9779,-2.9779,-2.9779,-2.9779,-2.9779,-2.9779,-2.9779,-2.9779,-2.9779,-2.9779,-2.9779,-2.9779,-2.9691,-2.9377,-2.8775,-2.7355,-2.6627,-2.6552,-2.4536,-2.3429,-2.3459,-2.197,-2.1132,-2.1103,-2.084,-2.0625,-2.0625,-2.0615,-2.0615,-2.0615,-2.0615,-2.0615,-2.0615,-2.0615,-2.0615,-2.0615,-2.0615,-2.0615,-2.0615,-2.0615,-2.0615,-2.0615,-2.0615,-2.0615,-2.0615,-2.0615,-2.0615,-2.0615,-2.0615,-2.0615,-2.0615,-2.0615,-2.0615,-2.0615,-2.0615,-2.0615,-2.0615,-2.0615,-2.0615,-2.0615,-2.0615,-2.0615,-2.0615,-2.0615,-2.0615,-2.0615,-2.0459,-2.0333,-1.9913,-1.9362,-1.843,-1.827,-1.6879,-1.5944,-1.5662,-1.5019,-1.4088,-1.413,-1.4088,-1.4088,-1.4088,-1.4048,-1.3993,-1.3591,-1.2764,-1.153,-0.9259,-0.7828,-0.6954,-3.2762,-3.1876,-3.1876,-3.1687,-3.1411,-3.1386,-3.1273,-3.1085,-3.1072,-3.0947,-3.0758,-3.0733,-3.0382,-2.9792,-2.9779,-2.9779,-2.9779,-2.9779,-2.9779,-2.9779,-2.9779,-2.9779,-2.9779,-2.9779,-2.9779,-2.9779,-2.9779,-2.9779,-2.9779,-2.9779,-2.9779,-2.9779,-2.9779,-2.9779,-2.9779,-2.9779,-2.9495,-2.8806,-2.8779,-2.8657,-2.84,-2.7807,-2.7481,-2.7262,-2.5165,-2.4217,-2.4588,-2.2778,-2.1621,-2.1611,-2.1435,-2.123,-2.0977,-2.0957,-2.084,-2.0644,-2.0615,-2.0615,-2.0615,-2.0615,-2.0615,-2.0615,-2.0615,-2.0615,-2.0615,-2.0615,-2.0615,-2.0615,-2.0615,-2.0615,-2.0615,-2.0615,-2.0615,-2.0615,-2.0615,-2.0615,-2.0615,-2.0615,-2.0615,-2.0615,-2.0615,-2.0615,-2.0615,-2.0615,-2.0615,-2.0615,-2.0615,-2.0615,-2.0615,-2.0615,-2.0615,-2.0615,-2.0615,-2.0284,-1.9795,-1.8718,-1.8439,-1.855,-1.7698,-1.6683,-1.6396,-1.5745,-1.4894,-1.425,-1.413,-1.4088,-1.4088,-1.4088,-1.4088,-1.3864,-1.3112,-1.177,-1.0142,-0.8901,-0.7962,-3.354,-3.252,-3.2441,-3.2215,-3.1905,-3.1851,-3.175,-3.1625,-3.1612,-3.1537,-3.1386,-3.1386,-3.0972,-3.0281,-3.0093,-2.9942,-2.9804,-2.9779,-2.9779,-2.9779,-2.9779,-2.9779,-2.9779,-2.9779,-2.9779,-2.9779,-2.9779,-2.9779,-2.9779,-2.9779,-2.9779,-2.9779,-2.9779,-2.9779,-2.9779,-2.9779,-2.9404,-2.8648,-2.8295,-2.7964,-2.7683,-2.7348,-2.747,-2.7808,-2.5653,-2.475,-2.5384,-2.332,-2.206,-2.206,-2.1953,-2.1738,-2.1395,-2.1375,-2.126,-2.1016,-2.0967,-2.0967,-2.0967,-2.0967,-2.0967,-2.0928,-2.0967,-2.0967,-2.0967,-2.0967,-2.0967,-2.0987,-2.0967,-2.0938,-2.0625,-2.0615,-2.0615,-2.0615,-2.0615,-2.0615,-2.0615,-2.0615,-2.0615,-2.0615,-2.0615,-2.0615,-2.0615,-2.0615,-2.0615,-2.0615,-2.0615,-2.0615,-2.0615,-2.0615,-2.0615,-2.0615,-2.0615,-2.0323,-1.952,-1.8669,-1.835,-1.823,-1.7819,-1.669,-1.6772,-1.591,-1.5179,-1.4166,-1.413,-1.4088,-1.4088,-1.4088,-1.4088,-1.387,-1.316,-1.2023,-1.0666,-0.9657,-0.8488,-3.3154,-3.3074,-3.3086,-3.3023,-3.3023,-3.2986,-3.2654,-3.219,-3.2177,-3.1901,-3.1499,-3.1449,-3.1373,-3.126,-3.0821,-3.0306,-2.9867,-2.9842,-2.9842,-2.9829,-2.9804,-2.9779,-2.9779,-2.9779,-2.9779,-2.9779,-2.9779,-2.9779,-2.9779,-2.9779,-2.9779,-2.9779,-2.9779,-2.9779,-2.9779,-2.9779,-2.9753,-2.9404,-2.8478,-2.7602,-2.6595,-2.5546,-2.5983,-2.7498,-2.5909,-2.4724,-2.4693,-2.3358,-2.249,-2.249,-2.2148,-2.1904,-2.1855,-2.1846,-2.1807,-2.1787,-2.1797,-2.1797,-2.1777,-2.1789,-2.1799,-2.1787,-2.176,-2.1797,-2.1699,-2.174,-2.1699,-2.1838,-2.1709,-2.1466,-2.084,-2.0772,-2.0723,-2.0713,-2.0664,-2.0683,-2.0654,-2.0742,-2.0625,-2.0674,-2.0732,-2.0762,-2.0683,-2.0615,-2.0703,-2.0713,-2.0664,-2.0693,-2.0742,-2.0693,-2.0664,-2.0713,-2.0703,-2.0586,-2.043,-1.9362,-1.8877,-1.851,-1.7374,-1.5951,-1.5462,-1.4977,-1.4538,-1.4173,-1.413,-1.4088,-1.4088,-1.4088,-1.4088,-1.3822,-1.3252,-1.2206,-1.1252,-0.9836,-0.8711,-3.3124,-3.3124,-3.3124,-3.3124,-3.3124,-3.3124,-3.2943,-3.2767,-3.2767,-3.2654,-3.2491,-3.2466,-3.2265,-3.1901,-3.1725,-3.1336,-3.0809,-3.0482,-3.0319,-3.0269,-2.9955,-2.9779,-2.9779,-2.9779,-2.9779,-2.9779,-2.9779,-2.9779,-2.9779,-2.9779,-2.9779,-2.9779,-2.9779,-2.9779,-2.9779,-2.9779,-2.9456,-2.8676,-2.7654,-2.6883,-2.64,-2.4681,-2.4457,-2.5775,-2.45,-2.4049,-2.4798,-2.3553,-2.2867,-2.2877,-2.2711,-2.2559,-2.2295,-2.2031,-2.1936,-2.1936,-2.1936,-2.1936,-2.1936,-2.1936,-2.1936,-2.1936,-2.1936,-2.1914,-2.1936,-2.1936,-2.1936,-2.1904,-2.1936,-2.173,-2.1533,-2.1406,-2.1406,-2.1447,-2.1447,-2.1377,-2.1416,-2.1456,-2.1406,-2.1406,-2.1406,-2.1406,-2.1388,-2.1447,-2.1447,-2.1416,-2.1406,-2.1427,-2.1396,-2.1286,-2.1138,-2.1337,-2.1246,-2.1196,-2.1406,-1.9968,-1.8838,-1.8029,-1.7098,-1.6427,-1.5865,-1.546,-1.5028,-1.4323,-1.4175,-1.4108,-1.4122,-1.4088,-1.4088,-1.3997,-1.3379,-1.2814,-1.1943,-1.0697,-0.9575,-3.3124,-3.3124,-3.3124,-3.3124,-3.3124,-3.3124,-3.3124,-3.3124,-3.3124,-3.3124,-3.3124,-3.3124,-3.2855,-3.2541,-3.2491,-3.2303,-3.1876,-3.121,-3.0859,-3.0834,-3.0482,-3.0231,-3.008,-3.0055,-2.9955,-2.9817,-2.9779,-2.9779,-2.9779,-2.9779,-2.9779,-2.9779,-2.9779,-2.9779,-2.9779,-2.9779,-2.9378,-2.8569,-2.7574,-2.6883,-2.6348,-2.4638,-2.38,-2.4049,-2.3517,-2.343,-2.4211,-2.3507,-2.3101,-2.3101,-2.3101,-2.2964,-2.2682,-2.2451,-2.2285,-2.2295,-2.2305,-2.2295,-2.2295,-2.2285,-2.2295,-2.2295,-2.2295,-2.2295,-2.2295,-2.2285,-2.2295,-2.2295,-2.2295,-2.2295,-2.2285,-2.2285,-2.2187,-2.1973,-2.1936,-2.1936,-2.1936,-2.1916,-2.1906,-2.1877,-2.1826,-2.1906,-2.1936,-2.1916,-2.1855,-2.1936,-2.1936,-2.1936,-2.1885,-2.1722,-2.161,-2.1875,-2.1938,-2.1642,-2.1285,-2.0049,-1.9457,-1.8774,-1.7189,-1.6617,-1.611,-1.5755,-1.5304,-1.4615,-1.4282,-1.4195,-1.4142,-1.4108,-1.4102,-1.4115,-1.3864,-1.3385,-1.2553,-1.1724,-1.0476,-3.3124,-3.3124,-3.3124,-3.3124,-3.3124,-3.3124,-3.3124,-3.3124,-3.3124,-3.3124,-3.3124,-3.3124,-3.3099,-3.3074,-3.298,-3.3048,-3.2754,-3.1913,-3.1461,-3.1386,-3.1311,-3.1022,-3.0633,-3.062,-3.0382,-2.998,-2.9854,-2.9867,-2.993,-2.9905,-2.9828,-2.9778,-2.9765,-2.9702,-2.974,-2.9624,-2.9663,-2.9275,-2.8319,-2.7452,-2.6513,-2.5294,-2.4253,-2.3464,-2.3178,-2.3135,-2.3222,-2.3144,-2.3101,-2.3101,-2.3101,-2.3101,-2.3052,-2.3003,-2.3042,-2.2994,-2.3033,-2.3062,-2.3042,-2.3003,-2.2955,-2.2955,-2.3042,-2.2955,-2.2925,-2.2964,-2.2964,-2.2945,-2.2964,-2.3013,-2.2994,-2.2974,-2.2754,-2.209,-2.2041,-2.2041,-2.1992,-2.1943,-2.1965,-2.1982,-2.2021,-2.1934,-2.1924,-2.2031,-2.208,-2.207,-2.2051,-2.207,-2.21,-2.2048,-2.1963,-2.1951,-2.1849,-2.1443,-2.0809,-2.0171,-2.0054,-1.9655,-1.7776,-1.6532,-1.6002,-1.561,-1.529,-1.4733,-1.4589,-1.4502,-1.4445,-1.4412,-1.4358,-1.4302,-1.4081,-1.3907,-1.3212,-1.2342,-1.1095,-3.3124,-3.3124,-3.3124,-3.3124,-3.3124,-3.3124,-3.3124,-3.3124,-3.3124,-3.3124,-3.3124,-3.3124,-3.3124,-3.3124,-3.3124,-3.3124,-3.3086,-3.2679,-3.234,-3.1951,-3.1587,-3.1336,-3.1173,-3.1148,-3.1072,-3.0909,-3.0884,-3.0884,-3.0768,-3.048,-3.0015,-2.9398,-2.9603,-2.9339,-2.8661,-2.8648,-2.8636,-2.8478,-2.7533,-2.6801,-2.6431,-2.5378,-2.4617,-2.4253,-2.3551,-2.3101,-2.3101,-2.3101,-2.3101,-2.3101,-2.3101,-2.3101,-2.3101,-2.3101,-2.3101,-2.3101,-2.3101,-2.3101,-2.3101,-2.3101,-2.3101,-2.3101,-2.3101,-2.3101,-2.3101,-2.3101,-2.3101,-2.3101,-2.3101,-2.3101,-2.3101,-2.3101,-2.2955,-2.273,-2.2754,-2.2695,-2.2666,-2.2652,-2.2701,-2.2754,-2.2701,-2.2744,-2.2691,-2.2672,-2.259,-2.2643,-2.2643,-2.26,-2.2672,-2.2613,-2.2294,-2.1764,-2.1404,-2.0978,-2.0603,-2.0079,-1.9694,-1.9336,-1.7892,-1.6505,-1.5939,-1.5611,-1.5244,-1.5035,-1.4883,-1.4783,-1.4727,-1.4666,-1.462,-1.4599,-1.4492,-1.4202,-1.3801,-1.2947,-1.1897,-3.3124,-3.3124,-3.3124,-3.3124,-3.3124,-3.3124,-3.3124,-3.3124,-3.3124,-3.3124,-3.3124,-3.3124,-3.3124,-3.3124,-3.3124,-3.3124,-3.3124,-3.3124,-3.288,-3.2541,-3.2215,-3.1913,-3.1605,-3.0956,-3.0745,-3.0733,-3.0733,-3.0745,-3.0721,-3.0384,-2.9873,-2.9313,-2.909,-2.8595,-2.7825,-2.772,-2.765,-2.7406,-2.6883,-2.6307,-2.5839,-2.5168,-2.4575,-2.4135,-2.3474,-2.3135,-2.3101,-2.3101,-2.3101,-2.3101,-2.3101,-2.3101,-2.3101,-2.3101,-2.3101,-2.3101,-2.3101,-2.3101,-2.3101,-2.3101,-2.3101,-2.3101,-2.3101,-2.3101,-2.3101,-2.3101,-2.3101,-2.3101,-2.3101,-2.3101,-2.3101,-2.3101,-2.3101,-2.3091,-2.3062,-2.3101,-2.3101,-2.3101,-2.3081,-2.3052,-2.3062,-2.3101,-2.3091,-2.258,-2.2721,-2.2916,-2.2687,-2.2731,-2.2916,-2.3071,-2.2359,-2.1087,-1.9354,-1.9493,-2.0345,-1.9991,-1.9372,-1.8718,-1.7864,-1.6726,-1.5918,-1.5688,-1.5404,-1.5251,-1.513,-1.5003,-1.4948,-1.4921,-1.4888,-1.4888,-1.485,-1.4617,-1.4342,-1.4107,-1.3141,-3.3124,-3.3124,-3.3124,-3.3124,-3.3124,-3.3124,-3.3124,-3.3124,-3.3124,-3.3124,-3.3124,-3.3124,-3.3124,-3.3124,-3.3124,-3.3124,-3.3124,-3.3124,-3.3111,-3.3061,-3.296,-3.2679,-3.2126,-3.099,-3.0399,-3.0018,-2.9952,-2.9789,-2.9799,-2.9603,-2.9489,-2.9083,-2.8259,-2.7498,-2.713,-2.7064,-2.6874,-2.6638,-2.644,-2.5853,-2.5041,-2.484,-2.4372,-2.342,-2.3222,-2.3101,-2.3101,-2.3101,-2.3101,-2.3101,-2.3101,-2.3101,-2.3101,-2.3101,-2.3101,-2.3101,-2.3101,-2.3101,-2.3101,-2.3101,-2.3101,-2.3101,-2.3101,-2.3101,-2.3101,-2.3101,-2.3101,-2.3101,-2.3101,-2.3101,-2.3101,-2.3101,-2.3101,-2.3101,-2.3101,-2.3101,-2.3101,-2.3101,-2.3101,-2.3101,-2.3101,-2.3101,-2.3091,-2.2262,-2.2262,-2.235,-2.2041,-2.2094,-2.252,-2.2652,-2.2378,-2.0651,-1.8319,-1.8128,-1.9026,-1.9268,-1.8688,-1.8364,-1.7697,-1.6896,-1.6012,-1.5738,-1.5658,-1.5504,-1.5371,-1.5244,-1.5197,-1.5249,-1.5229,-1.5177,-1.513,-1.5075,-1.4809,-1.4462,-1.3531,-3.3124,-3.3124,-3.3124,-3.3124,-3.3124,-3.3124,-3.3124,-3.3124,-3.3124,-3.3124,-3.3124,-3.3124,-3.3124,-3.3124,-3.3124,-3.3124,-3.3124,-3.3124,-3.3124,-3.3124,-3.3124,-3.3061,-3.2867,-3.2381,-3.1558,-3.0759,-3.0437,-3.0311,-2.9476,-2.9034,-2.8488,-2.7662,-2.7701,-2.7195,-2.6492,-2.636,-2.6317,-2.6147,-2.585,-2.5582,-2.527,-2.488,-2.4702,-2.4382,-2.356,-2.3135,-2.3101,-2.3101,-2.3101,-2.3101,-2.3101,-2.3101,-2.3101,-2.3101,-2.3101,-2.3101,-2.3101,-2.3101,-2.3101,-2.3101,-2.3101,-2.3101,-2.3101,-2.3101,-2.3101,-2.3101,-2.3101,-2.3101,-2.3101,-2.3101,-2.3101,-2.3101,-2.3101,-2.3101,-2.3047,-2.3003,-2.3003,-2.3101,-2.3101,-2.3101,-2.3047,-2.3101,-2.3003,-2.2731,-2.2315,-2.1987,-2.1578,-2.14,-2.1961,-2.2637,-2.256,-2.0093,-1.807,-1.7606,-1.7604,-1.7995,-1.8056,-1.7917,-1.75,-1.7073,-1.6277,-1.5812,-1.5772,-1.5718,-1.5638,-1.5518,-1.5591,-1.5638,-1.5591,-1.5471,-1.5398,-1.5297,-1.4832,-1.4429,-1.319,-3.3124,-3.3124,-3.3124,-3.3124,-3.3124,-3.3124,-3.3124,-3.3124,-3.3124,-3.3124,-3.3124,-3.3124,-3.3124,-3.3124,-3.3124,-3.3124,-3.3124,-3.3124,-3.3124,-3.3124,-3.3124,-3.3111,-3.2871,-3.2239,-3.1146,-3.0451,-2.9954,-2.9304,-2.8661,-2.8294,-2.7782,-2.7323,-2.6942,-2.6458,-2.5732,-2.5676,-2.5584,-2.5346,-2.5127,-2.496,-2.4974,-2.4601,-2.4408,-2.4239,-2.3515,-2.3101,-2.3101,-2.3101,-2.3101,-2.3101,-2.3101,-2.3101,-2.3101,-2.3101,-2.3101,-2.3101,-2.3101,-2.3101,-2.3101,-2.3101,-2.3101,-2.3101,-2.3101,-2.3101,-2.3101,-2.3101,-2.3101,-2.3101,-2.3101,-2.3101,-2.3101,-2.3101,-2.3101,-2.3047,-2.2668,-2.2359,-2.235,-2.2775,-2.2765,-2.2633,-2.2775,-2.3101,-2.3091,-2.2731,-2.2359,-2.1943,-2.1123,-2.1078,-2.132,-2.2167,-2.2169,-1.9679,-1.8285,-1.7942,-1.7457,-1.76,-1.7311,-1.7178,-1.7037,-1.6662,-1.6339,-1.5825,-1.5818,-1.5812,-1.5825,-1.5825,-1.5825,-1.5825,-1.5772,-1.5665,-1.5618,-1.5478,-1.5153,-1.4399,-1.3095,-3.3124,-3.3124,-3.3124,-3.3124,-3.3124,-3.3124,-3.3124,-3.3124,-3.3124,-3.3124,-3.3124,-3.3124,-3.3124,-3.3124,-3.3124,-3.3124,-3.3124,-3.3124,-3.3124,-3.3038,-3.2896,-3.2698,-3.2513,-3.1368,-3.0271,-2.959,-2.8272,-2.7814,-2.7521,-2.7369,-2.7389,-2.6995,-2.6214,-2.5642,-2.5395,-2.5269,-2.4969,-2.4837,-2.4736,-2.4657,-2.4588,-2.4299,-2.4127,-2.4013,-2.359,-2.3247,-2.3198,-2.3149,-2.3101,-2.3101,-2.3101,-2.3101,-2.3101,-2.3101,-2.3101,-2.3101,-2.3101,-2.3101,-2.3101,-2.3101,-2.3101,-2.3101,-2.3101,-2.3101,-2.3101,-2.3101,-2.3101,-2.3101,-2.3101,-2.3101,-2.3101,-2.3101,-2.3101,-2.3003,-2.2164,-2.1614,-2.148,-2.2173,-2.2359,-2.1702,-2.2492,-2.2818,-2.2818,-2.2315,-2.1854,-2.1845,-2.0989,-2.0395,-2.026,-2.0317,-2.0278,-1.9301,-1.8533,-1.8349,-1.7779,-1.735,-1.6756,-1.6339,-1.6292,-1.6109,-1.6103,-1.5825,-1.5825,-1.5825,-1.5825,-1.5825,-1.5825,-1.5825,-1.5825,-1.5812,-1.5725,-1.5765,-1.5636,-1.4527,-1.336,-3.3124,-3.3124,-3.3124,-3.3124,-3.3124,-3.3124,-3.3124,-3.3124,-3.3124,-3.3124,-3.3124,-3.3124,-3.3124,-3.3124,-3.3124,-3.3124,-3.2982,-3.2939,-3.3124,-3.2982,-3.2008,-3.1633,-3.1777,-3.1601,-3.1057,-2.9738,-2.9131,-2.7992,-2.6658,-2.6245,-2.6149,-2.61,-2.5955,-2.5635,-2.5586,-2.5527,-2.5508,-2.5352,-2.5117,-2.4932,-2.4853,-2.4512,-2.4268,-2.4219,-2.3867,-2.3672,-2.3564,-2.332,-2.311,-2.3101,-2.312,-2.3149,-2.3101,-2.3101,-2.3101,-2.3101,-2.3101,-2.3101,-2.3101,-2.3101,-2.3101,-2.3101,-2.3101,-2.3101,-2.3101,-2.3101,-2.3101,-2.3101,-2.3101,-2.3101,-2.3101,-2.3101,-2.3101,-2.3003,-2.2721,-2.2217,-2.148,-2.0755,-2.1168,-2.1987,-2.1933,-2.2022,-2.2862,-2.2633,-2.2173,-2.1702,-2.08,-1.9852,-1.9306,-1.8894,-1.8526,-1.8288,-1.8195,-1.7856,-1.7475,-1.6943,-1.6426,-1.6008,-1.5872,-1.5825,-1.5825,-1.5825,-1.5825,-1.5825,-1.5825,-1.5825,-1.5825,-1.5825,-1.5825,-1.5825,-1.5825,-1.5825,-1.5534,-1.4561,-1.353,-3.3847,-3.3822,-3.3571,-3.3458,-3.342,-3.3237,-3.3124,-3.3124,-3.3124,-3.3124,-3.3124,-3.3124,-3.3124,-3.3124,-3.3081,-3.284,-3.214,-3.1601,-3.1689,-3.1733,-3.0956,-3.0395,-3.0406,-3.0822,-3.0328,-2.868,-2.7851,-2.6791,-2.6014,-2.5684,-2.5781,-2.5684,-2.5684,-2.5674,-2.5684,-2.5684,-2.5664,-2.5635,-2.5527,-2.5381,-2.5312,-2.4961,-2.458,-2.4443,-2.4199,-2.4082,-2.4053,-2.3887,-2.376,-2.3647,-2.351,-2.3296,-2.312,-2.3101,-2.3101,-2.3101,-2.3101,-2.3101,-2.3101,-2.3101,-2.3101,-2.312,-2.3101,-2.3101,-2.3101,-2.3101,-2.3101,-2.3101,-2.3101,-2.3101,-2.3101,-2.3101,-2.3101,-2.296,-2.2599,-2.2217,-2.1952,-2.1078,-2.0404,-2.1221,-2.0755,-2.08,-2.1168,-2.1676,-2.1898,-2.1114,-2.0395,-1.9443,-1.8891,-1.8433,-1.7695,-1.7424,-1.7439,-1.7267,-1.6929,-1.6527,-1.6103,-1.5872,-1.5825,-1.5825,-1.5825,-1.5825,-1.5825,-1.5825,-1.5825,-1.5825,-1.5825,-1.5825,-1.5825,-1.5825,-1.5825,-1.5825,-1.5486,-1.4704,-1.3542,-3.468,-3.4688,-3.4211,-3.4022,-3.3947,-3.3602,-3.3332,-3.3275,-3.3206,-3.3237,-3.3025,-3.2939,-3.2612,-3.2711,-3.2426,-3.1821,-3.0956,-3.0181,-3.0259,-3.0676,-2.967,-2.9223,-2.9131,-2.8855,-2.8355,-2.7268,-2.6849,-2.6149,-2.583,-2.5684,-2.5684,-2.5684,-2.5684,-2.5684,-2.5684,-2.5684,-2.5684,-2.5674,-2.5645,-2.5664,-2.5596,-2.5332,-2.5019,-2.4805,-2.457,-2.4521,-2.4492,-2.4394,-2.4355,-2.4404,-2.4072,-2.3721,-2.3383,-2.312,-2.3101,-2.3101,-2.3101,-2.3159,-2.3301,-2.3247,-2.3257,-2.3257,-2.3325,-2.3325,-2.3344,-2.3403,-2.3422,-2.3383,-2.3403,-2.3403,-2.3305,-2.3403,-2.3374,-2.3202,-2.238,-2.2351,-2.2726,-2.2119,-2.0839,-2.026,-2.0124,-2.0079,-1.9951,-2.0133,-2.0449,-2.0539,-1.9786,-1.9131,-1.8586,-1.7864,-1.7105,-1.6652,-1.6666,-1.6673,-1.6426,-1.6339,-1.5872,-1.5825,-1.5825,-1.5825,-1.5825,-1.5825,-1.5825,-1.5825,-1.5825,-1.5825,-1.5825,-1.5825,-1.5825,-1.5825,-1.5825,-1.5825,-1.5384,-1.4848,-1.3638,-3.468,-3.4668,-3.4625,-3.4587,-3.4575,-3.4462,-3.4148,-3.3796,-3.3759,-3.3495,-3.3032,-3.2021,-3.1681,-3.1368,-3.0406,-2.9909,-2.9818,-2.9315,-2.9315,-2.9453,-2.8495,-2.7908,-2.7767,-2.7115,-2.6428,-2.638,-2.6476,-2.6524,-2.5868,-2.5684,-2.5684,-2.5684,-2.5684,-2.5684,-2.5684,-2.5684,-2.5684,-2.5684,-2.5684,-2.5684,-2.5645,-2.5577,-2.5527,-2.5304,-2.5107,-2.498,-2.4873,-2.4629,-2.4424,-2.4414,-2.4355,-2.4268,-2.4053,-2.352,-2.3237,-2.3208,-2.3227,-2.3364,-2.3623,-2.3682,-2.3877,-2.4102,-2.4075,-2.4095,-2.415,-2.4095,-2.3942,-2.39,-2.3919,-2.4059,-2.4153,-2.3789,-2.4059,-2.4023,-2.3873,-2.3782,-2.3599,-2.2492,-2.1157,-2.0928,-2.0252,-1.9266,-1.9039,-1.8948,-1.9336,-1.9537,-1.9119,-1.8637,-1.8225,-1.7347,-1.6447,-1.6157,-1.5961,-1.5961,-1.592,-1.5967,-1.5825,-1.5825,-1.5825,-1.5825,-1.5825,-1.5825,-1.5825,-1.5825,-1.5825,-1.5825,-1.5825,-1.5825,-1.5825,-1.5825,-1.5825,-1.5825,-1.5534,-1.514,-1.398,-3.5567,-3.5542,-3.5265,-3.5107,-3.5056,-3.4839,-3.4587,-3.4361,-3.4324,-3.4022,-3.3301,-3.2277,-3.1472,-3.097,-2.9943,-2.9396,-2.9131,-2.7898,-2.7945,-2.7992,-2.7258,-2.661,-2.6658,-2.5917,-2.5781,-2.5868,-2.6294,-2.638,-2.5732,-2.5684,-2.5684,-2.5684,-2.5684,-2.5684,-2.5684,-2.5684,-2.5684,-2.5684,-2.5684,-2.5684,-2.5684,-2.5684,-2.5684,-2.5615,-2.5508,-2.543,-2.5371,-2.5254,-2.5107,-2.5078,-2.4883,-2.4775,-2.457,-2.4238,-2.3799,-2.3799,-2.3734,-2.3812,-2.4072,-2.4111,-2.4219,-2.4355,-2.4443,-2.4424,-2.4424,-2.4339,-2.4175,-2.3635,-2.3327,-2.3074,-2.2315,-2.3017,-2.3317,-2.3504,-2.3914,-2.4361,-2.4146,-2.314,-2.2518,-2.1692,-1.9715,-1.8459,-1.786,-1.7963,-1.8344,-1.8417,-1.8298,-1.8065,-1.7811,-1.7227,-1.6368,-1.6041,-1.5945,-1.5939,-1.5952,-1.5972,-1.5919,-1.5892,-1.5872,-1.5865,-1.5825,-1.5825,-1.5825,-1.5825,-1.5825,-1.5825,-1.5825,-1.5825,-1.5825,-1.5825,-1.5825,-1.5825,-1.5825,-1.5337,-1.4274,-3.6417,-3.6367,-3.5893,-3.5658,-3.5596,-3.5253,-3.5002,-3.4856,-3.4545,-3.4099,-3.3493,-3.2059,-3.0997,-3.0319,-2.9325,-2.8541,-2.8448,-2.6476,-2.6524,-2.6849,-2.6332,-2.5781,-2.5732,-2.5684,-2.5684,-2.5732,-2.5781,-2.5684,-2.5684,-2.5684,-2.5684,-2.5684,-2.5684,-2.5684,-2.5684,-2.5684,-2.5684,-2.5684,-2.5684,-2.5684,-2.5684,-2.5684,-2.5684,-2.5684,-2.5684,-2.5654,-2.5625,-2.5586,-2.5577,-2.5547,-2.5391,-2.5205,-2.5146,-2.4873,-2.4687,-2.4648,-2.4521,-2.4463,-2.4541,-2.4551,-2.4619,-2.4814,-2.4727,-2.4707,-2.4736,-2.474,-2.4381,-2.3295,-2.279,-2.2577,-2.2083,-2.1908,-2.2254,-2.2607,-2.3436,-2.4266,-2.4192,-2.3795,-2.3433,-2.1865,-1.9224,-1.8179,-1.8112,-1.7196,-1.7561,-1.7701,-1.7589,-1.7616,-1.7378,-1.746,-1.6884,-1.6346,-1.6092,-1.6086,-1.6112,-1.6179,-1.6119,-1.6039,-1.6005,-1.5985,-1.5899,-1.5825,-1.5832,-1.5852,-1.5825,-1.5825,-1.5825,-1.5825,-1.5825,-1.5825,-1.5825,-1.5825,-1.5825,-1.5581,-1.4854,-3.6417,-3.6405,-3.6342,-3.6317,-3.6279,-3.6191,-3.5868,-3.5281,-3.4275,-3.3326,-3.2848,-3.0463,-2.9182,-2.8417,-2.7061,-2.6334,-2.613,-2.6062,-2.583,-2.61,-2.582,-2.5684,-2.5684,-2.5684,-2.5684,-2.5684,-2.5684,-2.5684,-2.5684,-2.5684,-2.5684,-2.5684,-2.5684,-2.5684,-2.5684,-2.5684,-2.5684,-2.5684,-2.5684,-2.5684,-2.5684,-2.5684,-2.5684,-2.5684,-2.5684,-2.5684,-2.5684,-2.5684,-2.5684,-2.5674,-2.5635,-2.5596,-2.5606,-2.5586,-2.5538,-2.5304,-2.498,-2.458,-2.4922,-2.5,-2.5117,-2.5332,-2.5411,-2.5499,-2.5391,-2.5382,-2.5285,-2.5392,-2.4159,-2.3036,-2.2292,-2.212,-2.1954,-2.2094,-2.276,-2.3452,-2.3693,-2.3408,-2.3201,-2.2944,-2.0582,-1.9591,-1.911,-1.7796,-1.6794,-1.685,-1.695,-1.6993,-1.7018,-1.7161,-1.7147,-1.6603,-1.6324,-1.6324,-1.6319,-1.638,-1.6346,-1.6239,-1.6206,-1.6152,-1.6092,-1.6025,-1.5885,-1.5885,-1.5865,-1.5832,-1.5825,-1.5825,-1.5825,-1.5825,-1.5825,-1.5825,-1.5825,-1.5534,-1.5242,-3.6417,-3.6417,-3.6417,-3.6417,-3.6417,-3.6417,-3.6279,-3.5796,-3.4618,-3.3684,-3.2721,-3.0455,-2.87,-2.7522,-2.6428,-2.6163,-2.6055,-2.582,-2.5693,-2.5693,-2.5693,-2.5684,-2.5684,-2.5684,-2.5684,-2.5684,-2.5684,-2.5684,-2.5684,-2.5684,-2.5684,-2.5684,-2.5684,-2.5684,-2.5684,-2.5684,-2.5684,-2.5684,-2.5684,-2.5684,-2.5684,-2.5684,-2.5684,-2.5684,-2.5684,-2.5684,-2.5684,-2.5684,-2.5684,-2.5684,-2.5684,-2.5684,-2.5684,-2.5674,-2.5674,-2.5645,-2.542,-2.5293,-2.542,-2.543,-2.5499,-2.5596,-2.5684,-2.5645,-2.5684,-2.5684,-2.5274,-2.455,-2.3326,-2.2466,-2.176,-2.0896,-2.0641,-2.0939,-2.1954,-2.2257,-2.2567,-2.2558,-2.2381,-2.2231,-2.203,-2.0879,-1.988,-1.8932,-1.7853,-1.7422,-1.7364,-1.7241,-1.7089,-1.6939,-1.6896,-1.6697,-1.6617,-1.6607,-1.6577,-1.6607,-1.66,-1.6526,-1.652,-1.6466,-1.638,-1.6279,-1.6146,-1.5999,-1.5945,-1.5905,-1.5865,-1.5825,-1.5825,-1.5825,-1.5825,-1.5825,-1.5825,-1.5778,-1.5146,-3.5918,-3.5918,-3.5918,-3.5918,-3.587,-3.5559,-3.5295,-3.5186,-3.3836,-3.3024,-3.2184,-3.0184,-2.8339,-2.7334,-2.6808,-2.6543,-2.6523,-2.6103,-2.5888,-2.583,-2.5742,-2.5684,-2.5684,-2.5684,-2.5684,-2.5684,-2.5684,-2.5684,-2.5684,-2.5684,-2.5684,-2.5684,-2.5684,-2.5684,-2.5684,-2.5684,-2.5684,-2.5684,-2.5684,-2.5684,-2.5684,-2.5684,-2.5684,-2.5684,-2.5684,-2.5684,-2.5684,-2.5684,-2.5684,-2.5684,-2.5684,-2.5684,-2.5684,-2.5684,-2.5684,-2.5674,-2.5557,-2.5577,-2.5615,-2.5625,-2.5528,-2.5323,-2.5128,-2.4864,-2.4559,-2.502,-2.5167,-2.3989,-2.3176,-2.1963,-2.0896,-2.0641,-2.0187,-2.0538,-2.099,-2.1143,-2.1347,-2.1499,-2.1803,-2.1946,-2.1794,-2.1397,-2.0507,-1.9956,-1.9169,-1.8321,-1.7889,-1.7566,-1.7324,-1.7039,-1.7029,-1.7007,-1.7041,-1.7036,-1.699,-1.6961,-1.6901,-1.6827,-1.682,-1.6734,-1.6627,-1.6533,-1.6413,-1.6266,-1.6139,-1.6179,-1.6253,-1.6032,-1.5825,-1.5825,-1.5825,-1.5825,-1.5825,-1.5778,-1.4854,-3.4532,-3.4532,-3.4483,-3.4483,-3.4434,-3.3093,-3.2632,-3.2833,-3.1378,-3.0751,-3.0407,-2.8825,-2.7947,-2.7562,-2.7207,-2.6973,-2.6953,-2.6533,-2.6387,-2.6211,-2.5927,-2.583,-2.5801,-2.5771,-2.5713,-2.5684,-2.5684,-2.5684,-2.5684,-2.5684,-2.5684,-2.5684,-2.5684,-2.5684,-2.5684,-2.5684,-2.5684,-2.5684,-2.5684,-2.5684,-2.5684,-2.5684,-2.5684,-2.5684,-2.5684,-2.5684,-2.5684,-2.5684,-2.5684,-2.5684,-2.5684,-2.5684,-2.5684,-2.5684,-2.5684,-2.5684,-2.5684,-2.5684,-2.5684,-2.5635,-2.502,-2.4304,-2.3732,-2.3434,-2.2868,-2.4559,-2.4707,-2.3583,-2.2717,-2.2726,-2.2366,-2.2265,-2.0546,-2.0238,-2.0385,-2.0487,-2.0641,-2.0743,-2.1041,-2.1541,-2.1389,-2.0837,-2.0531,-1.9878,-1.922,-1.8349,-1.7891,-1.7574,-1.7581,-1.736,-1.7427,-1.7435,-1.7462,-1.7482,-1.7495,-1.7408,-1.7248,-1.7154,-1.7121,-1.6981,-1.6827,-1.674,-1.668,-1.662,-1.6526,-1.658,-1.656,-1.6306,-1.6072,-1.5899,-1.5778,-1.5683,-1.5629,-1.5581,-1.4268,-3.3105,-3.3044,-3.2252,-3.2353,-3.3105,-3.2532,-3.228,-3.209,-3.0876,-2.9817,-2.9049,-2.838,-2.8057,-2.793,-2.7627,-2.7412,-2.7353,-2.6973,-2.6826,-2.6748,-2.6592,-2.6387,-2.626,-2.6094,-2.6016,-2.5781,-2.5713,-2.5684,-2.5684,-2.5693,-2.5684,-2.5684,-2.5684,-2.5684,-2.5684,-2.5684,-2.5684,-2.5684,-2.5684,-2.5684,-2.5684,-2.5684,-2.5684,-2.5684,-2.5684,-2.5684,-2.5684,-2.5684,-2.5684,-2.5684,-2.5684,-2.5684,-2.5684,-2.5684,-2.5684,-2.5684,-2.5684,-2.5684,-2.5635,-2.5577,-2.5079,-2.384,-2.3018,-2.2206,-2.155,-2.2818,-2.3026,-2.2366,-2.1853,-2.176,-2.11,-2.07,-2.004,-1.9886,-1.9886,-1.9981,-1.9834,-1.9878,-1.9723,-1.987,-2.0128,-2.0084,-1.9878,-1.9627,-1.9013,-1.8356,-1.7943,-1.7589,-1.7589,-1.7589,-1.7589,-1.7589,-1.7589,-1.7589,-1.7589,-1.7562,-1.7535,-1.7462,-1.7434,-1.7261,-1.7101,-1.7079,-1.7025,-1.6978,-1.686,-1.68,-1.6693,-1.652,-1.6339,-1.6172,-1.578,-1.5439,-1.5432,-1.5389,-1.3719,-3.1724,-3.1531,-3.0266,-3.0473,-3.1582,-3.1276,-3.1122,-3.0927,-3.012,-2.925,-2.8291,-2.8301,-2.8301,-2.8203,-2.8018,-2.7851,-2.7734,-2.7441,-2.7266,-2.7139,-2.7021,-2.6846,-2.666,-2.6533,-2.6445,-2.6133,-2.5957,-2.5957,-2.5967,-2.5762,-2.5693,-2.5684,-2.5684,-2.5684,-2.5684,-2.5684,-2.5684,-2.5684,-2.5684,-2.5684,-2.5684,-2.5684,-2.5684,-2.5684,-2.5684,-2.5684,-2.5684,-2.5684,-2.5684,-2.5684,-2.5684,-2.5684,-2.5684,-2.5684,-2.5684,-2.5684,-2.5684,-2.5635,-2.5577,-2.4716,-2.4362,-2.3633,-2.1904,-2.1296,-2.1143,-2.1347,-2.1853,-2.1092,-2.0487,-2.0135,-2.0084,-2.0538,-2.0187,-2.0033,-1.9731,-1.9679,-1.8916,-1.861,-1.8304,-1.8146,-1.8506,-1.902,-1.8916,-1.876,-1.8558,-1.8048,-1.7845,-1.7589,-1.7589,-1.7589,-1.7589,-1.7589,-1.7589,-1.7589,-1.7582,-1.7569,-1.7555,-1.7549,-1.7495,-1.7522,-1.7474,-1.7373,-1.732,-1.7306,-1.7161,-1.7007,-1.6927,-1.6881,-1.668,-1.6446,-1.6126,-1.578,-1.4949,-1.4715,-1.3276,-3.0359,-3.0172,-2.8953,-2.9154,-3.0172,-2.8953,-2.8548,-2.8804,-2.8601,-2.8441,-2.8291,-2.8301,-2.8301,-2.8281,-2.8193,-2.8174,-2.8115,-2.7875,-2.7708,-2.7588,-2.7393,-2.7119,-2.7021,-2.6982,-2.6904,-2.6875,-2.6611,-2.6377,-2.6367,-2.6123,-2.5879,-2.5723,-2.5732,-2.5684,-2.5684,-2.5684,-2.5684,-2.5684,-2.5684,-2.5684,-2.5684,-2.5684,-2.5684,-2.5684,-2.5684,-2.5684,-2.5684,-2.5684,-2.5684,-2.5684,-2.5684,-2.5684,-2.5684,-2.5479,-2.543,-2.543,-2.5372,-2.543,-2.543,-2.3185,-2.2617,-2.2976,-2.1296,-2.0033,-1.9981,-2.0487,-2.0786,-1.9775,-2.0179,-2.0888,-2.1296,-2.1347,-2.0436,-2.0033,-1.9731,-1.942,-1.8708,-1.7891,-1.7687,-1.7589,-1.7589,-1.7687,-1.774,-1.774,-1.7793,-1.7687,-1.7641,-1.7589,-1.7589,-1.7589,-1.7589,-1.7589,-1.7589,-1.7589,-1.7589,-1.7589,-1.7582,-1.7589,-1.7589,-1.7589,-1.7589,-1.7554,-1.7541,-1.7581,-1.7448,-1.7288,-1.7295,-1.7373,-1.7081,-1.6854,-1.6673,-1.6205,-1.5193,-1.41,-1.28,-2.8953,-2.8953,-2.8495,-2.8548,-2.89,-2.8495,-2.8301,-2.8301,-2.8301,-2.8301,-2.8301,-2.8301,-2.8301,-2.8301,-2.8301,-2.8301,-2.8252,-2.8232,-2.8086,-2.8047,-2.7851,-2.7685,-2.7549,-2.7422,-2.7314,-2.7051,-2.6836,-2.6807,-2.6797,-2.6543,-2.6367,-2.6211,-2.5908,-2.5693,-2.5684,-2.5684,-2.5684,-2.5684,-2.5684,-2.5684,-2.5684,-2.5684,-2.5684,-2.5684,-2.5684,-2.5684,-2.5684,-2.5684,-2.5684,-2.5684,-2.5684,-2.5684,-2.5479,-2.5177,-2.4461,-2.4146,-2.384,-2.3076,-2.2667,-2.1448,-2.1092,-2.1245,-2.0743,-1.9117,-1.8662,-1.8655,-1.8603,-1.8551,-1.8961,-1.9317,-1.8857,-1.9775,-1.9627,-1.9723,-1.9576,-1.9576,-1.9013,-1.8101,-1.7589,-1.7589,-1.7589,-1.7589,-1.7589,-1.7589,-1.7589,-1.7589,-1.7589,-1.7589,-1.7589,-1.7589,-1.7589,-1.7589,-1.7589,-1.7589,-1.7589,-1.7589,-1.7589,-1.7589,-1.7589,-1.7589,-1.7589,-1.7589,-1.7582,-1.7562,-1.7575,-1.7575,-1.7515,-1.7455,-1.7435,-1.7281,-1.6836,-1.5713,-1.4174,-1.3408,-1.2812,-2.8301,-2.8301,-2.8301,-2.8301,-2.8301,-2.8301,-2.8301,-2.8301,-2.8301,-2.8301,-2.8301,-2.8301,-2.8301,-2.8301,-2.8301,-2.8301,-2.8301,-2.8291,-2.8291,-2.8301,-2.8281,-2.8086,-2.7939,-2.7914,-2.7773,-2.7461,-2.7285,-2.7236,-2.7226,-2.708,-2.6855,-2.6582,-2.6309,-2.6172,-2.6035,-2.583,-2.5684,-2.5684,-2.5684,-2.5684,-2.5684,-2.5684,-2.5684,-2.5684,-2.5684,-2.5684,-2.5684,-2.5684,-2.5684,-2.5684,-2.5684,-2.5684,-2.5274,-2.4559,-2.3791,-2.3335,-2.2567,-2.1904,-2.155,-2.1245,-2.099,-2.0743,-1.9672,-1.8864,-1.8146,-1.8199,-1.7891,-1.774,-1.7589,-1.7635,-1.7891,-1.8864,-1.8916,-1.9013,-1.8961,-1.8916,-1.8708,-1.7793,-1.7589,-1.7589,-1.7589,-1.7589,-1.7589,-1.7589,-1.7589,-1.7589,-1.7589,-1.7589,-1.7589,-1.7589,-1.7589,-1.7589,-1.7589,-1.7589,-1.7589,-1.7589,-1.7589,-1.7589,-1.7589,-1.7589,-1.7589,-1.7589,-1.7589,-1.7589,-1.7589,-1.7589,-1.7589,-1.7555,-1.7456,-1.7128,-1.6619,-1.5139,-1.32,-1.2539,-1.2248,-2.8301,-2.8301,-2.8301,-2.8301,-2.8301,-2.8301,-2.8301,-2.8301,-2.8301,-2.8301,-2.8301,-2.8301,-2.8301,-2.8301,-2.8301,-2.8301,-2.8301,-2.8301,-2.8301,-2.8301,-2.8301,-2.8232,-2.8242,-2.8213,-2.8115,-2.8057,-2.791,-2.7676,-2.7699,-2.7334,-2.7109,-2.7021,-2.6865,-2.665,-2.6367,-2.6162,-2.5869,-2.5752,-2.5684,-2.5684,-2.5684,-2.5684,-2.5684,-2.5684,-2.5684,-2.5684,-2.5684,-2.5684,-2.5684,-2.5684,-2.5684,-2.5635,-2.5177,-2.4295,-2.389,-2.3026,-2.1803,-2.1347,-2.099,-2.0641,-2.0333,-1.9568,-1.8499,-1.8558,-1.8558,-1.8048,-1.774,-1.7589,-1.7589,-1.7589,-1.7793,-1.7845,-1.7898,-1.7891,-1.7891,-1.7845,-1.7845,-1.7589,-1.7589,-1.7589,-1.7589,-1.7589,-1.7589,-1.7589,-1.7589,-1.7589,-1.7589,-1.7589,-1.7589,-1.7589,-1.7589,-1.7589,-1.7589,-1.7589,-1.7589,-1.7589,-1.7589,-1.7589,-1.7589,-1.7589,-1.7589,-1.7589,-1.7589,-1.7589,-1.7589,-1.7477,-1.7041,-1.7094,-1.7351,-1.6852,-1.5664,-1.4953,-1.3143,-1.1921,-1.1285,-2.8301,-2.8301,-2.8301,-2.8301,-2.8301,-2.8301,-2.8301,-2.8301,-2.8301,-2.8301,-2.8301,-2.8301,-2.8301,-2.8301,-2.8301,-2.8301,-2.8301,-2.8301,-2.8301,-2.8301,-2.8301,-2.8301,-2.8301,-2.8301,-2.8301,-2.8262,-2.8164,-2.8047,-2.7998,-2.7666,-2.748,-2.7461,-2.7256,-2.7021,-2.6855,-2.6699,-2.6239,-2.5888,-2.5791,-2.5752,-2.5723,-2.5713,-2.5703,-2.5684,-2.5684,-2.5684,-2.5684,-2.5586,-2.5586,-2.5586,-2.5635,-2.5382,-2.4196,-2.2968,-2.1853,-1.9524,-1.8909,-1.876,-1.8812,-1.8812,-1.875,-1.8576,-1.7879,-1.7786,-1.7943,-1.7905,-1.7602,-1.7589,-1.7589,-1.7589,-1.7589,-1.7589,-1.7589,-1.7589,-1.7589,-1.7589,-1.7589,-1.7589,-1.7589,-1.7589,-1.7589,-1.7589,-1.7589,-1.7589,-1.7589,-1.7589,-1.7589,-1.7589,-1.7589,-1.7589,-1.7589,-1.7589,-1.7589,-1.7589,-1.7589,-1.7589,-1.7589,-1.7589,-1.7589,-1.7589,-1.7589,-1.7589,-1.7589,-1.7589,-1.7589,-1.6935,-1.6062,-1.6333,-1.6823,-1.515,-1.3976,-1.3729,-1.3156,-1.1755,-1.0566,-2.8301,-2.8301,-2.8301,-2.8301,-2.8301,-2.8301,-2.8301,-2.8301,-2.8301,-2.8301,-2.8301,-2.8301,-2.8301,-2.8301,-2.8301,-2.8301,-2.8301,-2.8301,-2.8301,-2.8301,-2.8301,-2.8301,-2.8301,-2.8301,-2.8301,-2.8301,-2.8301,-2.8242,-2.8223,-2.8105,-2.791,-2.7891,-2.7588,-2.7432,-2.7314,-2.7197,-2.6885,-2.6445,-2.6143,-2.6025,-2.5957,-2.581,-2.5703,-2.5703,-2.5703,-2.5703,-2.5528,-2.5382,-2.4971,-2.4716,-2.4609,-2.3791,-2.2717,-2.16,-2.0128,-1.822,-1.7994,-1.8028,-1.8129,-1.8137,-1.7976,-1.7896,-1.7822,-1.7782,-1.7769,-1.7742,-1.7635,-1.7589,-1.7589,-1.7589,-1.7589,-1.7589,-1.7589,-1.7589,-1.7589,-1.7589,-1.7589,-1.7589,-1.7589,-1.7589,-1.7589,-1.7589,-1.7589,-1.7589,-1.7589,-1.7589,-1.7589,-1.7589,-1.7589,-1.7589,-1.7589,-1.7589,-1.7589,-1.7589,-1.7589,-1.7589,-1.7589,-1.7589,-1.7589,-1.7589,-1.7589,-1.7589,-1.7589,-1.7589,-1.7589,-1.6717,-1.5689,-1.5902,-1.5962,-1.4126,-1.267,-1.2403,-1.1914,-1.0836,-0.986,-2.8301,-2.8301,-2.8301,-2.8301,-2.8301,-2.8301,-2.8301,-2.8301,-2.8301,-2.8301,-2.8301,-2.8301,-2.8301,-2.8301,-2.8301,-2.8301,-2.8301,-2.8301,-2.8301,-2.8301,-2.8301,-2.8301,-2.8301,-2.8301,-2.8301,-2.8301,-2.8301,-2.8301,-2.8301,-2.8213,-2.8184,-2.8281,-2.8213,-2.8008,-2.7744,-2.7715,-2.748,-2.7187,-2.6787,-2.6553,-2.6357,-2.6103,-2.582,-2.582,-2.5771,-2.5654,-2.5245,-2.4569,-2.3642,-2.3176,-2.2669,-2.203,-2.132,-2.0371,-1.8924,-1.8347,-1.803,-1.8043,-1.8116,-1.823,-1.835,-1.8323,-1.8189,-1.8123,-1.8016,-1.7736,-1.7615,-1.7589,-1.7589,-1.7589,-1.7589,-1.7589,-1.7589,-1.7589,-1.7589,-1.7589,-1.7589,-1.7589,-1.7589,-1.7589,-1.7589,-1.7589,-1.7589,-1.7589,-1.7589,-1.7589,-1.7589,-1.7589,-1.7589,-1.7589,-1.7589,-1.7589,-1.7589,-1.7589,-1.7589,-1.7589,-1.7589,-1.7589,-1.7589,-1.7589,-1.7589,-1.7589,-1.7589,-1.7589,-1.7529,-1.6446,-1.5636,-1.5689,-1.4936,-1.2783,-1.1592,-1.1214,-1.0566,-0.986,-0.9482,-2.8301,-2.8301,-2.8301,-2.8301,-2.8301,-2.8301,-2.8301,-2.8301,-2.8301,-2.8301,-2.8301,-2.8301,-2.8301,-2.8301,-2.8301,-2.8301,-2.8301,-2.8301,-2.8301,-2.8301,-2.8301,-2.8301,-2.8301,-2.8301,-2.8301,-2.8301,-2.8301,-2.8301,-2.8301,-2.8301,-2.8301,-2.8291,-2.8301,-2.8184,-2.8096,-2.8076,-2.7969,-2.7793,-2.751,-2.7148,-2.6914,-2.6787,-2.6611,-2.6367,-2.6181,-2.5443,-2.4833,-2.4003,-2.3053,-2.2274,-2.2213,-2.1615,-2.0826,-1.9466,-1.8741,-1.8393,-1.831,-1.837,-1.8417,-1.8504,-1.8584,-1.8544,-1.8444,-1.841,-1.823,-1.7822,-1.7622,-1.7622,-1.7622,-1.7635,-1.7615,-1.7615,-1.7595,-1.7595,-1.7589,-1.7589,-1.7589,-1.7589,-1.7589,-1.7589,-1.7589,-1.7589,-1.7589,-1.7589,-1.7589,-1.7589,-1.7589,-1.7589,-1.7589,-1.7589,-1.7589,-1.7589,-1.7589,-1.7589,-1.7589,-1.7589,-1.7589,-1.7589,-1.7589,-1.7589,-1.7589,-1.7589,-1.7589,-1.7589,-1.7371,-1.6121,-1.5257,-1.5097,-1.3965,-1.1651,-1.0785,-1.0457,-0.997,-0.9265,-0.9099,-2.8301,-2.8301,-2.8301,-2.8301,-2.8301,-2.8301,-2.8301,-2.8301,-2.8301,-2.8301,-2.8301,-2.8301,-2.8301,-2.8301,-2.8301,-2.8301,-2.8301,-2.8301,-2.8301,-2.8301,-2.8301,-2.8301,-2.8301,-2.8301,-2.8301,-2.8301,-2.8301,-2.8301,-2.8301,-2.8301,-2.8301,-2.8301,-2.8301,-2.8301,-2.8301,-2.8301,-2.8301,-2.8262,-2.8018,-2.7793,-2.7461,-2.7246,-2.6982,-2.6699,-2.64,-2.5632,-2.4554,-2.3646,-2.2396,-2.133,-2.0696,-2.0214,-1.9576,-1.8968,-1.8574,-1.851,-1.8571,-1.8684,-1.8711,-1.8764,-1.8824,-1.8818,-1.8704,-1.8691,-1.8631,-1.8283,-1.8103,-1.8096,-1.8096,-1.8103,-1.7903,-1.7849,-1.7702,-1.7642,-1.7609,-1.7589,-1.7589,-1.7589,-1.7589,-1.7589,-1.7589,-1.7589,-1.7589,-1.7589,-1.7589,-1.7589,-1.7589,-1.7589,-1.7589,-1.7589,-1.7589,-1.7589,-1.7589,-1.7589,-1.7589,-1.7589,-1.7589,-1.7589,-1.7589,-1.7589,-1.7589,-1.7589,-1.7589,-1.7529,-1.6935,-1.5476,-1.4829,-1.4234,-1.2561,-1.0186,-0.9805,-0.9805,-0.9261,-0.8937,-0.8937,-2.8301,-2.8301,-2.8301,-2.8301,-2.8301,-2.8301,-2.8301,-2.8301,-2.8301,-2.8301,-2.8301,-2.8301,-2.8301,-2.8301,-2.8301,-2.8301,-2.8301,-2.8301,-2.8301,-2.8301,-2.8301,-2.8301,-2.8301,-2.8301,-2.8301,-2.8301,-2.8301,-2.8301,-2.8301,-2.8301,-2.8301,-2.8301,-2.8301,-2.8301,-2.8301,-2.8301,-2.8301,-2.8301,-2.8213,-2.8252,-2.7949,-2.7588,-2.7305,-2.7158,-2.6926,-2.62,-2.4734,-2.3368,-2.1924,-2.0575,-1.9456,-1.9265,-1.9062,-1.885,-1.8823,-1.8771,-1.8891,-1.8965,-1.9018,-1.9145,-1.9296,-1.9316,-1.9078,-1.8965,-1.8898,-1.8798,-1.8624,-1.8557,-1.8557,-1.8397,-1.8196,-1.807,-1.7909,-1.7776,-1.7736,-1.7622,-1.7615,-1.7602,-1.7595,-1.7595,-1.7589,-1.7589,-1.7589,-1.7589,-1.7589,-1.7589,-1.7589,-1.7589,-1.7589,-1.7589,-1.7589,-1.7589,-1.7589,-1.7589,-1.7589,-1.7589,-1.7589,-1.7589,-1.7589,-1.7589,-1.7589,-1.7589,-1.7529,-1.7364,-1.6552,-1.515,-1.3696,-1.2783,-1.0836,-0.9154,-0.921,-0.9372,-0.921,-0.8937,-0.8937,-2.8301,-2.8301,-2.8301,-2.8301,-2.8301,-2.8301,-2.8301,-2.8301,-2.8301,-2.8301,-2.8301,-2.8301,-2.8301,-2.8301,-2.8301,-2.8301,-2.8301,-2.8301,-2.8301,-2.8301,-2.8301,-2.8301,-2.8301,-2.8301,-2.8301,-2.8301,-2.8301,-2.8301,-2.8301,-2.8301,-2.8301,-2.8301,-2.8301,-2.8301,-2.8301,-2.8237,-2.8067,-2.796,-2.7843,-2.7736,-2.796,-2.7806,-2.7871,-2.7705,-2.7539,-2.5635,-2.3911,-2.2917,-2.1156,-1.9678,-1.8935,-1.8975,-1.9032,-1.9142,-1.9142,-1.9058,-1.9178,-1.9199,-1.933,-1.937,-1.9424,-1.9417,-1.9219,-1.9225,-1.9192,-1.9192,-1.9058,-1.9062,-1.8911,-1.8611,-1.8424,-1.841,-1.8297,-1.819,-1.8123,-1.7856,-1.7709,-1.7669,-1.7635,-1.7609,-1.7589,-1.7589,-1.7589,-1.7589,-1.7589,-1.7589,-1.7589,-1.7589,-1.7589,-1.7589,-1.7589,-1.7589,-1.7589,-1.7589,-1.7589,-1.7589,-1.7589,-1.7589,-1.7589,-1.7589,-1.7589,-1.7589,-1.7529,-1.7417,-1.628,-1.4829,-1.3426,-1.1919,-1.0566,-0.9265,-0.9047,-0.8992,-0.8937,-0.8937,-0.8937]},{"header":{"parameterUnit":"m.s-1","parameterCategory":1,"la1":31.0,"la2":29.5877,"lo1":-88.7671,"lo2":-86.6584,"dy":0.0162,"dx":0.0185,"nx":115,"ny":88,"refTime":"2023-10-24T00:00:00:Z","depth":0,"parameterNumber":3,"parameterNumberName":"V-component_of_WINDS"},"data":[0.0,0.0,0.0,0.0,0.0,0.0,0.0,0.0,0.0,0.0,0.0,0.0,0.0,0.0,0.0,0.0,0.0,0.0,0.0,0.0,0.0,0.0,0.0,0.0,0.0,0.0,0.0,0.0,0.0,0.0,0.0,0.0,0.0,0.0,0.0,0.0,0.0,0.0,0.0,0.0,0.0,0.0,0.0,0.0,0.0,0.0,0.0,0.0,0.0,0.0,0.0,0.0,0.0,0.0,0.0,0.0,0.0,0.0,0.0,0.0,0.0,0.0,0.0,0.0,0.0,0.0,0.0,0.0,0.0,0.0,0.0,0.0,0.0,0.0,0.0,0.0,0.0,0.0,0.0,0.0,0.0,0.0,0.0,0.0,0.0,0.0,0.0,0.0,0.0,0.0,0.0,0.0,0.0,0.0,0.0,0.0,0.0,0.0,0.0,0.0,0.0,0.0,0.0,0.0,0.0,0.0,0.0,0.0,0.0,0.0,0.0,0.0,0.0,0.0,0.0,0.0,0.0,0.0,0.0,0.0,0.0,0.0,0.0,0.0,0.0,0.0,0.0,0.0,0.0,0.0,0.0,0.0,0.0,0.0,0.0,0.0,0.0,0.0,0.0,0.0,0.0,0.0,0.0,0.0,0.0,0.0,0.0,0.0,0.0,0.0,0.0,0.0,0.0,0.0,0.0,0.0,0.0,0.0,0.0,0.0,0.0,0.0,0.0,0.0,0.0,0.0,0.0,0.0,0.0,0.0,0.0,0.0,0.0,0.0,0.0,0.0,0.0,0.0,0.0,0.0,0.0,0.0,0.0,0.0,0.0,0.0,0.0,0.0,0.0,0.0,0.0,0.0,0.0,0.0,0.0,0.0,0.0,0.0,0.0,0.0,0.0,0.0,0.0,0.0,0.0,0.0,0.0,0.0,0.0,0.0,0.0,0.0,0.0,0.0,0.0,0.0,0.0,0.0,0.0,0.0,0.0,0.0,0.0,0.0,0.0,0.0,0.0,0.0,0.0,0.0,0.0,0.0,0.0,0.0,0.0,0.0,0.0,0.0,0.0,0.0,0.0,0.0,0.0,0.0,0.0,0.0,0.0,0.0,0.0,0.0,0.0,0.0,0.0,0.0,0.0,0.0,0.0,0.0,0.0,0.0,0.0,0.0,0.0,0.0,0.0,0.0,0.0,0.0,0.0,0.0,0.0,0.0,0.0,0.0,0.0,0.0,0.0,0.0,0.0,0.0,0.0,0.0,0.0,0.0,0.0,0.0,0.0,0.0,0.0,0.0,0.0,0.0,0.0,0.0,0.0,0.0,0.0,0.0,0.0,0.0,0.0,0.0,0.0,0.0,0.0,0.0,0.0,0.0,0.0,0.0,0.0,0.0,0.0,0.0,0.0,0.0,0.0,0.0,0.0,0.0,0.0,0.0,0.0,0.0,0.0,0.0,0.0,0.0,0.0,0.0,0.0,0.0,0.0,0.0,0.0,0.0,0.0,0.0,0.0,0.0,0.0,0.0,0.0,0.0,0.0,0.0,0.0,0.0,0.0,0.0,0.0,0.0,0.0,0.0,0.0,0.0,0.0,0.0,0.0,0.0,0.0,0.0,0.0,0.0,0.0,0.0,0.0,0.0,0.0,0.0,0.0,0.0,0.0,0.0,0.0,0.0,0.0,0.0,0.0,0.0,0.0,0.0,0.0,0.0,0.0,0.0,0.0,0.0,0.0,0.0,0.0,0.0,0.0,0.0,0.0,0.0,0.0,0.0,0.0,0.0,0.0,0.0,0.0,0.0,0.0,0.0,0.0,0.0,0.0,0.0,0.0,0.0,0.0,0.0,0.0,0.0,0.0,0.0,0.0,0.0,0.0,0.0,0.0,0.0,0.0,0.0,0.0,0.0,0.0,0.0,0.0,0.0,0.0,0.0,0.0,0.0,0.0,0.0,0.0,0.0,0.0,0.0,0.0,0.0,0.0,0.0,0.0,0.0,0.0,0.0,0.0,0.0,0.0,0.0,0.0,0.0,0.0,0.0,0.0,0.0,0.0,0.0,0.0,0.0,0.0,0.0,0.0,0.0,0.0,0.0,0.0,0.0,0.0,0.0,0.0,0.0,0.0,0.0,0.0,0.0,0.0,0.0,0.0,0.0,0.0,0.0,0.0,0.0,0.0,0.0,0.0,0.0,0.0,0.0,0.0,0.0,0.0,0.0,0.0,0.0,0.0,0.0,0.0,0.0,0.0,0.0,0.0,0.0,0.0,0.0,0.0,0.0,0.0,0.0,0.0,0.0,0.0,0.0,0.0,0.0,0.0,0.0,0.0,0.0,0.0,0.0,0.0,0.0,0.0,0.0,0.0,0.0,0.0,0.0,0.0,0.0,0.0,0.0,0.0,0.0,0.0,0.0,0.0,0.0,0.0,0.0,0.0,0.0,0.0,0.0,0.0,0.0,0.0,0.0,0.0,0.0,0.0,0.0,0.0,0.0,0.0,0.0,0.0,0.0,0.0,0.0,0.0,0.0,0.0,0.0,0.0,0.0,0.0,0.0,0.0,0.0,0.0,0.0,0.0,0.0,0.0,0.0,0.0,0.0,0.0,0.0,0.0,0.0,0.0,0.0,0.0,0.0,0.0,0.0,0.0,0.0,0.0,0.0,0.0,0.0,0.0,0.0,0.0,0.0,0.0,0.0,0.0,0.0,0.0,0.0,0.0,0.0,0.0,0.0,0.0,0.0,0.0,0.0,0.0,0.0,0.0,0.0,0.0,0.0,0.0,0.0,0.0,0.0,0.0,0.0,0.0,0.0,0.0,0.0,0.0,0.0,0.0,0.0,0.0,0.0,0.0,0.0,0.0,0.0,0.0,0.0,0.0,0.0,0.0,0.0,0.0,0.0,0.0,0.0,0.0,0.0,0.0,0.0,0.0,0.0,0.0,0.0,0.0,0.0,0.0,0.0,0.0,0.0,0.0,0.0,0.0,0.0,0.0,0.0,0.0,0.0,0.0,0.0,0.0,0.0,0.0,0.0,0.0,0.0,0.0,0.0,0.0,0.0,0.0,0.0,0.0,0.0,0.0,0.0,0.0,0.0,0.0,0.0,0.0,0.0,0.0,0.0,0.0,0.0,0.0,0.0,0.0,0.0,0.0,0.0,0.0,0.0,0.0,0.0,0.0,0.0,0.0,0.0,0.0,0.0,0.0,0.0,0.0,0.0,0.0,0.0,0.0,0.0,0.0,0.0,0.0,0.0,0.0,0.0,0.0,0.0,0.0,0.0,0.0,0.0,0.0,0.0,0.0,0.0,0.0,0.0,0.0,0.0,0.0,0.0,0.0,0.0,0.0,0.0,0.0,0.0,0.0,0.0,0.0,0.0,0.0,0.0,0.0,0.0,0.0,0.0,0.0,0.0,0.0,0.0,0.0,0.0,0.0,0.0,0.0,0.0,0.0,0.0,0.0,0.0,0.0,0.0,0.0,0.0,0.0,0.0,0.0,0.0,0.0,0.0,0.0,0.0,0.0,0.0,0.0,0.0,0.0,0.0,0.0,0.0,0.0,0.0,0.0,0.0,0.0,0.0,0.0,0.0,0.0,0.0,0.0,0.0,0.0,0.0,0.0,0.0,0.0,0.0,0.0,0.0,0.0,0.0,0.0,0.0,0.0,0.0,0.0,0.0,0.0,0.0,0.0,0.0,0.0,0.0,0.0,0.0,0.0,0.0,0.0,0.0,0.0,0.0,0.0,0.0,0.0,0.0,0.0,0.0,0.0,0.0,0.0,0.0,0.0,0.0,0.0,0.0,0.0,0.0,0.0,0.0,0.0,0.0,0.0,0.0,0.0,0.0,0.0,0.0,0.0,0.0,0.0,0.0,0.0,0.0,0.0,0.0,0.0,0.0,0.0,0.0,0.0,0.0,0.0,0.0,0.0,0.0,0.0,0.0,0.0,0.0,0.0,0.0,0.0,0.0,0.0,0.0,0.0,0.0,0.0,0.0,0.0,0.0,0.0,0.0,0.0,0.0,0.0,0.0,0.0,0.0,0.0,0.0,0.0,0.0,0.0,0.0,0.0,0.0,0.0,0.0,0.0,0.0,0.0,0.0,0.0,0.0,0.0,0.0,0.0,0.0,0.0,0.0,0.0,0.0,0.0,0.0,0.0,0.0,0.0,0.0,0.0,0.0,0.0,0.0,0.0,0.0,0.0,0.0,0.0,0.0,0.0,0.0,0.0,0.0,0.0,0.0,0.0,0.0,0.0,0.0,0.0,0.0,0.0,0.0,0.0,0.0,1.5104,0.0,0.0,0.0,0.0,0.0,0.0,0.0,0.0,0.0,0.0,0.0,0.0,0.0,0.0,0.0,0.0,0.0,0.0,0.0,0.0,0.0,0.0,0.0,0.0,0.0,0.0,0.0,0.0,0.0,0.0,0.0,0.0,0.0,0.0,0.0,0.0,0.0,0.0,0.0,0.0,0.0,0.0,0.0,0.0,0.0,0.0,0.0,0.0,0.0,0.0,0.0,0.0,0.0,0.0,0.0,0.0,0.0,0.0,0.0,0.0,0.0,0.0,0.0,0.0,0.0,0.0,0.0,0.0,0.0,0.0,0.0,0.0,0.0,0.0,0.0,0.0,0.0,0.0,0.0,0.0,0.0,0.0,0.0,0.0,0.0,0.0,0.0,0.0,0.0,0.0,0.0,0.0,0.0,0.0,0.0,0.0,0.0,0.0,0.0,0.0,0.0,0.0,0.0,0.0,0.0,0.0,0.0,0.0,0.0,0.0,1.4549,1.4564,1.5165,1.5477,1.5477,0.0,0.0,0.0,0.0,0.0,0.0,0.0,0.0,0.0,0.0,0.0,0.0,0.0,0.0,0.0,0.0,0.0,0.0,0.0,0.0,0.0,0.0,0.0,0.0,0.0,0.0,0.0,0.0,0.0,0.0,0.0,0.0,0.0,0.0,0.0,0.0,0.0,0.0,0.0,0.0,0.0,0.0,0.0,0.0,0.0,0.0,0.0,0.0,0.0,0.0,0.0,0.0,0.0,0.0,0.0,0.0,0.0,0.0,0.0,0.0,0.0,0.0,0.0,0.0,0.0,0.0,0.0,0.0,0.0,0.0,0.0,0.0,0.0,0.0,0.0,0.0,0.0,0.0,0.0,0.0,0.0,0.0,0.0,0.0,0.0,0.0,0.0,0.0,0.0,0.0,0.0,0.0,0.0,0.0,0.0,0.0,0.0,0.0,0.0,0.0,0.0,0.0,0.0,0.0,0.0,0.0,0.0,0.0,0.0,0.0,0.0,0.0,1.5758,1.6009,1.5994,0.0,0.0,0.0,0.0,0.0,0.0,0.0,0.0,0.0,0.0,0.0,0.0,0.0,0.0,0.0,0.0,0.0,0.0,0.0,0.0,0.0,0.0,0.0,0.0,0.0,0.0,0.0,0.0,0.0,0.0,0.0,0.0,0.0,0.0,0.0,0.0,0.0,0.0,0.0,0.0,0.0,0.0,0.0,0.0,0.0,0.0,0.0,0.0,0.0,0.0,0.0,0.0,0.0,0.0,0.0,0.0,0.0,0.0,0.0,0.0,0.0,0.0,0.0,0.0,0.0,0.0,0.0,0.0,0.0,0.0,0.0,0.0,0.0,0.0,0.0,0.0,0.0,0.0,0.0,0.0,0.0,0.0,0.0,0.0,0.0,0.0,0.0,0.0,0.0,0.0,0.0,0.0,0.0,0.0,0.0,0.0,0.0,0.0,0.0,0.0,0.0,0.0,0.0,0.0,0.0,0.0,0.0,0.0,0.0,0.0,1.6,1.6016,1.6407,0.0,1.6607,0.0,0.0,0.0,0.0,0.0,0.0,0.0,0.0,0.0,0.0,0.0,0.0,0.0,0.0,0.0,0.0,0.0,0.0,0.0,0.0,0.0,0.0,0.0,0.0,0.0,0.0,0.0,0.0,0.0,0.0,0.0,0.0,0.0,0.0,0.0,0.0,0.0,0.0,0.0,0.0,0.0,0.0,0.0,0.0,0.0,0.0,0.0,0.0,0.0,0.0,0.0,0.0,0.0,0.0,0.0,0.0,0.0,0.0,0.0,0.0,0.0,0.0,0.0,0.0,0.0,0.0,0.0,0.0,0.0,0.0,0.0,0.0,0.0,0.0,0.0,0.0,0.0,0.0,0.0,0.0,0.0,0.0,0.0,0.0,0.0,0.0,0.0,0.0,0.0,0.0,0.0,0.0,0.0,0.0,0.0,0.0,0.0,0.0,0.0,0.0,0.0,0.0,0.0,0.0,0.0,0.0,0.0,0.0,0.0,0.0,1.7184,1.7454,1.7421,1.7091,0.0,0.0,0.0,0.0,0.0,0.0,0.0,0.0,0.0,0.0,0.0,0.0,0.0,0.0,0.0,0.0,0.0,0.0,0.0,0.0,0.0,0.0,0.0,0.0,0.0,0.0,0.0,0.0,0.0,0.0,0.0,0.0,0.0,0.0,0.0,0.0,0.0,0.0,0.0,0.0,0.0,0.0,0.0,0.0,0.0,0.0,0.0,0.0,0.0,0.0,0.0,0.0,0.0,0.0,0.0,0.0,0.0,0.0,0.0,0.0,0.0,0.0,0.0,0.0,0.0,0.0,0.0,0.0,0.0,0.0,0.0,0.0,0.0,0.0,0.0,0.0,0.0,0.0,0.0,0.0,0.0,0.0,0.0,0.0,0.0,0.0,0.0,0.0,0.0,0.0,0.0,0.0,0.0,0.0,0.0,0.0,0.0,0.0,0.0,0.0,0.0,0.0,0.0,0.0,0.0,0.0,0.0,0.0,0.0,0.0,1.8315,1.8374,1.8794,1.8426,1.7832,1.704,0.0,0.0,0.0,0.0,0.0,0.0,0.0,0.0,0.0,0.0,0.0,0.0,0.0,0.0,0.0,0.0,0.0,0.0,0.0,0.0,0.0,0.0,0.0,0.0,0.0,0.0,0.0,0.0,0.0,0.0,0.0,0.0,0.0,0.0,0.0,0.0,0.0,0.0,0.0,0.0,0.0,0.0,0.0,0.0,0.0,0.0,0.0,0.0,0.0,0.0,0.0,0.0,0.0,0.0,0.0,0.0,0.0,0.0,0.0,0.0,0.0,0.0,0.0,0.0,0.0,0.0,0.0,0.0,0.0,0.0,0.0,0.0,0.0,0.0,0.0,0.0,0.0,0.0,0.0,0.0,0.0,0.0,0.0,0.0,0.0,0.0,0.0,0.0,0.0,0.0,0.0,0.0,0.0,0.0,0.0,0.0,0.0,0.0,0.0,0.0,0.0,0.0,0.0,0.0,0.0,0.0,0.0,0.0,2.01,1.9616,1.9531,1.9886,1.9315,1.8885,0.0,0.0,0.0,0.0,0.0,0.0,0.0,0.0,0.0,0.0,0.0,0.0,0.0,0.0,0.0,0.0,0.0,0.0,0.0,0.0,0.0,0.0,0.0,0.0,0.0,0.0,0.0,0.0,0.0,0.0,0.0,0.0,0.0,0.0,0.0,0.0,0.0,0.0,0.0,0.0,0.0,0.0,0.0,0.0,0.0,0.0,0.0,0.0,0.0,0.0,0.0,0.0,0.0,0.0,0.0,0.0,0.0,0.0,0.0,0.0,0.0,0.0,0.0,0.0,0.0,0.0,0.0,0.0,0.0,0.0,0.0,0.0,0.0,0.0,0.0,0.0,0.0,0.0,0.0,0.0,0.0,0.0,0.0,0.0,0.0,0.0,0.0,0.0,0.0,0.0,0.0,0.0,0.0,0.0,0.0,0.0,0.0,0.0,0.0,0.0,0.0,0.0,0.0,0.0,0.0,0.0,0.0,0.0,0.0,2.0248,2.0639,2.0629,2.0339,2.0378,2.0058,0.0,0.0,0.0,0.0,0.0,0.0,0.0,0.0,0.0,0.0,0.0,0.0,0.0,0.0,0.0,0.0,0.0,0.0,0.0,0.0,0.0,0.0,0.0,0.0,0.0,0.0,0.0,0.0,0.0,0.0,0.0,0.0,0.0,0.0,0.0,0.0,0.0,0.0,0.0,0.0,0.0,0.0,0.0,0.0,0.0,0.0,0.0,0.0,0.0,0.0,0.0,0.0,0.0,0.0,0.0,0.0,0.0,0.0,0.0,0.0,0.0,0.0,0.0,0.0,0.0,0.0,0.0,0.0,0.0,0.0,0.0,0.0,0.0,0.0,0.0,0.0,0.0,0.0,0.0,0.0,0.0,0.0,0.0,0.0,0.0,0.0,0.0,0.0,0.0,0.0,0.0,0.0,0.0,0.0,0.0,0.0,0.0,0.0,0.0,0.0,0.0,0.0,0.0,0.0,0.0,0.0,0.0,0.0,0.0,2.0699,0.0,2.1589,2.1107,2.1392,2.1083,0.0,0.0,0.0,0.0,0.0,0.0,0.0,0.0,0.0,0.0,0.0,0.0,0.0,0.0,0.0,0.0,0.0,0.0,0.0,0.0,0.0,0.0,0.0,0.0,0.0,0.0,0.0,0.0,0.0,0.0,0.0,0.0,0.0,0.0,0.0,0.0,0.0,0.0,0.0,0.0,0.0,0.0,0.0,0.0,0.0,0.0,0.0,0.0,0.0,0.0,0.0,0.0,0.0,0.0,0.0,0.0,0.0,0.0,0.0,0.0,0.0,0.0,0.0,0.0,0.0,0.0,0.0,0.0,0.0,0.0,0.0,0.0,0.0,0.0,0.0,0.0,0.0,0.0,0.0,0.0,0.0,0.0,0.0,0.0,0.0,0.0,0.0,0.0,0.0,0.0,0.0,0.0,0.0,0.0,0.0,0.0,0.0,0.0,0.0,0.0,0.0,0.0,0.0,0.0,0.0,0.0,0.0,0.0,2.0251,2.1521,2.2001,2.222,2.2296,2.2262,2.1938,0.0,0.0,0.0,0.0,0.0,0.0,0.0,0.0,0.0,0.0,0.0,0.0,0.0,0.0,0.0,0.0,0.0,0.0,0.0,0.0,0.0,0.0,0.0,0.0,0.0,0.0,0.0,0.0,0.0,0.0,0.0,0.0,0.0,0.0,0.0,0.0,0.0,0.0,0.0,0.0,0.0,0.0,0.0,0.0,0.0,0.0,0.0,0.0,0.0,0.0,0.0,0.0,0.0,0.0,0.0,0.0,0.0,0.0,0.0,0.0,0.0,0.0,0.0,0.0,0.0,0.0,0.0,0.0,0.0,0.0,0.0,0.0,0.0,0.0,0.0,0.0,0.0,0.0,0.0,0.0,0.0,0.0,0.0,0.0,0.0,0.0,0.0,0.0,0.0,0.0,0.0,0.0,0.0,0.0,0.0,0.0,0.0,0.0,0.0,0.0,0.0,0.0,0.0,0.0,0.0,0.0,0.0,0.0,0.0,2.1197,2.1598,2.1957,2.2282,2.2313,2.2209,0.0,0.0,0.0,0.0,0.0,0.0,0.0,0.0,0.0,0.0,0.0,0.0,0.0,0.0,0.0,0.0,0.0,0.0,0.0,0.0,0.0,0.0,0.0,0.0,0.0,0.0,0.0,0.0,0.0,0.0,0.0,0.0,0.0,0.0,0.0,0.0,0.0,0.0,0.0,0.0,0.0,0.0,0.0,0.0,0.0,0.0,0.0,0.0,0.0,0.0,0.0,0.0,0.0,0.0,0.0,0.0,0.0,0.0,0.0,0.0,0.0,0.0,0.0,0.0,0.0,0.0,0.0,0.0,0.0,0.0,0.0,0.0,0.0,0.0,0.0,0.0,0.0,0.0,0.0,0.0,0.0,0.0,0.0,0.0,0.0,0.0,0.0,0.0,0.0,0.0,0.0,0.0,0.0,0.0,0.0,0.0,0.0,0.0,0.0,0.0,0.0,0.0,0.0,0.0,0.0,0.0,0.0,0.0,0.0,2.1649,2.2054,2.2402,2.2702,2.2702,2.2581,2.2296,0.0,0.0,0.0,0.0,0.0,0.0,0.0,0.0,0.0,0.0,0.0,0.0,0.0,0.0,0.0,0.0,0.0,0.0,0.0,0.0,0.0,0.0,0.0,0.0,0.0,0.0,0.0,0.0,0.0,0.0,0.0,0.0,0.0,0.0,0.0,0.0,0.0,0.0,0.0,0.0,0.0,0.0,0.0,0.0,0.0,0.0,0.0,0.0,0.0,0.0,0.0,0.0,0.0,0.0,0.0,0.0,0.0,0.0,0.0,0.0,0.0,0.0,0.0,0.0,0.0,0.0,0.0,0.0,0.0,0.0,0.0,0.0,0.0,0.0,0.0,0.0,0.0,0.0,0.0,0.0,0.0,0.0,0.0,0.0,0.0,0.0,0.0,0.0,0.0,0.0,0.0,0.0,0.0,0.0,0.0,0.0,0.0,0.0,0.0,0.0,0.0,0.0,0.0,0.0,0.0,0.0,0.0,0.0,2.2779,2.3281,2.3494,2.346,2.341,2.3071,0.0,0.0,0.0,0.0,0.0,0.0,0.0,0.0,0.0,0.0,0.0,0.0,0.0,0.0,0.0,0.0,0.0,0.0,0.0,0.0,0.0,0.0,0.0,0.0,0.0,0.0,0.0,0.0,0.0,0.0,0.0,0.0,0.0,0.0,0.0,0.0,0.0,0.0,0.0,0.0,0.0,0.0,0.0,0.0,0.0,0.0,0.0,0.0,0.0,0.0,0.0,0.0,0.0,0.0,0.0,0.0,0.0,0.0,0.0,0.0,0.0,0.0,0.0,0.0,0.0,0.0,0.0,0.0,0.0,0.0,0.0,0.0,0.0,0.0,0.0,0.0,0.0,0.0,0.0,0.0,0.0,0.0,0.0,0.0,0.0,0.0,0.0,0.0,0.0,0.0,0.0,0.0,0.0,0.0,0.0,0.0,0.0,0.0,0.0,0.0,0.0,0.0,0.0,0.0,0.0,0.0,0.0,0.0,0.0,2.4,2.4682,2.4763,2.4237,2.3663,2.3308,0.0,0.0,0.0,0.0,0.0,0.0,0.0,0.0,0.0,0.0,0.0,0.0,0.0,0.0,0.0,0.0,0.0,0.0,0.0,0.0,0.0,0.0,0.0,0.0,0.0,0.0,0.0,0.0,0.0,0.0,0.0,0.0,0.0,0.0,0.0,0.0,0.0,0.0,0.0,0.0,0.0,0.0,0.0,0.0,0.0,0.0,0.0,0.0,0.0,0.0,0.0,0.0,0.0,0.0,0.0,0.0,0.0,0.0,0.0,0.0,0.0,0.0,0.0,0.0,0.0,0.0,0.0,0.0,0.0,0.0,0.0,0.0,0.0,0.0,0.0,0.0,0.0,0.0,0.0,0.0,0.0,0.0,0.0,0.0,0.0,0.0,0.0,0.0,0.0,0.0,0.0,0.0,0.0,0.0,0.0,0.0,0.0,0.0,0.0,0.0,0.0,0.0,0.0,0.0,0.0,0.0,0.0,0.0,2.3803,2.4491,2.554,2.5862,2.5439,2.4406,2.3712,0.0,0.0,0.0,0.0,0.0,0.0,0.0,0.0,0.0,0.0,0.0,0.0,0.0,0.0,0.0,0.0,0.0,0.0,0.0,0.0,0.0,0.0,0.0,0.0,0.0,0.0,0.0,0.0,0.0,0.0,0.0,0.0,0.0,0.0,0.0,0.0,0.0,0.0,0.0,0.0,0.0,0.0,0.0,0.0,0.0,0.0,0.0,0.0,0.0,0.0,0.0,0.0,0.0,0.0,0.0,0.0,0.0,0.0,0.0,0.0,0.0,0.0,0.0,0.0,0.0,0.0,0.0,0.0,0.0,0.0,0.0,0.0,0.0,0.0,0.0,0.0,0.0,0.0,0.0,0.0,0.0,0.0,0.0,0.0,0.0,0.0,0.0,0.0,0.0,0.0,0.0,0.0,0.0,0.0,0.0,0.0,0.0,0.0,0.0,0.0,0.0,0.0,0.0,0.0,0.0,0.0,0.0,0.0,2.4525,2.4643,2.598,2.6691,2.6657,2.5286,2.4186,0.0,0.0,0.0,0.0,0.0,0.0,0.0,0.0,0.0,0.0,0.0,0.0,0.0,0.0,0.0,0.0,0.0,0.0,0.0,0.0,0.0,0.0,0.0,0.0,0.0,0.0,0.0,0.0,0.0,0.0,0.0,0.0,0.0,0.0,0.0,0.0,0.0,0.0,0.0,0.0,0.0,0.0,0.0,0.0,0.0,0.0,0.0,0.0,0.0,0.0,0.0,0.0,0.0,0.0,0.0,0.0,0.0,0.0,0.0,0.0,0.0,0.0,0.0,0.0,0.0,0.0,0.0,0.0,0.0,0.0,0.0,0.0,0.0,0.0,0.0,0.0,0.0,0.0,0.0,0.0,0.0,0.0,0.0,0.0,0.0,0.0,0.0,0.0,0.0,0.0,0.0,0.0,0.0,0.0,0.0,0.0,0.0,0.0,0.0,0.0,0.0,0.0,0.0,0.0,0.0,0.0,0.0,0.0,2.4795,2.5355,2.6234,2.6708,2.6708,2.5269,2.444,0.0,0.0,0.0,0.0,0.0,0.0,0.0,0.0,0.0,0.0,0.0,0.0,0.0,0.0,0.0,0.0,0.0,0.0,0.0,0.0,0.0,0.0,0.0,0.0,0.0,0.0,0.0,0.0,0.0,0.0,0.0,0.0,0.0,0.0,0.0,0.0,0.0,0.0,0.0,0.0,0.0,0.0,0.0,0.0,0.0,0.0,0.0,0.0,2.1143,0.0,0.0,0.0,0.0,0.0,0.0,0.0,0.0,0.0,0.0,0.0,0.0,0.0,0.0,0.0,0.0,0.0,0.0,0.0,0.0,0.0,0.0,0.0,0.0,0.0,0.0,0.0,0.0,0.0,0.0,0.0,0.0,0.0,0.0,0.0,0.0,0.0,0.0,0.0,0.0,0.0,0.0,0.0,0.0,0.0,0.0,0.0,0.0,0.0,0.0,0.0,0.0,0.0,0.0,0.0,0.0,0.0,0.0,0.0,2.4863,2.5592,2.6319,2.6708,2.6657,2.5609,2.4863,0.0,0.0,0.0,0.0,0.0,0.0,0.0,0.0,0.0,0.0,0.0,0.0,0.0,0.0,0.0,0.0,0.0,0.0,0.0,0.0,0.0,0.0,0.0,0.0,0.0,0.0,0.0,0.0,0.0,0.0,0.0,0.0,0.0,0.0,0.0,0.0,0.0,0.0,0.0,0.0,0.0,0.0,0.0,0.0,0.0,0.0,0.0,0.0,0.0,0.0,0.0,0.0,0.0,0.0,0.0,0.0,0.0,0.0,0.0,0.0,0.0,0.0,0.0,0.0,0.0,0.0,0.0,0.0,0.0,0.0,0.0,0.0,0.0,0.0,0.0,0.0,0.0,0.0,0.0,0.0,0.0,0.0,0.0,0.0,0.0,0.0,0.0,0.0,0.0,0.0,0.0,0.0,0.0,0.0,0.0,0.0,0.0,0.0,0.0,0.0,0.0,0.0,0.0,0.0,0.0,0.0,0.0,2.4186,2.4914,2.5761,2.6387,2.6708,2.6708,2.5981,2.5253,2.454,0.0,0.0,0.0,0.0,0.0,0.0,0.0,0.0,0.0,0.0,0.0,0.0,0.0,0.0,0.0,0.0,0.0,0.0,0.0,0.0,0.0,0.0,0.0,0.0,0.0,0.0,0.0,0.0,0.0,0.0,0.0,0.0,0.0,0.0,0.0,0.0,0.0,0.0,2.0699,2.0721,0.0,0.0,0.0,0.0,0.0,0.0,0.0,0.0,2.1939,0.0,0.0,0.0,0.0,0.0,0.0,0.0,0.0,0.0,0.0,0.0,0.0,0.0,0.0,0.0,0.0,0.0,0.0,0.0,0.0,0.0,0.0,0.0,0.0,0.0,0.0,0.0,0.0,0.0,0.0,0.0,0.0,0.0,0.0,0.0,0.0,0.0,0.0,0.0,0.0,0.0,0.0,0.0,0.0,0.0,0.0,0.0,0.0,0.0,0.0,0.0,0.0,0.0,0.0,0.0,0.0,2.4288,2.444,2.5168,2.6471,2.6623,2.6708,2.6674,2.5981,2.5253,2.4508,0.0,0.0,0.0,0.0,0.0,0.0,0.0,0.0,0.0,0.0,0.0,0.0,0.0,0.0,0.0,0.0,0.0,0.0,0.0,0.0,0.0,0.0,0.0,0.0,0.0,0.0,0.0,0.0,0.0,0.0,0.0,0.0,0.0,0.0,0.0,0.0,0.0,0.0,0.0,2.2568,2.2864,0.0,0.0,0.0,0.0,0.0,0.0,0.0,0.0,2.3818,0.0,0.0,0.0,0.0,0.0,0.0,0.0,0.0,0.0,0.0,0.0,0.0,0.0,0.0,0.0,0.0,0.0,0.0,0.0,0.0,0.0,0.0,0.0,0.0,0.0,0.0,0.0,0.0,0.0,0.0,0.0,0.0,0.0,0.0,0.0,0.0,0.0,0.0,0.0,0.0,0.0,0.0,0.0,0.0,0.0,0.0,0.0,0.0,0.0,0.0,0.0,0.0,0.0,0.0,0.0,2.4457,2.488,2.5592,2.6657,2.6708,2.6708,2.6691,2.5998,2.5253,0.0,0.0,0.0,0.0,0.0,0.0,0.0,0.0,0.0,0.0,0.0,0.0,0.0,0.0,0.0,0.0,0.0,0.0,0.0,0.0,0.0,0.0,0.0,0.0,0.0,0.0,0.0,0.0,0.0,0.0,0.0,0.0,0.0,0.0,0.0,0.0,0.0,0.0,0.0,0.0,2.3332,2.3899,2.4791,0.0,0.0,0.0,0.0,0.0,0.0,2.4705,2.4433,0.0,0.0,0.0,0.0,0.0,0.0,0.0,0.0,0.0,0.0,0.0,0.0,0.0,0.0,0.0,0.0,0.0,0.0,0.0,0.0,0.0,0.0,0.0,0.0,0.0,0.0,0.0,0.0,0.0,0.0,0.0,0.0,0.0,0.0,0.0,0.0,0.0,0.0,0.0,0.0,0.0,0.0,0.0,0.0,0.0,0.0,0.0,0.0,0.0,0.0,0.0,0.0,0.0,0.0,0.0,2.4491,2.522,2.5964,2.6657,2.6708,2.6708,2.6691,2.5828,2.5084,0.0,0.0,0.0,0.0,0.0,0.0,0.0,0.0,0.0,0.0,0.0,0.0,0.0,0.0,0.0,0.0,0.0,0.0,0.0,0.0,0.0,0.0,0.0,0.0,0.0,0.0,0.0,0.0,0.0,0.0,0.0,0.0,0.0,0.0,0.0,0.0,0.0,0.0,0.0,0.0,0.0,2.4978,2.5859,2.5232,0.0,0.0,0.0,0.0,2.5816,2.5494,0.0,0.0,0.0,0.0,0.0,0.0,0.0,0.0,0.0,0.0,0.0,0.0,0.0,0.0,0.0,0.0,0.0,0.0,0.0,0.0,0.0,0.0,0.0,0.0,0.0,0.0,0.0,0.0,0.0,0.0,0.0,0.0,0.0,0.0,0.0,0.0,0.0,0.0,0.0,0.0,0.0,0.0,0.0,0.0,0.0,0.0,0.0,0.0,0.0,0.0,0.0,0.0,0.0,0.0,0.0,0.0,2.4491,2.5236,2.5947,2.6657,2.6708,2.6708,2.6674,2.5354,2.4575,0.0,0.0,0.0,0.0,0.0,0.0,0.0,0.0,0.0,0.0,0.0,0.0,0.0,0.0,0.0,0.0,0.0,0.0,0.0,0.0,0.0,0.0,0.0,0.0,0.0,0.0,0.0,0.0,0.0,0.0,0.0,0.0,0.0,0.0,0.0,0.0,0.0,0.0,0.0,0.0,0.0,2.6777,2.759,2.7011,2.6444,0.0,0.0,2.7636,2.7706,2.8318,0.0,0.0,0.0,0.0,0.0,0.0,0.0,0.0,0.0,0.0,0.0,0.0,0.0,0.0,0.0,0.0,0.0,0.0,0.0,0.0,0.0,0.0,0.0,0.0,0.0,0.0,0.0,0.0,0.0,0.0,0.0,0.0,0.0,0.0,0.0,0.0,0.0,0.0,0.0,0.0,0.0,0.0,0.0,0.0,0.0,0.0,0.0,0.0,0.0,0.0,0.0,0.0,0.0,0.0,0.0,2.3753,2.4779,2.5897,2.6955,2.7943,2.7554,2.7317,2.7317,2.5489,2.4508,0.0,0.0,0.0,0.0,0.0,0.0,0.0,0.0,0.0,0.0,0.0,0.0,0.0,0.0,0.0,0.0,0.0,0.0,0.0,0.0,0.0,0.0,0.0,0.0,0.0,0.0,0.0,0.0,0.0,0.0,0.0,0.0,0.0,0.0,0.0,0.0,0.0,0.0,0.0,0.0,0.0,0.0,2.8008,2.7739,0.0,0.0,0.0,2.7917,2.7398,0.0,0.0,0.0,0.0,0.0,0.0,0.0,0.0,0.0,0.0,0.0,0.0,0.0,0.0,0.0,0.0,0.0,0.0,0.0,0.0,0.0,0.0,0.0,0.0,0.0,0.0,0.0,0.0,0.0,0.0,0.0,0.0,0.0,0.0,0.0,0.0,0.0,0.0,0.0,0.0,0.0,0.0,0.0,0.0,0.0,0.0,0.0,0.0,0.0,0.0,0.0,0.0,0.0,0.0,0.0,0.0,0.0,2.524,2.6768,2.802,2.8941,2.8416,2.8111,2.806,2.6285,0.0,0.0,0.0,0.0,0.0,0.0,0.0,0.0,0.0,0.0,0.0,0.0,0.0,0.0,0.0,0.0,0.0,0.0,0.0,0.0,0.0,0.0,0.0,0.0,0.0,0.0,0.0,2.3445,0.0,0.0,0.0,0.0,0.0,0.0,0.0,0.0,0.0,0.0,0.0,0.0,0.0,0.0,2.7933,2.8029,2.8021,2.8063,0.0,0.0,2.7947,2.7477,2.8711,2.9141,0.0,0.0,0.0,0.0,0.0,0.0,0.0,0.0,0.0,0.0,0.0,0.0,0.0,0.0,0.0,0.0,0.0,0.0,0.0,0.0,0.0,0.0,0.0,0.0,0.0,0.0,0.0,0.0,0.0,0.0,0.0,0.0,0.0,0.0,0.0,0.0,0.0,0.0,0.0,0.0,0.0,0.0,0.0,0.0,0.0,0.0,0.0,0.0,0.0,0.0,0.0,0.0,0.0,0.0,2.5845,2.598,2.7879,2.8887,2.8993,2.8942,2.8925,2.8908,2.8043,2.7232,0.0,0.0,0.0,0.0,0.0,0.0,0.0,0.0,0.0,0.0,0.0,0.0,0.0,0.0,0.0,0.0,0.0,0.0,0.0,0.0,0.0,0.0,0.0,0.0,0.0,0.0,0.0,0.0,0.0,0.0,0.0,0.0,0.0,0.0,0.0,0.0,0.0,0.0,0.0,0.0,0.0,2.7887,2.7918,2.7953,2.8253,0.0,2.8491,2.8306,2.8919,2.9905,3.0004,2.8281,0.0,0.0,0.0,0.0,0.0,0.0,0.0,0.0,0.0,0.0,0.0,0.0,0.0,0.0,0.0,0.0,0.0,0.0,0.0,0.0,0.0,0.0,0.0,0.0,0.0,0.0,0.0,0.0,0.0,0.0,0.0,0.0,0.0,0.0,0.0,0.0,0.0,0.0,0.0,0.0,0.0,0.0,0.0,0.0,0.0,0.0,0.0,0.0,0.0,0.0,0.0,0.0,0.0,2.539,2.6186,2.7437,2.844,2.9214,2.9161,2.9126,2.9123,2.8269,2.7452,0.0,0.0,0.0,0.0,0.0,0.0,0.0,0.0,0.0,0.0,0.0,0.0,0.0,0.0,0.0,0.0,0.0,0.0,0.0,0.0,0.0,0.0,0.0,0.0,0.0,0.0,0.0,0.0,2.629,2.6412,2.6248,0.0,0.0,0.0,0.0,0.0,0.0,0.0,0.0,0.0,0.0,2.8094,2.8625,2.8718,0.0,0.0,2.8973,2.8763,2.855,2.9323,2.9371,2.7625,2.7422,0.0,0.0,0.0,0.0,0.0,0.0,0.0,0.0,0.0,0.0,0.0,0.0,0.0,0.0,0.0,0.0,0.0,0.0,0.0,0.0,0.0,0.0,0.0,0.0,0.0,0.0,0.0,0.0,0.0,0.0,0.0,0.0,0.0,0.0,0.0,0.0,0.0,0.0,0.0,0.0,0.0,0.0,0.0,0.0,0.0,0.0,0.0,0.0,0.0,0.0,0.0,0.0,2.5627,2.6375,2.7827,2.8944,2.9657,2.9741,2.9795,2.9766,2.9158,2.8484,0.0,0.0,0.0,0.0,0.0,0.0,0.0,0.0,0.0,0.0,0.0,0.0,0.0,0.0,0.0,0.0,0.0,0.0,0.0,0.0,0.0,0.0,0.0,0.0,0.0,0.0,0.0,0.0,2.7351,2.7291,2.6734,0.0,0.0,0.0,0.0,0.0,0.0,0.0,0.0,0.0,0.0,2.8179,2.8546,2.8651,2.8714,2.8723,2.8618,2.8424,2.8113,2.8651,2.8668,2.7457,0.0,0.0,0.0,0.0,0.0,0.0,0.0,0.0,0.0,0.0,0.0,0.0,0.0,0.0,0.0,0.0,0.0,0.0,0.0,0.0,0.0,0.0,0.0,0.0,0.0,0.0,0.0,2.1007,0.0,0.0,2.1054,0.0,0.0,0.0,0.0,0.0,0.0,0.0,0.0,0.0,0.0,0.0,0.0,0.0,0.0,0.0,0.0,0.0,0.0,0.0,0.0,0.0,0.0,2.7026,2.6551,2.9424,3.0764,3.0272,3.0841,3.1081,3.1081,3.1123,3.0768,2.9989,0.0,0.0,0.0,0.0,0.0,0.0,0.0,0.0,0.0,0.0,0.0,0.0,0.0,0.0,0.0,0.0,0.0,0.0,0.0,0.0,0.0,0.0,0.0,0.0,0.0,0.0,2.5499,2.6115,2.664,0.0,0.0,0.0,0.0,0.0,0.0,0.0,0.0,0.0,2.6326,2.7523,2.8099,2.7387,2.7438,2.7643,2.7676,2.7169,2.7069,2.7872,2.8061,2.8133,0.0,0.0,0.0,0.0,0.0,0.0,0.0,0.0,0.0,0.0,0.0,0.0,0.0,0.0,0.0,0.0,0.0,0.0,0.0,0.0,0.0,0.0,0.0,0.0,0.0,0.0,0.0,2.2137,2.2141,0.0,0.0,0.0,0.0,0.0,0.0,0.0,0.0,0.0,0.0,0.0,2.4709,2.4631,0.0,0.0,0.0,0.0,0.0,0.0,0.0,0.0,0.0,0.0,0.0,0.0,2.7042,2.6572,2.8376,2.9111,2.8551,2.948,3.0016,3.0,3.0777,3.0852,3.0106,0.0,0.0,0.0,0.0,0.0,0.0,0.0,0.0,0.0,0.0,0.0,0.0,0.0,0.0,0.0,0.0,0.0,0.0,0.0,0.0,0.0,0.0,0.0,0.0,0.0,2.6031,0.0,0.0,0.0,0.0,0.0,0.0,0.0,0.0,0.0,0.0,0.0,2.6301,2.6828,2.7293,2.7525,2.7293,2.7793,2.8175,0.0,0.0,0.0,0.0,0.0,0.0,0.0,0.0,0.0,0.0,0.0,0.0,0.0,0.0,2.7067,2.6389,2.6711,2.7041,2.6829,0.0,0.0,0.0,0.0,0.0,0.0,0.0,0.0,0.0,0.0,0.0,0.0,0.0,0.0,2.2897,0.0,2.3208,0.0,0.0,0.0,0.0,0.0,0.0,0.0,0.0,2.4901,2.5589,2.581,2.5898,2.6133,0.0,2.6094,2.5181,0.0,0.0,0.0,0.0,0.0,0.0,0.0,0.0,2.672,2.6229,2.8098,2.8826,2.8304,2.939,3.0038,3.0021,3.0797,3.097,3.0497,2.9261,2.8382,0.0,0.0,0.0,0.0,0.0,0.0,0.0,0.0,0.0,0.0,0.0,0.0,0.0,0.0,0.0,0.0,0.0,0.0,0.0,0.0,0.0,0.0,0.0,2.6152,0.0,0.0,0.0,0.0,0.0,0.0,0.0,0.0,0.0,2.6155,2.6246,2.6512,2.7017,2.7266,2.7324,2.7098,0.0,0.0,0.0,0.0,0.0,0.0,0.0,2.7076,2.7006,2.73,2.764,2.8025,2.8304,2.8385,2.8084,0.0,0.0,2.7453,2.7756,2.8076,2.796,2.7932,2.7892,2.773,2.7681,2.7676,0.0,0.0,0.0,0.0,0.0,0.0,0.0,0.0,2.3714,2.3437,0.0,2.3511,0.0,0.0,0.0,0.0,2.4649,2.5232,0.0,0.0,2.6941,2.727,2.6746,2.6746,2.6692,2.6716,2.6722,2.6393,2.5788,2.626,0.0,0.0,0.0,0.0,0.0,0.0,2.6282,2.585,2.8748,2.9995,2.9434,3.0576,3.1216,3.1221,3.1207,3.119,3.1157,3.0497,3.0106,3.0057,2.8012,0.0,0.0,0.0,0.0,0.0,0.0,0.0,0.0,0.0,0.0,0.0,0.0,0.0,0.0,0.0,0.0,0.0,0.0,0.0,0.0,2.6064,0.0,0.0,0.0,0.0,0.0,0.0,0.0,0.0,0.0,0.0,2.625,2.6596,2.6925,2.6953,0.0,0.0,0.0,0.0,2.7872,2.7101,2.7149,2.7288,2.7341,2.7942,2.8762,2.9764,0.0,0.0,3.0573,2.9867,2.9147,2.8398,2.9023,2.9194,2.8551,2.8418,2.8362,2.8339,2.8376,2.8289,2.8217,2.8382,2.8337,2.6078,0.0,0.0,0.0,0.0,2.4762,2.5136,2.5758,2.5734,2.5644,2.548,2.5659,0.0,0.0,0.0,0.0,0.0,0.0,2.6123,2.7031,2.742,2.8004,2.8727,2.8753,2.8753,2.8727,2.8753,2.8622,2.8468,2.8624,2.7614,2.5576,0.0,0.0,0.0,0.0,2.7876,2.784,2.9527,3.0152,2.9551,3.0776,3.1583,3.1985,3.1461,3.119,3.119,3.0987,3.0632,3.0125,2.9724,0.0,0.0,0.0,0.0,0.0,0.0,0.0,0.0,0.0,0.0,0.0,0.0,0.0,0.0,0.0,0.0,0.0,0.0,0.0,2.7234,2.7419,2.7326,0.0,0.0,0.0,0.0,0.0,0.0,0.0,0.0,0.0,2.8186,2.7772,2.7556,0.0,0.0,2.7523,2.6712,2.7812,2.8666,2.8434,2.8437,0.0,2.9458,2.9265,2.9195,2.9631,3.059,3.1241,3.1094,3.1495,3.1782,3.1532,3.1768,3.1874,3.1635,3.0717,3.0074,3.0097,3.0135,3.0115,3.0092,3.0045,2.9971,2.8278,2.7141,2.6617,2.6542,2.6782,2.6782,2.7171,2.7794,2.7809,2.7634,2.741,2.769,2.726,2.6393,2.6393,0.0,0.0,0.0,2.7365,2.8393,2.8393,2.8828,2.9577,2.9621,2.9621,2.9621,2.9819,2.9846,2.9621,2.9861,2.9026,2.7245,0.0,0.0,2.7031,2.802,2.8566,2.8659,2.9858,3.0325,2.9989,3.0939,3.1741,3.2314,3.1884,3.1674,3.163,3.1613,3.1312,3.0581,3.0455,3.0002,0.0,0.0,0.0,0.0,0.0,0.0,0.0,0.0,0.0,0.0,0.0,2.6146,2.5658,0.0,0.0,0.0,2.7273,2.7676,2.8001,2.7864,0.0,0.0,0.0,0.0,0.0,0.0,0.0,2.7486,2.8443,2.9162,2.9223,2.894,2.8729,2.8744,2.876,2.8558,2.8099,0.0,2.9869,2.9667,2.9807,3.0234,3.1023,3.0868,3.0798,3.1335,3.2072,3.247,3.2195,3.2772,3.3123,3.2856,3.2858,3.2979,3.2987,3.2221,3.1529,3.1354,3.1049,3.0857,3.0879,3.0837,3.0771,2.9729,2.9624,2.8438,2.8203,2.8667,2.8682,2.9011,2.9606,2.9606,2.9235,2.8727,2.9337,2.8918,2.7764,2.775,0.0,2.8682,2.8667,2.9026,2.9654,2.9654,2.9726,2.9756,2.9744,2.9729,2.9786,3.0313,3.0298,2.9804,3.0313,3.0268,2.9654,2.9056,2.8427,2.7899,2.8468,2.8771,2.8846,2.9994,3.0608,3.066,3.1149,3.1766,3.2459,3.2432,3.2376,3.2388,3.2395,3.2073,3.1413,3.0666,3.026,3.0159,0.0,0.0,0.0,0.0,0.0,0.0,0.0,0.0,0.0,0.0,0.0,0.0,0.0,0.0,2.8752,2.8947,0.0,2.8704,2.7982,0.0,0.0,0.0,2.7254,2.7914,2.8073,2.8213,2.8509,0.0,0.0,2.9732,3.0024,3.0253,3.0385,3.0259,3.018,3.018,3.0813,3.121,3.067,3.1099,3.1682,3.2205,3.2456,3.2858,3.3696,3.4453,3.4228,3.3588,3.3647,3.3511,3.292,3.2896,3.3134,3.3172,3.316,3.2897,3.2326,3.1539,3.0993,3.1169,3.121,3.125,3.1032,3.1017,3.0703,3.0118,2.9382,2.9355,2.9445,2.9606,2.9621,2.9532,2.9397,2.9547,2.9427,2.9127,2.9127,2.919,2.9367,2.9367,2.9684,3.0268,3.0283,3.0567,3.1032,3.1047,3.1047,3.1047,3.1197,3.1182,3.1047,3.1197,3.0928,3.0298,3.0118,2.9968,2.9819,2.9968,3.0285,3.0808,3.1112,3.1536,3.2064,3.1627,3.1972,3.3205,3.2679,3.2625,3.3115,3.3136,3.3051,3.2865,3.2171,3.1532,3.0954,2.9627,0.0,0.0,0.0,0.0,0.0,0.0,0.0,0.0,0.0,2.7412,2.6493,0.0,2.7319,0.0,2.858,2.9921,3.1018,3.0696,0.0,0.0,3.0376,3.0339,3.0509,3.106,3.1227,3.0715,3.1016,3.1304,3.1441,3.1194,3.1257,3.1834,3.0906,3.0128,3.016,3.0814,3.1278,3.1225,3.1755,3.2519,3.3198,3.347,3.3576,3.3839,3.4141,3.4236,3.4031,3.4281,3.4424,3.4245,3.4399,3.4568,3.4554,3.4248,3.3905,3.3726,3.314,3.2627,3.2723,3.2712,3.272,3.2363,3.2377,3.2064,3.1539,3.0866,3.0582,3.0447,3.0447,3.0462,3.0447,3.0447,3.0447,3.0447,3.0447,3.0447,3.0447,3.0447,3.0447,3.0642,3.0928,3.0943,3.1137,3.1496,3.1496,3.1496,3.1496,3.1496,3.1496,3.1496,3.1496,3.1301,3.0943,3.0943,3.0928,3.0913,3.0387,3.0283,3.0629,3.0913,3.1394,3.2061,3.1982,3.2285,3.3023,3.2957,3.2896,3.2912,3.2936,3.2763,3.2442,3.2019,3.1613,3.119,3.0108,2.9279,0.0,0.0,0.0,0.0,0.0,0.0,0.0,0.0,0.0,0.0,0.0,2.8435,2.8246,2.9511,3.0493,3.0845,3.0689,3.0638,3.0815,3.0818,3.0945,3.1264,3.1726,3.1876,3.1616,3.1613,3.1717,3.188,3.1514,3.141,3.1862,3.115,3.0732,3.1133,3.1582,3.183,3.1848,3.2201,3.2636,3.3172,3.3414,3.3536,3.3564,3.3787,3.4037,3.4031,3.4284,3.4486,3.4489,3.4715,3.4963,3.5069,3.4851,3.4669,3.4744,3.4508,3.4025,3.3398,3.3265,3.3311,3.3499,3.3455,3.2886,3.2617,3.2587,3.1989,3.166,3.1496,3.1496,3.1496,3.1496,3.1496,3.1496,3.1496,3.1496,3.1496,3.1496,3.1496,3.1496,3.1496,3.1496,3.1496,3.1496,3.1496,3.1496,3.1496,3.1496,3.1496,3.1496,3.1496,3.1451,3.1376,3.1376,3.1331,3.1212,3.0133,2.9696,2.9861,3.0268,3.0778,3.1346,3.1934,3.2268,3.2403,3.2949,3.2994,3.2472,3.2446,3.2138,3.1512,3.1376,3.1376,3.1444,3.07,3.0294,0.0,2.9349,0.0,0.0,0.0,0.0,0.0,0.0,0.0,0.0,3.017,3.0127,3.0088,3.0784,3.0827,2.9868,2.985,3.0006,3.0351,3.0415,3.0653,3.1266,3.1453,3.1642,3.1982,3.1749,3.1701,3.2081,3.1739,3.1478,3.1622,3.1625,3.1814,3.2389,3.2476,3.2371,3.2386,3.2628,3.3047,3.3079,3.3378,3.3749,3.3727,3.4031,3.4064,3.4022,3.4202,3.4296,3.4201,3.4412,3.4704,3.4954,3.5008,3.5111,3.5307,3.5318,3.4943,3.3964,3.3698,3.3596,3.3499,3.3469,3.3365,3.332,3.329,3.3185,3.2482,3.1496,3.1496,3.1496,3.1496,3.1496,3.1496,3.1496,3.1496,3.1496,3.1496,3.1496,3.1496,3.1496,3.1496,3.1496,3.1496,3.1496,3.1496,3.1496,3.1496,3.1496,3.1496,3.1496,3.1227,3.0717,3.0702,3.0447,2.9968,0.0,0.0,0.0,3.0731,3.0567,3.0672,3.0346,3.0674,3.163,3.1799,0.0,3.3157,3.3186,3.3119,3.2983,3.2429,0.0,0.0,0.0,0.0,0.0,0.0,0.0,0.0,0.0,0.0,0.0,3.1429,3.1059,3.0276,2.99,2.9816,3.0082,3.0542,3.0977,3.1357,3.1724,3.1963,3.2036,3.2037,3.2107,3.2265,3.2757,3.3178,3.3248,3.341,3.3559,3.3527,3.3256,3.2949,3.2899,3.2983,3.3029,3.3165,3.2752,3.2144,3.1689,3.3117,3.4358,3.4393,3.5008,3.5422,3.5721,3.575,3.5514,3.4945,3.4807,3.4599,3.411,3.4105,3.4348,3.4439,3.4593,3.4908,3.5122,3.519,3.5174,3.5154,3.5155,3.5205,3.3727,3.3777,3.391,3.4009,0.0,3.3634,3.311,3.2467,3.2497,3.2482,3.2467,3.2467,3.2467,3.2482,3.2497,3.2497,3.2497,3.2467,3.2467,3.2482,3.2467,3.2497,3.2512,3.2512,3.2467,3.2482,3.2467,3.2467,3.2467,3.2467,3.2332,3.1988,3.1973,3.1824,3.1524,3.1524,3.136,3.1002,3.0672,3.0672,3.0971,3.1386,3.17,3.2006,3.2621,0.0,0.0,0.0,0.0,0.0,0.0,0.0,0.0,3.2696,0.0,3.2797,3.2158,3.2004,3.2525,3.2467,3.2436,3.2581,3.2812,3.2444,3.1322,3.138,3.1547,3.1701,3.1918,3.2192,3.2549,3.2815,3.2948,3.2948,3.2948,3.2931,3.3002,3.3277,3.3502,3.3536,3.3667,3.3761,3.3744,3.3556,3.3389,3.3389,3.3389,3.3423,3.3372,3.3085,3.2671,3.239,3.3902,3.5044,3.467,3.5045,3.5711,3.5866,3.615,3.6105,3.5716,3.5661,3.55,3.5124,3.515,3.5271,3.5374,3.528,3.5203,3.5523,3.5382,3.5223,3.5489,3.5577,3.5621,3.4245,3.4302,3.4572,3.4698,3.4607,3.4083,3.3858,3.3829,0.0,0.0,0.0,3.3499,3.3499,3.3499,3.3499,3.3499,3.3499,3.3499,3.3499,3.3499,3.3499,3.3499,3.3499,3.3499,3.3499,3.3499,3.3499,3.3499,3.3499,3.3499,3.3499,3.3499,3.3499,3.3499,3.3499,3.3499,3.2691,3.1106,3.0806,3.0928,3.1495,3.2522,3.2841,3.2348,3.3501,3.3912,3.344,3.3389,3.3389,3.3389,3.3389,3.3457,3.3592,3.3609,3.366,3.3761,3.322,3.3152,3.3744,3.3576,3.3534,3.3783,3.4155,3.3862,3.2706,3.3179,3.349,3.3389,3.3389,3.3389,3.3389,3.3389,3.3389,3.3389,3.3389,3.3372,3.3389,3.3541,3.3634,3.3609,3.3766,3.3812,3.3884,3.3863,3.3795,3.3812,3.3914,3.3774,3.3757,3.3672,3.3588,3.3867,3.4983,3.5531,3.4933,3.5076,3.5385,3.5975,3.6363,3.6534,3.6421,3.6461,3.645,3.6193,3.6285,3.632,3.6483,3.6042,3.5836,3.628,3.5912,3.5524,3.5791,3.5823,3.5787,3.5294,3.5279,3.532,3.5355,3.534,3.5265,3.522,3.5115,3.3993,3.3499,3.3499,3.3499,3.3499,3.3499,3.3499,3.3499,3.3499,3.3499,3.3499,3.3499,3.3499,3.3499,3.3499,3.3499,3.3499,3.3499,3.3514,3.3499,3.3499,3.3514,3.3499,3.3514,3.3499,3.3514,3.3499,3.3499,3.335,3.3066,3.1958,3.1406,3.1509,3.1201,3.1225,3.167,3.2426,3.3,3.3385,3.3423,3.3389,3.3389,3.3389,3.3694,3.4303,3.4336,3.4624,3.5228,3.5177,3.5177,3.5278,3.5243,3.5265,3.5284,3.5345,3.493,3.3968,3.3938,3.3845,3.3469,3.3474,3.3389,3.3389,3.3457,3.3491,3.3457,3.3423,3.3406,3.3491,3.3998,3.4336,3.4336,3.4928,3.5228,3.516,3.5177,3.516,3.5245,3.5042,3.5211,3.5042,3.458,3.4479,3.5159,3.5989,3.6357,3.6102,3.6512,3.6769,3.6966,3.7324,3.7408,3.6798,3.7064,3.7096,3.6468,3.6468,3.6442,3.6495,3.6297,3.6355,3.6639,3.6641,3.6754,3.6973,3.6803,3.6357,3.5016,3.5301,3.5814,3.5818,3.5489,3.5489,3.5489,3.5444,3.4861,3.4577,3.4592,3.4592,3.4592,3.4592,3.4592,3.4592,3.4592,3.4592,3.4592,3.4577,3.4592,3.4592,3.4577,3.4592,3.4592,3.4592,3.4592,3.4577,3.4592,3.4592,3.4577,3.4577,3.4592,3.4577,3.4592,3.4577,3.4592,3.4562,3.3275,3.2557,3.2587,3.2675,3.2858,3.3112,3.3809,3.4308,3.4559,3.4611,3.4585,3.4585,3.4602,3.4737,3.5081,3.5115,3.525,3.5583,3.5616,3.5616,3.5616,3.5616,3.5616,3.5616,3.5616,3.5401,3.4964,3.4916,3.4827,3.4629,3.4607,3.4585,3.4585,3.4585,3.4585,3.4585,3.4585,3.4585,3.4619,3.4861,3.5076,3.5131,3.538,3.56,3.5616,3.5616,3.5616,3.5616,3.5616,3.5616,3.5616,3.5245,3.5087,3.556,3.6212,3.6696,3.6801,3.7248,3.7542,3.7578,3.7998,3.8021,3.7525,3.7785,3.7909,3.7698,3.7588,3.7606,3.7569,3.7221,3.7141,3.7249,3.7019,3.7073,3.7329,3.7412,3.6998,3.5253,3.5627,3.6387,3.6402,3.5938,3.5938,3.5863,3.5744,3.5729,3.5639,3.5504,3.5489,3.5489,3.5489,3.5489,3.5489,3.5489,3.5489,3.5489,3.5489,3.5489,3.5489,3.5489,3.5489,3.5489,3.5489,3.5489,3.5489,3.5489,3.5489,3.5489,3.5489,3.5489,3.5489,3.5489,3.5489,3.5489,3.5429,3.4487,3.3873,3.374,3.4238,3.4467,3.4537,3.5374,3.5843,3.5843,3.586,3.5853,3.5853,3.5701,3.5616,3.5616,3.5616,3.5616,3.5616,3.5616,3.5616,3.5616,3.5616,3.5616,3.5616,3.5616,3.56,3.5616,3.5616,3.5616,3.5616,3.5549,3.5566,3.5532,3.5566,3.56,3.56,3.5616,3.5532,3.5583,3.5616,3.5616,3.5616,3.5616,3.5616,3.5616,3.5616,3.5616,3.5616,3.5616,3.5616,3.5616,3.5616,3.5616,3.5689,3.6087,3.645,3.6823,3.7174,3.7433,3.7578,3.8065,3.8147,3.8009,3.8332,3.864,3.8579,3.8615,3.856,3.8597,3.8212,3.7908,3.7993,3.7734,3.7491,3.7804,3.8101,3.7844,3.7119,3.7178,3.7295,3.7285,3.718,3.7195,3.6881,3.6432,3.6402,3.6058,3.5594,3.5504,3.5519,3.5489,3.5489,3.5489,3.5489,3.5489,3.5489,3.5489,3.5489,3.5489,3.5489,3.5489,3.5489,3.5489,3.5489,3.5489,3.5489,3.5489,3.5489,3.5489,3.5489,3.5489,3.5489,3.5489,3.5489,3.5489,3.5385,3.5011,3.4445,3.4468,3.4467,3.4525,3.5868,3.66,3.6558,3.6654,3.6694,3.6643,3.6005,3.5633,3.5633,3.5616,3.5616,3.5616,3.5616,3.5616,3.5616,3.5616,3.5616,3.5616,3.5616,3.5616,3.5616,3.5616,3.5616,3.5616,3.5616,3.5616,3.5616,3.5616,3.5616,3.5616,3.5616,3.5616,3.5616,3.5616,3.5616,3.5616,3.5616,3.5616,3.5616,3.5616,3.5616,3.5616,3.5616,3.5616,3.5616,3.5616,3.5616,3.5616,3.5706,3.5756,3.5924,3.6224,3.6664,3.6744,3.736,3.779,3.7929,3.8251,3.8707,3.8692,3.8707,3.8707,3.8707,3.8597,3.8576,3.8512,3.8568,3.8771,3.8753,3.8908,3.8696,3.7771,3.7988,3.7988,3.7764,3.7434,3.7404,3.727,3.7045,3.703,3.6881,3.6656,3.6626,3.6207,3.5504,3.5489,3.5489,3.5489,3.5489,3.5489,3.5489,3.5489,3.5489,3.5489,3.5489,3.5489,3.5489,3.5489,3.5489,3.5489,3.5489,3.5489,3.5489,3.5489,3.5489,3.5489,3.5489,3.5701,3.6134,3.618,3.6027,3.5783,3.5752,3.5733,3.5851,3.6786,3.7114,3.6799,3.717,3.7449,3.7432,3.7127,3.6772,3.6332,3.6299,3.6096,3.5667,3.5616,3.5616,3.5616,3.5616,3.5616,3.5616,3.5616,3.5616,3.5616,3.5616,3.5616,3.5616,3.5616,3.5616,3.5616,3.5616,3.5616,3.5616,3.5616,3.5616,3.5616,3.5616,3.5616,3.5616,3.5616,3.5616,3.5616,3.5616,3.5616,3.5616,3.5616,3.5616,3.5616,3.5616,3.5616,3.5616,3.5616,3.5761,3.5989,3.6539,3.6681,3.6603,3.7001,3.747,3.7596,3.7894,3.83,3.8627,3.8692,3.8707,3.8707,3.8707,3.8707,3.8747,3.8905,3.9107,3.9217,3.9538,3.9578,3.8414,3.8671,3.8661,3.8392,3.7938,3.7958,3.7838,3.7689,3.7674,3.7584,3.7404,3.7404,3.6911,3.6088,3.5863,3.5684,3.5519,3.5489,3.5489,3.5489,3.5489,3.5489,3.5489,3.5489,3.5489,3.5489,3.5489,3.5489,3.5489,3.5489,3.5489,3.5489,3.5489,3.5489,3.5489,3.5489,3.575,3.6259,3.6461,3.6691,3.6904,3.7128,3.7038,3.6736,3.7588,3.7839,3.7369,3.7868,3.821,3.821,3.8024,3.7652,3.7151,3.7117,3.6823,3.6309,3.6225,3.6225,3.6225,3.6225,3.6225,3.6248,3.6225,3.6225,3.6225,3.6225,3.6225,3.6259,3.6225,3.6174,3.5633,3.5616,3.5616,3.5616,3.5616,3.5616,3.5616,3.5616,3.5616,3.5616,3.5616,3.5616,3.5616,3.5616,3.5616,3.5616,3.5616,3.5616,3.5616,3.5616,3.5616,3.5616,3.5616,3.5739,3.6139,3.6542,3.6704,3.6764,3.6943,3.7487,3.7451,3.7825,3.8167,3.8658,3.8692,3.8707,3.8707,3.8707,3.8707,3.8765,3.8909,3.9173,3.9463,3.9842,4.0148,3.9337,3.9328,3.9343,3.9269,3.9269,3.9224,3.8916,3.8362,3.8347,3.8018,3.7539,3.7479,3.7389,3.7255,3.6731,3.6118,3.5594,3.5564,3.5564,3.5549,3.5519,3.5489,3.5489,3.5489,3.5489,3.5489,3.5489,3.5489,3.5489,3.5489,3.5489,3.5489,3.5489,3.5489,3.5489,3.5489,3.5537,3.575,3.6368,3.6964,3.7719,3.8414,3.8072,3.6993,3.8052,3.8809,3.876,3.8874,3.8954,3.8954,3.8362,3.7939,3.7855,3.7838,3.777,3.7736,3.7753,3.7753,3.7719,3.7645,3.7662,3.7736,3.7594,3.7753,3.7584,3.756,3.7584,3.7729,3.7601,3.7087,3.6005,3.5887,3.5802,3.5785,3.5701,3.5735,3.5684,3.5836,3.5633,3.5718,3.5819,3.587,3.5735,3.5616,3.5769,3.5785,3.5701,3.5752,3.5836,3.5752,3.5791,3.5785,3.5769,3.5656,3.5745,3.6224,3.6457,3.6623,3.7154,3.7808,3.8032,3.8267,3.8499,3.8676,3.8692,3.8707,3.8707,3.8707,3.8707,3.8762,3.8898,3.9157,3.9401,3.9819,4.012,3.9388,3.9388,3.9388,3.9388,3.9388,3.9388,3.926,3.905,3.905,3.8916,3.8721,3.8691,3.8452,3.8018,3.7808,3.7345,3.6716,3.6327,3.6133,3.6073,3.5699,3.5489,3.5489,3.5489,3.5489,3.5489,3.5489,3.5489,3.5489,3.5489,3.5489,3.5489,3.5489,3.5489,3.5489,3.5489,3.5733,3.6212,3.695,3.7515,3.7879,3.9022,3.9139,3.8213,3.9113,3.9437,3.8924,3.9394,3.9706,3.9723,3.9436,3.9073,3.8616,3.8159,3.7898,3.7898,3.7898,3.7898,3.7898,3.7898,3.7898,3.7898,3.7898,3.7956,3.7898,3.7898,3.7898,3.7939,3.7898,3.7543,3.7297,3.7077,3.7077,3.7053,3.7053,3.7026,3.7094,3.707,3.7077,3.7077,3.7077,3.7077,3.6952,3.7053,3.7053,3.7094,3.7077,3.7019,3.706,3.7055,3.6983,3.7049,3.7079,3.7085,3.7077,3.6585,3.6478,3.6862,3.7303,3.7667,3.795,3.8264,3.852,3.8954,3.8946,3.8762,3.8799,3.8707,3.8707,3.8719,3.8855,3.9004,3.9218,3.9576,3.9882,3.9388,3.9388,3.9388,3.9388,3.9388,3.9388,3.9388,3.9388,3.9388,3.9388,3.9388,3.9388,3.9155,3.8781,3.8721,3.8497,3.7988,3.7195,3.6776,3.6746,3.6327,3.6028,3.5848,3.5818,3.5699,3.5534,3.5489,3.5489,3.5489,3.5489,3.5489,3.5489,3.5489,3.5489,3.5489,3.5489,3.5797,3.6321,3.701,3.7515,3.7892,3.9049,3.961,3.9437,3.9825,3.9876,3.9315,3.9808,4.0113,4.0113,4.0113,3.9876,3.9385,3.8886,3.8599,3.8616,3.8633,3.8616,3.8616,3.8599,3.8616,3.8616,3.8616,3.8616,3.8616,3.8599,3.8616,3.8616,3.8616,3.8616,3.8599,3.8599,3.843,3.8058,3.7898,3.7898,3.7898,3.7865,3.7848,3.7797,3.7804,3.7848,3.7898,3.7865,3.7855,3.7898,3.7898,3.7898,3.7905,3.7909,3.7905,3.7889,3.7807,3.7865,3.791,3.7607,3.7477,3.7758,3.827,3.833,3.8419,3.863,3.8852,3.9221,3.9239,3.9001,3.8854,3.8762,3.8744,3.8781,3.8747,3.8873,3.9068,3.9264,3.9615,3.9388,3.9388,3.9388,3.9388,3.9388,3.9388,3.9388,3.9388,3.9388,3.9388,3.9388,3.9388,3.9358,3.9328,3.9305,3.9298,3.9035,3.8033,3.7494,3.7404,3.7315,3.6971,3.6507,3.6492,3.6207,3.5729,3.5579,3.5594,3.5669,3.5639,3.5627,3.5567,3.5552,3.5554,3.5522,3.5619,3.5587,3.5831,3.6492,3.71,3.7777,3.858,3.9289,3.9833,4.0045,4.007,4.002,4.0087,4.0113,4.0113,4.0113,4.0113,4.0028,3.9943,4.0011,3.9926,3.9994,4.0045,4.0011,3.9943,3.9859,3.9859,4.0011,3.9859,3.9808,3.9876,3.9876,3.9842,3.9876,3.996,3.9926,3.9893,3.9411,3.8261,3.8176,3.8176,3.8091,3.8007,3.7949,3.8075,3.8142,3.799,3.7973,3.8159,3.8244,3.8227,3.8193,3.8227,3.8278,3.8285,3.8041,3.8115,3.8421,3.8783,3.8728,3.8646,3.8729,3.8889,3.9462,3.9788,3.9857,4.0012,4.0093,4.0343,4.0084,3.9845,3.9554,3.9462,3.9316,3.9294,3.9084,3.9001,3.9201,3.9442,3.9507,3.9388,3.9388,3.9388,3.9388,3.9388,3.9388,3.9388,3.9388,3.9388,3.9388,3.9388,3.9388,3.9388,3.9388,3.9388,3.9388,3.9343,3.8945,3.8542,3.8078,3.7644,3.7345,3.715,3.712,3.703,3.6836,3.6806,3.6806,3.675,3.6405,3.6411,3.6711,3.5991,3.5829,3.6274,3.6259,3.6244,3.6368,3.704,3.7573,3.7835,3.8525,3.9016,3.9289,3.9782,4.0113,4.0113,4.0113,4.0113,4.0113,4.0113,4.0113,4.0113,4.0113,4.0113,4.0113,4.0113,4.0113,4.0113,4.0113,4.0113,4.0113,4.0113,4.0113,4.0113,4.0113,4.0113,4.0113,4.0113,4.0113,4.0113,4.0113,3.9859,3.9469,3.9411,3.9309,3.9259,3.9334,3.9419,3.9411,3.9419,3.9394,3.9402,3.9368,3.9325,3.9317,3.9317,3.9342,3.9368,3.9266,3.9606,3.9877,3.9939,3.9767,3.9896,4.0053,4.0266,4.0201,4.0544,4.0981,4.112,4.1204,4.1321,4.1168,4.0891,4.0616,4.0325,4.0159,4.0031,3.9976,3.9953,3.9829,3.9659,3.97,3.9844,3.9388,3.9388,3.9388,3.9388,3.9388,3.9388,3.9388,3.9388,3.9388,3.9388,3.9388,3.9388,3.9388,3.9388,3.9388,3.9388,3.9388,3.9388,3.9185,3.8781,3.8392,3.8033,3.7833,3.7888,3.7883,3.7867,3.7867,3.7883,3.7852,3.7521,3.7556,3.7773,3.7402,3.7266,3.7432,3.7461,3.7367,3.7207,3.7515,3.7921,3.8218,3.8663,3.9043,3.9385,3.985,4.007,4.0113,4.0113,4.0113,4.0113,4.0113,4.0113,4.0113,4.0113,4.0113,4.0113,4.0113,4.0113,4.0113,4.0113,4.0113,4.0113,4.0113,4.0113,4.0113,4.0113,4.0113,4.0113,4.0113,4.0113,4.0113,4.0113,4.0113,4.0096,4.0045,4.0113,4.0113,4.0113,4.0079,4.0028,4.0045,4.0113,4.0096,4.0319,4.0262,4.0196,4.0303,4.0279,4.0196,4.0062,4.0441,4.0724,4.069,4.0754,4.1143,4.1446,4.1782,4.1673,4.1579,4.1923,4.2153,4.2239,4.2323,4.1901,4.157,4.1222,4.093,4.0857,4.0765,4.0765,4.0799,4.0572,4.036,4.0256,4.0294,3.9388,3.9388,3.9388,3.9388,3.9388,3.9388,3.9388,3.9388,3.9388,3.9388,3.9388,3.9388,3.9388,3.9388,3.9388,3.9388,3.9388,3.9388,3.9373,3.9313,3.9194,3.8945,3.8542,3.8613,3.8734,3.8857,3.8859,3.891,3.9099,3.8929,3.8868,3.9125,3.9436,3.9638,3.9108,3.9012,3.8739,3.8309,3.8113,3.842,3.8931,3.8897,3.9193,3.9859,4.002,4.0113,4.0113,4.0113,4.0113,4.0113,4.0113,4.0113,4.0113,4.0113,4.0113,4.0113,4.0113,4.0113,4.0113,4.0113,4.0113,4.0113,4.0113,4.0113,4.0113,4.0113,4.0113,4.0113,4.0113,4.0113,4.0113,4.0113,4.0113,4.0113,4.0113,4.0113,4.0113,4.0113,4.0113,4.0113,4.0113,4.0113,4.0096,4.0473,4.0473,4.0424,4.0594,4.0587,4.0419,4.0345,4.0476,4.0749,4.1145,4.1443,4.1748,4.1916,4.2221,4.2235,4.2201,4.2486,4.2827,4.2949,4.302,4.2598,4.2231,4.1882,4.1754,4.1756,4.1701,4.1699,4.157,4.1279,4.1105,4.098,4.0885,3.9388,3.9388,3.9388,3.9388,3.9388,3.9388,3.9388,3.9388,3.9388,3.9388,3.9388,3.9388,3.9388,3.9388,3.9388,3.9388,3.9388,3.9388,3.9388,3.9388,3.9388,3.9313,3.917,3.9194,3.9585,4.0086,4.0209,4.0499,4.1039,4.061,4.0686,4.1205,4.0494,4.0318,4.0504,4.059,4.0525,4.0263,3.971,3.9581,3.9666,3.9242,3.8962,3.9209,3.9799,4.007,4.0113,4.0113,4.0113,4.0113,4.0113,4.0113,4.0113,4.0113,4.0113,4.0113,4.0113,4.0113,4.0113,4.0113,4.0113,4.0113,4.0113,4.0113,4.0113,4.0113,4.0113,4.0113,4.0113,4.0113,4.0113,4.0113,4.0113,4.0113,4.0121,4.0146,4.0146,4.0113,4.0113,4.0113,4.0121,4.0113,4.0146,4.0279,4.0466,4.0601,4.0797,4.0891,4.0659,4.0734,4.091,4.131,4.1681,4.1985,4.224,4.2393,4.2537,4.2596,4.2642,4.2794,4.3103,4.3297,4.3332,4.3185,4.2965,4.2635,4.2837,4.2965,4.2837,4.2506,4.2304,4.2029,4.1885,4.1757,4.1673,3.9388,3.9388,3.9388,3.9388,3.9388,3.9388,3.9388,3.9388,3.9388,3.9388,3.9388,3.9388,3.9388,3.9388,3.9388,3.9388,3.9388,3.9388,3.9388,3.9388,3.9388,3.9373,3.9523,3.999,4.0774,4.1247,4.1609,4.2045,4.2392,4.2145,4.2274,4.2479,4.219,4.2034,4.2094,4.2105,4.1955,4.1666,4.1205,4.1032,4.0955,4.0244,3.9927,3.9847,4.012,4.0113,4.0113,4.0113,4.0113,4.0113,4.0113,4.0113,4.0113,4.0113,4.0113,4.0113,4.0113,4.0113,4.0113,4.0113,4.0113,4.0113,4.0113,4.0113,4.0113,4.0113,4.0113,4.0113,4.0113,4.0113,4.0113,4.0113,4.0113,4.0121,4.0269,4.0441,4.0424,4.0254,4.0237,4.0311,4.0254,4.0113,4.0096,4.0279,4.0441,4.0625,4.1013,4.1036,4.0955,4.1147,4.1367,4.1725,4.1928,4.214,4.2407,4.2622,4.2846,4.292,4.2976,4.3124,4.3268,4.3479,4.3461,4.3442,4.3479,4.3479,4.3479,4.3479,4.3332,4.3039,4.291,4.2815,4.2642,4.2572,4.2501,3.9388,3.9388,3.9388,3.9388,3.9388,3.9388,3.9388,3.9388,3.9388,3.9388,3.9388,3.9388,3.9388,3.9388,3.9388,3.9388,3.9388,3.9388,3.9388,3.946,3.9553,3.9666,3.9793,4.0603,4.1379,4.1869,4.2816,4.3139,4.3303,4.3376,4.341,4.3518,4.4061,4.408,4.3546,4.3439,4.3139,4.2696,4.2416,4.2281,4.2162,4.1562,4.1165,4.1073,4.0552,4.0367,4.0282,4.0197,4.0113,4.0113,4.0113,4.0113,4.0113,4.0113,4.0113,4.0113,4.0113,4.0113,4.0113,4.0113,4.0113,4.0113,4.0113,4.0113,4.0113,4.0113,4.0113,4.0113,4.0113,4.0113,4.0113,4.0113,4.0113,4.0146,4.0504,4.0756,4.0827,4.0521,4.0441,4.0709,4.0368,4.0229,4.0229,4.0466,4.0672,4.0655,4.1082,4.1358,4.1424,4.1657,4.1807,4.1987,4.2119,4.2199,4.2527,4.2809,4.3087,4.3268,4.3286,4.3375,4.3356,4.3479,4.3479,4.3479,4.3479,4.3479,4.3479,4.3479,4.3479,4.3442,4.3204,4.3314,4.3402,4.3415,4.3359,3.9388,3.9388,3.9388,3.9388,3.9388,3.9388,3.9388,3.9388,3.9388,3.9388,3.9388,3.9388,3.9388,3.9388,3.9388,3.9388,3.9481,3.9517,3.9388,3.9481,4.015,4.0397,4.0309,4.0447,4.0842,4.1788,4.2189,4.3,4.3931,4.4224,4.4281,4.431,4.4395,4.4513,4.4316,4.4215,4.4293,4.4022,4.3504,4.3183,4.3047,4.2455,4.2033,4.1948,4.1339,4.1001,4.0815,4.0392,4.013,4.0113,4.0146,4.0197,4.0113,4.0113,4.0113,4.0113,4.0113,4.0113,4.0113,4.0113,4.0113,4.0113,4.0113,4.0113,4.0113,4.0113,4.0113,4.0113,4.0113,4.0113,4.0113,4.0113,4.0113,4.0146,4.0262,4.0497,4.0827,4.1178,4.099,4.0601,4.0607,4.0559,4.0204,4.0311,4.0521,4.0709,4.1155,4.1621,4.1877,4.2065,4.2228,4.2311,4.235,4.2452,4.2716,4.3014,4.3214,4.3391,4.3462,4.3479,4.3479,4.3479,4.3479,4.3479,4.3479,4.3479,4.3479,4.3479,4.3479,4.3479,4.3479,4.3479,4.3563,4.3836,4.4084,4.0337,4.0307,4.0008,3.9873,3.9828,3.9523,3.9388,3.9388,3.9388,3.9388,3.9388,3.9388,3.9388,3.9388,3.9424,3.9574,4.0045,4.0447,4.0378,4.0343,4.0894,4.1264,4.128,4.0995,4.1362,4.252,4.3092,4.3827,4.4384,4.4598,4.4542,4.4598,4.4598,4.4581,4.4598,4.4598,4.4564,4.4513,4.4215,4.3961,4.3842,4.3234,4.2574,4.2337,4.1914,4.1711,4.166,4.1373,4.1153,4.106,4.0823,4.0451,4.0146,4.0113,4.0113,4.0113,4.0113,4.0113,4.0113,4.0113,4.0113,4.0146,4.0113,4.0113,4.0113,4.0113,4.0113,4.0113,4.0113,4.0113,4.0113,4.0113,4.0113,4.0171,4.0353,4.0497,4.0642,4.1036,4.1375,4.0984,4.1178,4.1155,4.099,4.0767,4.0648,4.0995,4.1358,4.1814,4.1937,4.2141,4.2456,4.2589,4.2625,4.2737,4.2977,4.3196,4.3356,4.3462,4.3479,4.3479,4.3479,4.3479,4.3479,4.3479,4.3479,4.3479,4.3479,4.3479,4.3479,4.3479,4.3479,4.3479,4.358,4.3788,4.4121,4.1422,4.1339,4.0771,4.0546,4.0457,3.9956,3.9723,3.9568,3.9574,3.9523,3.9445,3.9517,3.9737,3.9681,3.9864,4.0274,4.0894,4.1445,4.1363,4.108,4.1788,4.2125,4.2189,4.2379,4.2738,4.3532,4.3814,4.4281,4.4514,4.4598,4.4598,4.4598,4.4598,4.4598,4.4598,4.4598,4.4598,4.4581,4.453,4.4451,4.4445,4.3876,4.3335,4.2963,4.2557,4.2472,4.2422,4.2252,4.2185,4.2269,4.1694,4.1085,4.0603,4.0146,4.0113,4.0113,4.0113,4.0214,4.0358,4.0367,4.0383,4.0383,4.0502,4.0502,4.0536,4.0637,4.0671,4.0603,4.0637,4.0637,4.0468,4.0637,4.0587,4.0595,4.0898,4.0847,4.0684,4.0951,4.1683,4.1424,4.149,4.1512,4.1595,4.1508,4.1353,4.1308,4.1717,4.1979,4.2116,4.2343,4.2739,4.296,4.2996,4.3014,4.3214,4.3268,4.3462,4.3479,4.3479,4.3479,4.3479,4.3479,4.3479,4.3479,4.3479,4.3479,4.3479,4.3479,4.3479,4.3479,4.3479,4.3479,4.3595,4.374,4.4091,4.1422,4.1407,4.1265,4.122,4.1205,4.107,4.0696,4.0277,4.0232,3.9918,3.9541,4.0165,4.0459,4.0603,4.128,4.1642,4.1707,4.2062,4.2062,4.1965,4.2645,4.3078,4.3169,4.3604,4.4093,4.4121,4.4064,4.4035,4.4468,4.4598,4.4598,4.4598,4.4598,4.4598,4.4598,4.4598,4.4598,4.4598,4.4598,4.4598,4.453,4.4412,4.4215,4.3938,4.3487,4.3267,4.3081,4.2658,4.2303,4.2286,4.2185,4.2033,4.166,4.084,4.035,4.0299,4.0333,4.057,4.0916,4.1018,4.1356,4.1745,4.1805,4.1839,4.183,4.1839,4.1679,4.1816,4.185,4.1882,4.1941,4.1834,4.1882,4.1925,4.1876,4.1928,4.2031,4.2413,4.255,4.1747,4.1754,4.2153,4.2513,4.2682,4.2551,4.2502,4.2692,4.2734,4.2677,4.2936,4.3269,4.3357,4.3409,4.3409,4.3444,4.3427,4.3479,4.3479,4.3479,4.3479,4.3479,4.3479,4.3479,4.3479,4.3479,4.3479,4.3479,4.3479,4.3479,4.3479,4.3479,4.3479,4.3563,4.366,4.4004,4.2387,4.2357,4.2028,4.1931,4.1871,4.1519,4.122,4.095,4.0905,4.0546,4.0308,4.076,4.1016,4.1005,4.1593,4.1981,4.2189,4.3061,4.3031,4.3,4.3515,4.396,4.3931,4.444,4.4542,4.4468,4.4196,4.4121,4.457,4.4598,4.4598,4.4598,4.4598,4.4598,4.4598,4.4598,4.4598,4.4598,4.4598,4.4598,4.4598,4.4598,4.4598,4.4479,4.4293,4.4045,4.3944,4.3741,4.3487,4.3436,4.3098,4.2912,4.2557,4.1982,4.1221,4.1221,4.1213,4.1348,4.1694,4.1762,4.1948,4.2185,4.2337,4.2303,4.2303,4.2262,4.2513,4.2749,4.2851,4.2943,4.3211,4.3062,4.2834,4.2732,4.2593,4.2407,4.2462,4.2953,4.2686,4.2345,4.3387,4.4021,4.4204,4.4183,4.3879,4.3784,4.377,4.3614,4.3401,4.3594,4.3924,4.3775,4.3809,4.3791,4.3828,4.3883,4.3736,4.3663,4.3608,4.3589,4.3479,4.3479,4.3479,4.3479,4.3479,4.3479,4.3479,4.3479,4.3479,4.3479,4.3479,4.3479,4.3479,4.3612,4.3931,4.3305,4.3245,4.2776,4.259,4.2515,4.2013,4.1713,4.1632,4.1814,4.1549,4.1085,4.1969,4.2178,4.1827,4.2174,4.2614,4.2676,4.4064,4.4035,4.3814,4.415,4.4542,4.457,4.4598,4.4598,4.457,4.4542,4.4598,4.4598,4.4598,4.4598,4.4598,4.4598,4.4598,4.4598,4.4598,4.4598,4.4598,4.4598,4.4598,4.4598,4.4598,4.4598,4.4598,4.4598,4.4547,4.4496,4.4429,4.4412,4.4248,4.3978,4.3656,4.3555,4.3081,4.276,4.2692,4.2472,4.2371,4.2506,4.2523,4.2642,4.298,4.2828,4.2794,4.2844,4.3068,4.3093,4.3468,4.3779,4.3954,4.4292,4.4183,4.4032,4.3895,4.3503,4.3,4.3199,4.3485,4.3726,4.4095,4.5288,4.5423,4.5113,4.524,4.4869,4.4793,4.4795,4.4722,4.4543,4.4468,4.4565,4.4307,4.4213,4.4195,4.4268,4.4452,4.4287,4.4066,4.3975,4.392,4.3681,4.3479,4.3497,4.3552,4.3479,4.3479,4.3479,4.3479,4.3479,4.3479,4.3479,4.3479,4.3479,4.3546,4.3758,4.3305,4.329,4.3215,4.3185,4.314,4.3035,4.2746,4.2421,4.3089,4.3138,4.252,4.4118,4.4509,4.4074,4.4051,4.4263,4.436,4.4355,4.4514,4.431,4.4497,4.4598,4.4598,4.4598,4.4598,4.4598,4.4598,4.4598,4.4598,4.4598,4.4598,4.4598,4.4598,4.4598,4.4598,4.4598,4.4598,4.4598,4.4598,4.4598,4.4598,4.4598,4.4598,4.4598,4.4598,4.4598,4.4598,4.4598,4.4598,4.4581,4.4513,4.4445,4.4462,4.4429,4.4344,4.3938,4.3267,4.2574,4.3166,4.3301,4.3504,4.3876,4.4124,4.4276,4.409,4.4073,4.4128,4.4427,4.4844,4.5212,4.5453,4.5732,4.5899,4.5679,4.5155,4.4931,4.4915,4.4491,4.4688,4.4908,4.5824,4.5598,4.5294,4.5616,4.5828,4.5828,4.5792,4.5755,4.5516,4.5296,4.5259,4.5004,4.5002,4.5002,4.4837,4.5002,4.4911,4.4617,4.4525,4.4378,4.4213,4.403,4.3644,4.3644,4.3589,4.3497,4.3479,4.3479,4.3479,4.3479,4.3479,4.3479,4.3479,4.3563,4.3646,4.3305,4.3305,4.3305,4.3305,4.3305,4.3305,4.314,4.3136,4.3913,4.3997,4.3818,4.5258,4.593,4.5691,4.5431,4.5201,4.5128,4.4835,4.4615,4.4615,4.4615,4.4598,4.4598,4.4598,4.4598,4.4598,4.4598,4.4598,4.4598,4.4598,4.4598,4.4598,4.4598,4.4598,4.4598,4.4598,4.4598,4.4598,4.4598,4.4598,4.4598,4.4598,4.4598,4.4598,4.4598,4.4598,4.4598,4.4598,4.4598,4.4598,4.4598,4.4598,4.4598,4.4581,4.4581,4.453,4.4028,4.3809,4.4028,4.4045,4.4276,4.4445,4.4598,4.453,4.4598,4.4598,4.4786,4.5098,4.5656,4.6063,4.6401,4.6796,4.691,4.6756,4.6288,4.6143,4.6014,4.5996,4.5888,4.609,4.6187,4.5947,4.5857,4.6277,4.6662,4.6908,4.6909,4.6892,4.6323,4.5608,4.5645,4.5718,4.581,4.5938,4.57,4.5626,4.5608,4.5406,4.5388,4.5241,4.5002,4.4727,4.436,4.3956,4.3809,4.3699,4.3589,4.3479,4.3479,4.3479,4.3479,4.3479,4.3479,4.3496,4.3679,4.3669,4.3669,4.3669,4.3669,4.3708,4.3912,4.4074,4.4136,4.5106,4.5246,4.5225,4.6258,4.6932,4.687,4.6317,4.5974,4.594,4.5213,4.4953,4.4852,4.4699,4.4598,4.4598,4.4598,4.4598,4.4598,4.4598,4.4598,4.4598,4.4598,4.4598,4.4598,4.4598,4.4598,4.4598,4.4598,4.4598,4.4598,4.4598,4.4598,4.4598,4.4598,4.4598,4.4598,4.4598,4.4598,4.4598,4.4598,4.4598,4.4598,4.4598,4.4598,4.4598,4.4598,4.4598,4.4581,4.4378,4.4412,4.4479,4.4496,4.4665,4.4759,4.4869,4.4971,4.5115,4.4906,4.4824,4.5355,4.5732,4.6305,4.6796,4.691,4.7128,4.6955,4.6733,4.6664,4.6571,4.6501,4.6359,4.627,4.6342,4.6548,4.6606,4.7014,4.7446,4.7884,4.8006,4.7937,4.7277,4.6342,4.647,4.6728,4.6819,4.6966,4.6838,4.6599,4.6434,4.6232,4.6214,4.5975,4.5681,4.5424,4.5094,4.469,4.4342,4.4452,4.4654,4.4048,4.3479,4.3479,4.3479,4.3479,4.3479,4.3496,4.3758,4.4699,4.4699,4.4737,4.4737,4.4774,4.5654,4.5961,4.5818,4.685,4.724,4.716,4.7619,4.7801,4.7618,4.7124,4.6718,4.6684,4.5957,4.5703,4.5399,4.5021,4.4852,4.4801,4.475,4.4649,4.4598,4.4598,4.4598,4.4598,4.4598,4.4598,4.4598,4.4598,4.4598,4.4598,4.4598,4.4598,4.4598,4.4598,4.4598,4.4598,4.4598,4.4598,4.4598,4.4598,4.4598,4.4598,4.4598,4.4598,4.4598,4.4598,4.4598,4.4598,4.4598,4.4598,4.4598,4.4598,4.4598,4.4598,4.4626,4.4906,4.5232,4.5468,4.5622,4.5865,4.5115,4.5035,4.5545,4.594,4.5957,4.6112,4.6161,4.6972,4.7106,4.7021,4.6977,4.691,4.6864,4.671,4.646,4.653,4.6801,4.6937,4.7259,4.7572,4.7957,4.8172,4.8122,4.814,4.7535,4.7718,4.7902,4.7976,4.8031,4.8067,4.7829,4.7388,4.7131,4.704,4.6654,4.6232,4.5993,4.5828,4.5663,4.5406,4.5553,4.5498,4.48,4.4158,4.3681,4.3496,4.3531,4.3529,4.3546,4.3912,4.567,4.569,4.6276,4.6205,4.567,4.6032,4.6208,4.6365,4.7205,4.795,4.8465,4.8543,4.8595,4.8376,4.7851,4.7479,4.7378,4.6718,4.6464,4.6329,4.6058,4.5703,4.5483,4.5196,4.506,4.4767,4.4649,4.4598,4.4598,4.4615,4.4598,4.4598,4.4598,4.4598,4.4598,4.4598,4.4598,4.4598,4.4598,4.4598,4.4598,4.4598,4.4598,4.4598,4.4598,4.4598,4.4598,4.4598,4.4598,4.4598,4.4598,4.4598,4.4598,4.4598,4.4598,4.4598,4.4598,4.4598,4.4626,4.4637,4.4896,4.5433,4.579,4.6167,4.6478,4.589,4.5808,4.6112,4.6336,4.6401,4.6705,4.6905,4.7212,4.7277,4.7277,4.7216,4.7299,4.7259,4.7324,4.7241,4.7132,4.7172,4.7259,4.7385,4.7656,4.7975,4.8152,4.8324,4.8324,4.8324,4.8324,4.8324,4.8324,4.8324,4.8324,4.8251,4.8177,4.7976,4.7736,4.7425,4.6985,4.6764,4.6617,4.6489,4.6324,4.6159,4.5865,4.5388,4.4892,4.4433,4.3952,4.3597,4.3579,4.376,4.4352,4.6592,4.6747,4.7622,4.7489,4.6712,4.6918,4.702,4.7172,4.7737,4.8321,4.9001,4.9018,4.9018,4.8849,4.8528,4.824,4.8037,4.753,4.7225,4.7005,4.6802,4.6498,4.6177,4.5957,4.5805,4.5263,4.4959,4.4959,4.4976,4.4733,4.4615,4.4598,4.4598,4.4598,4.4598,4.4598,4.4598,4.4598,4.4598,4.4598,4.4598,4.4598,4.4598,4.4598,4.4598,4.4598,4.4598,4.4598,4.4598,4.4598,4.4598,4.4598,4.4598,4.4598,4.4598,4.4598,4.4598,4.4626,4.4637,4.5052,4.5222,4.552,4.6312,4.6594,4.6664,4.6571,4.6336,4.6687,4.6977,4.715,4.7172,4.6955,4.7128,4.7194,4.7342,4.7363,4.7715,4.7856,4.7995,4.8055,4.7897,4.7674,4.7715,4.7777,4.7877,4.8113,4.8209,4.8324,4.8324,4.8324,4.8324,4.8324,4.8324,4.8324,4.8306,4.8269,4.8233,4.8214,4.8067,4.8141,4.7846,4.7571,4.7424,4.7388,4.715,4.6728,4.6507,4.6379,4.5828,4.5186,4.4762,4.4408,4.4839,4.5122,4.5363,4.7539,4.7704,4.8545,4.8401,4.7704,4.8545,4.8829,4.8656,4.8798,4.8892,4.9001,4.9018,4.9018,4.8984,4.8832,4.8798,4.8697,4.8159,4.7872,4.7784,4.7445,4.6972,4.6802,4.6735,4.6599,4.6549,4.6092,4.5686,4.5669,4.5246,4.4936,4.4666,4.4682,4.4598,4.4598,4.4598,4.4598,4.4598,4.4598,4.4598,4.4598,4.4598,4.4598,4.4598,4.4598,4.4598,4.4598,4.4598,4.4598,4.4598,4.4598,4.4598,4.4598,4.4692,4.472,4.472,4.4731,4.472,4.472,4.5749,4.5989,4.5833,4.6594,4.7194,4.7216,4.6977,4.6824,4.7302,4.711,4.6778,4.6594,4.6571,4.6999,4.7194,4.7342,4.747,4.7797,4.8172,4.8267,4.8324,4.8324,4.8267,4.8248,4.8248,4.8229,4.8267,4.8305,4.8324,4.8324,4.8324,4.8324,4.8324,4.8324,4.8324,4.8324,4.8324,4.8306,4.8324,4.8324,4.8324,4.8324,4.8067,4.803,4.814,4.7939,4.7498,4.7517,4.7571,4.6929,4.6305,4.581,4.5605,4.6075,4.6299,4.6351,4.8545,4.8545,4.8861,4.8829,4.8576,4.8861,4.9018,4.9018,4.9018,4.9018,4.9018,4.9018,4.9018,4.9018,4.9018,4.9018,4.8934,4.89,4.8646,4.8578,4.824,4.7953,4.7716,4.7496,4.731,4.6853,4.6481,4.643,4.6413,4.5974,4.5669,4.5399,4.4987,4.4615,4.4598,4.4598,4.4598,4.4598,4.4598,4.4598,4.4598,4.4598,4.4598,4.4598,4.4598,4.4598,4.4598,4.4598,4.4598,4.4598,4.4598,4.4598,4.4692,4.4841,4.5169,4.5294,4.5433,4.5783,4.5965,4.6524,4.6687,4.6618,4.6864,4.7614,4.7836,4.7818,4.7838,4.7858,4.7677,4.7512,4.7718,4.7302,4.7385,4.7324,4.7406,4.7406,4.7656,4.8093,4.8324,4.8324,4.8324,4.8324,4.8324,4.8324,4.8324,4.8324,4.8324,4.8324,4.8324,4.8324,4.8324,4.8324,4.8324,4.8324,4.8324,4.8324,4.8324,4.8324,4.8324,4.8324,4.8324,4.8324,4.8306,4.8251,4.8288,4.8288,4.8122,4.7957,4.7902,4.748,4.6893,4.6623,4.6909,4.6951,4.6793,4.9018,4.9018,4.9018,4.9018,4.9018,4.9018,4.9018,4.9018,4.9018,4.9018,4.9018,4.9018,4.9018,4.9018,4.9018,4.9018,4.9018,4.9001,4.9001,4.9018,4.8984,4.8646,4.8392,4.8227,4.8105,4.7564,4.7259,4.7175,4.7158,4.6904,4.6515,4.6041,4.5568,4.5331,4.5094,4.4852,4.4598,4.4598,4.4598,4.4598,4.4598,4.4598,4.4598,4.4598,4.4598,4.4598,4.4598,4.4598,4.4598,4.4598,4.4598,4.4598,4.4786,4.5115,4.5459,4.5673,4.6014,4.6312,4.6478,4.6618,4.6733,4.6864,4.7345,4.7736,4.8055,4.8035,4.8172,4.8248,4.8324,4.8287,4.8172,4.7736,4.7715,4.7656,4.7677,4.7715,4.7797,4.8229,4.8324,4.8324,4.8324,4.8324,4.8324,4.8324,4.8324,4.8324,4.8324,4.8324,4.8324,4.8324,4.8324,4.8324,4.8324,4.8324,4.8324,4.8324,4.8324,4.8324,4.8324,4.8324,4.8324,4.8324,4.8324,4.8324,4.8324,4.8324,4.8324,4.8233,4.8123,4.8034,4.7757,4.7653,4.7801,4.7837,4.7791,4.9018,4.9018,4.9018,4.9018,4.9018,4.9018,4.9018,4.9018,4.9018,4.9018,4.9018,4.9018,4.9018,4.9018,4.9018,4.9018,4.9018,4.9018,4.9018,4.9018,4.9018,4.89,4.8917,4.8866,4.8697,4.8595,4.8342,4.7936,4.7855,4.7344,4.6955,4.6802,4.6532,4.616,4.5669,4.5314,4.4919,4.4716,4.4598,4.4598,4.4598,4.4598,4.4598,4.4598,4.4598,4.4598,4.4598,4.4598,4.4598,4.4598,4.4598,4.4626,4.4841,4.5214,4.5407,4.5808,4.6359,4.6571,4.6733,4.691,4.7044,4.7388,4.7879,4.7877,4.7877,4.8113,4.8248,4.8324,4.8324,4.8324,4.8229,4.8209,4.819,4.8172,4.8172,4.8209,4.8209,4.8324,4.8324,4.8324,4.8324,4.8324,4.8324,4.8324,4.8324,4.8324,4.8324,4.8324,4.8324,4.8324,4.8324,4.8324,4.8324,4.8324,4.8324,4.8324,4.8324,4.8324,4.8324,4.8324,4.8324,4.8324,4.8324,4.8324,4.8324,4.8344,4.8458,4.8439,4.8327,4.8255,4.8387,4.853,4.8626,4.9181,4.9371,4.9018,4.9018,4.9018,4.9018,4.9018,4.9018,4.9018,4.9018,4.9018,4.9018,4.9018,4.9018,4.9018,4.9018,4.9018,4.9018,4.9018,4.9018,4.9018,4.9018,4.9018,4.9018,4.9018,4.9018,4.9018,4.8951,4.8781,4.8578,4.8494,4.7919,4.7597,4.7564,4.7208,4.6802,4.6515,4.6244,4.5563,4.4953,4.4784,4.4716,4.4666,4.4649,4.4632,4.4598,4.4598,4.4598,4.4598,4.4654,4.4654,4.4654,4.4626,4.4748,4.5267,4.5815,4.6336,4.7428,4.7697,4.7777,4.7756,4.7756,4.7907,4.8079,4.8301,4.821,4.8152,4.8208,4.8361,4.8324,4.8324,4.8324,4.8324,4.8324,4.8324,4.8324,4.8324,4.8324,4.8324,4.8324,4.8324,4.8324,4.8324,4.8324,4.8324,4.8324,4.8324,4.8324,4.8324,4.8324,4.8324,4.8324,4.8324,4.8324,4.8324,4.8324,4.8324,4.8324,4.8324,4.8324,4.8324,4.8324,4.8324,4.8324,4.8324,4.8324,4.8324,4.8495,4.8709,4.8639,4.8513,4.898,4.9145,4.9296,4.9532,4.9924,5.0249,4.9018,4.9018,4.9018,4.9018,4.9018,4.9018,4.9018,4.9018,4.9018,4.9018,4.9018,4.9018,4.9018,4.9018,4.9018,4.9018,4.9018,4.9018,4.9018,4.9018,4.9018,4.9018,4.9018,4.9018,4.9018,4.9018,4.9018,4.8917,4.8883,4.868,4.8342,4.8308,4.7784,4.7513,4.731,4.7107,4.6566,4.5805,4.528,4.5077,4.4959,4.4818,4.4632,4.4632,4.4632,4.4632,4.4665,4.4748,4.4934,4.5052,4.5089,4.5459,4.594,4.6454,4.7132,4.809,4.8612,4.8704,4.8812,4.9163,4.9222,4.9169,4.8967,4.8857,4.8654,4.858,4.8453,4.8324,4.8324,4.8324,4.8324,4.8324,4.8324,4.8324,4.8324,4.8324,4.8324,4.8324,4.8324,4.8324,4.8324,4.8324,4.8324,4.8324,4.8324,4.8324,4.8324,4.8324,4.8324,4.8324,4.8324,4.8324,4.8324,4.8324,4.8324,4.8324,4.8324,4.8324,4.8324,4.8324,4.8324,4.8324,4.8324,4.8324,4.8324,4.855,4.883,4.8761,4.8763,4.9265,4.9659,4.9746,4.9866,5.0171,5.0432,4.9018,4.9018,4.9018,4.9018,4.9018,4.9018,4.9018,4.9018,4.9018,4.9018,4.9018,4.9018,4.9018,4.9018,4.9018,4.9018,4.9018,4.9018,4.9018,4.9018,4.9018,4.9018,4.9018,4.9018,4.9018,4.9018,4.9018,4.9018,4.9018,4.8866,4.8815,4.8984,4.8866,4.8511,4.8054,4.8003,4.7597,4.709,4.6397,4.5991,4.5652,4.5213,4.4722,4.4722,4.475,4.4772,4.4848,4.5133,4.5537,4.5732,4.6094,4.6447,4.7055,4.7559,4.8195,4.8585,4.9369,4.9572,4.9774,5.0086,5.0417,5.0343,5.0143,4.9793,4.9499,4.8728,4.8398,4.8324,4.8324,4.8324,4.8324,4.8324,4.8324,4.8324,4.8324,4.8324,4.8324,4.8324,4.8324,4.8324,4.8324,4.8324,4.8324,4.8324,4.8324,4.8324,4.8324,4.8324,4.8324,4.8324,4.8324,4.8324,4.8324,4.8324,4.8324,4.8324,4.8324,4.8324,4.8324,4.8324,4.8324,4.8324,4.8324,4.8324,4.8325,4.8622,4.8847,4.883,4.9046,4.965,4.9962,5.0068,5.0249,5.0432,5.0544,4.9018,4.9018,4.9018,4.9018,4.9018,4.9018,4.9018,4.9018,4.9018,4.9018,4.9018,4.9018,4.9018,4.9018,4.9018,4.9018,4.9018,4.9018,4.9018,4.9018,4.9018,4.9018,4.9018,4.9018,4.9018,4.9018,4.9018,4.9018,4.9018,4.9018,4.9018,4.9001,4.9018,4.8815,4.8663,4.8629,4.8443,4.8139,4.7648,4.7022,4.6616,4.6397,4.6092,4.5669,4.5461,4.5431,4.55,4.5502,4.586,4.6178,4.6965,4.7844,4.8915,4.9577,4.996,5.0193,5.0306,5.0472,5.06,5.0839,5.1059,5.0949,5.0674,5.0582,5.0086,4.8967,4.8416,4.8416,4.8416,4.8453,4.8398,4.8398,4.8343,4.8343,4.8324,4.8324,4.8324,4.8324,4.8324,4.8324,4.8324,4.8324,4.8324,4.8324,4.8324,4.8324,4.8324,4.8324,4.8324,4.8324,4.8324,4.8324,4.8324,4.8324,4.8324,4.8324,4.8324,4.8324,4.8324,4.8324,4.8324,4.8324,4.8324,4.8324,4.8382,4.871,4.8947,4.8996,4.9311,4.9968,5.0202,5.0272,5.041,5.0604,5.0634,4.9018,4.9018,4.9018,4.9018,4.9018,4.9018,4.9018,4.9018,4.9018,4.9018,4.9018,4.9018,4.9018,4.9018,4.9018,4.9018,4.9018,4.9018,4.9018,4.9018,4.9018,4.9018,4.9018,4.9018,4.9018,4.9018,4.9018,4.9018,4.9018,4.9018,4.9018,4.9018,4.9018,4.9018,4.9018,4.9018,4.9018,4.8951,4.8528,4.8139,4.7564,4.7192,4.6735,4.6244,4.6191,4.6242,4.6669,4.6786,4.7353,4.7907,4.8758,4.9256,5.0016,5.0396,5.0688,5.0857,5.1022,5.1334,5.1408,5.1555,5.172,5.1701,5.1389,5.1353,5.1187,5.0233,4.9738,4.9719,4.9719,4.9738,4.9187,4.904,4.8636,4.8471,4.8379,4.8324,4.8324,4.8324,4.8324,4.8324,4.8324,4.8324,4.8324,4.8324,4.8324,4.8324,4.8324,4.8324,4.8324,4.8324,4.8324,4.8324,4.8324,4.8324,4.8324,4.8324,4.8324,4.8324,4.8324,4.8324,4.8324,4.8324,4.8324,4.8325,4.8495,4.8898,4.9078,4.9234,4.9687,5.0347,5.0442,5.0442,5.0585,5.0683,5.0683,4.9018,4.9018,4.9018,4.9018,4.9018,4.9018,4.9018,4.9018,4.9018,4.9018,4.9018,4.9018,4.9018,4.9018,4.9018,4.9018,4.9018,4.9018,4.9018,4.9018,4.9018,4.9018,4.9018,4.9018,4.9018,4.9018,4.9018,4.9018,4.9018,4.9018,4.9018,4.9018,4.9018,4.9018,4.9018,4.9018,4.9018,4.9018,4.8866,4.8934,4.8409,4.7784,4.7293,4.7039,4.6992,4.7267,4.7897,4.8448,4.9097,4.9825,5.0356,5.0848,5.1153,5.144,5.1367,5.1573,5.1903,5.2105,5.2252,5.2601,5.2837,5.2892,5.2417,5.2105,5.1922,5.1646,5.1169,5.0986,5.0986,5.0545,4.9994,4.9646,4.9205,4.8838,4.8728,4.8416,4.8398,4.8361,4.8343,4.8343,4.8324,4.8324,4.8324,4.8324,4.8324,4.8324,4.8324,4.8324,4.8324,4.8324,4.8324,4.8324,4.8324,4.8324,4.8324,4.8324,4.8324,4.8324,4.8324,4.8324,4.8324,4.8324,4.8325,4.8364,4.8586,4.898,4.9386,4.965,5.0171,5.0624,5.0614,5.0565,5.0614,5.0683,5.0683,4.9018,4.9018,4.9018,4.9018,4.9018,4.9018,4.9018,4.9018,4.9018,4.9018,4.9018,4.9018,4.9018,4.9018,4.9018,4.9018,4.9018,4.9018,4.9018,4.9018,4.9018,4.9018,4.9018,4.9018,4.9018,4.9018,4.9018,4.9018,4.9018,4.9018,4.9018,4.9018,4.9018,4.9018,4.9018,4.9032,4.9107,4.9168,4.9212,4.9273,4.9168,4.865,4.8274,4.7986,4.7699,4.8086,4.8487,4.8728,4.9539,5.0438,5.1326,5.1956,5.2289,5.2415,5.2415,5.2362,5.2692,5.2747,5.2928,5.3038,5.3185,5.3167,5.2803,5.2821,5.2729,5.2729,5.2362,5.2194,5.1958,5.1132,5.0618,5.0582,5.027,4.9976,4.9793,4.9058,4.8655,4.8545,4.8453,4.8379,4.8324,4.8324,4.8324,4.8324,4.8324,4.8324,4.8324,4.8324,4.8324,4.8324,4.8324,4.8324,4.8324,4.8324,4.8324,4.8324,4.8324,4.8324,4.8324,4.8324,4.8324,4.8324,4.8325,4.8345,4.8657,4.9078,4.946,4.9885,5.0249,5.0604,5.0663,5.0673,5.0683,5.0683,5.0683]}]]